<?xml version='1.0' encoding='UTF-8'?><gpx version="1.1" creator="JPX - https://github.com/jenetics/jpx" xmlns="http://www.topografix.com/GPX/1/1"><trk><trkseg><trkpt lat="43.588120969885594" lon="11.332488028111268"><ele>345.0</ele><time>2026-03-29T17:26:40Z</time></trkpt><trkpt lat="43.58802123217876" lon="11.332396975296298"><ele>345.0</ele><time>2026-03-29T17:26:42Z</time></trkpt><trkpt lat="43.58796898049393" lon="11.332348019802078"><ele>345.0</ele><time>2026-03-29T17:26:43Z</time></trkpt><trkpt lat="43.58790643243665" lon="11.332299379217117"><ele>345.0</ele><time>2026-03-29T17:26:44Z</time></trkpt><trkpt lat="43.58784382211649" lon="11.332235038103653"><ele>345.0</ele><time>2026-03-29T17:26:45Z</time></trkpt><trkpt lat="43.58777857412525" lon="11.332180097264656"><ele>345.0</ele><time>2026-03-29T17:26:46Z</time></trkpt><trkpt lat="43.58771636814725" lon="11.332146372157808"><ele>344.42857142857144</ele><time>2026-03-29T17:26:47Z</time></trkpt><trkpt lat="43.58764348678835" lon="11.332110950340097"><ele>343.85714285714283</ele><time>2026-03-29T17:26:48Z</time></trkpt><trkpt lat="43.58757020748091" lon="11.332064668361895"><ele>343.2857142857143</ele><time>2026-03-29T17:26:49Z</time></trkpt><trkpt lat="43.5875052277066" lon="11.332026252566893"><ele>342.7142857142857</ele><time>2026-03-29T17:26:50Z</time></trkpt><trkpt lat="43.58744445703025" lon="11.331980212272088"><ele>342.14285714285717</ele><time>2026-03-29T17:26:51Z</time></trkpt><trkpt lat="43.587381247650946" lon="11.33196124803635"><ele>341.57142857142856</ele><time>2026-03-29T17:26:52Z</time></trkpt><trkpt lat="43.58732187853433" lon="11.331929497606835"><ele>341.0</ele><time>2026-03-29T17:26:53Z</time></trkpt><trkpt lat="43.58721649984276" lon="11.331876240369352"><ele>341.0</ele><time>2026-03-29T17:26:55Z</time></trkpt><trkpt lat="43.58711109768906" lon="11.331809485979761"><ele>341.0</ele><time>2026-03-29T17:26:57Z</time></trkpt><trkpt lat="43.586996125030566" lon="11.33171210721478"><ele>341.0</ele><time>2026-03-29T17:26:59Z</time></trkpt><trkpt lat="43.586926654801495" lon="11.331659940347249"><ele>341.0</ele><time>2026-03-29T17:27:00Z</time></trkpt><trkpt lat="43.586837276163344" lon="11.331591389895706"><ele>341.0</ele><time>2026-03-29T17:27:01Z</time></trkpt><trkpt lat="43.58676104642123" lon="11.331534658153391"><ele>339.57142857142856</ele><time>2026-03-29T17:27:02Z</time></trkpt><trkpt lat="43.58670960231655" lon="11.331454875731861"><ele>338.14285714285717</ele><time>2026-03-29T17:27:03Z</time></trkpt><trkpt lat="43.58666126997518" lon="11.331371734386641"><ele>336.7142857142857</ele><time>2026-03-29T17:27:04Z</time></trkpt><trkpt lat="43.58663581843612" lon="11.331278881778116"><ele>335.2857142857143</ele><time>2026-03-29T17:27:05Z</time></trkpt><trkpt lat="43.58660598609372" lon="11.331197173638563"><ele>333.85714285714283</ele><time>2026-03-29T17:27:06Z</time></trkpt><trkpt lat="43.586574249588026" lon="11.331104364463878"><ele>332.42857142857144</ele><time>2026-03-29T17:27:07Z</time></trkpt><trkpt lat="43.58655262853633" lon="11.331013459143282"><ele>331.0</ele><time>2026-03-29T17:27:08Z</time></trkpt><trkpt lat="43.58653244286188" lon="11.330920848735708"><ele>331.0</ele><time>2026-03-29T17:27:09Z</time></trkpt><trkpt lat="43.5865169727987" lon="11.330830537506989"><ele>331.0</ele><time>2026-03-29T17:27:10Z</time></trkpt><trkpt lat="43.58651925947819" lon="11.33074341270172"><ele>331.0</ele><time>2026-03-29T17:27:11Z</time></trkpt><trkpt lat="43.58657127898483" lon="11.330621184250013"><ele>331.0</ele><time>2026-03-29T17:27:13Z</time></trkpt><trkpt lat="43.5866843395516" lon="11.330519598214861"><ele>331.0</ele><time>2026-03-29T17:27:15Z</time></trkpt><trkpt lat="43.58675543129658" lon="11.330474995694615"><ele>331.0</ele><time>2026-03-29T17:27:16Z</time></trkpt><trkpt lat="43.5868254768715" lon="11.330444165332441"><ele>329.7142857142857</ele><time>2026-03-29T17:27:17Z</time></trkpt><trkpt lat="43.5868941596131" lon="11.330413840760368"><ele>328.42857142857144</ele><time>2026-03-29T17:27:18Z</time></trkpt><trkpt lat="43.58696044126369" lon="11.3303632080026"><ele>327.1428571428571</ele><time>2026-03-29T17:27:19Z</time></trkpt><trkpt lat="43.58702820688385" lon="11.330330801385195"><ele>325.8571428571429</ele><time>2026-03-29T17:27:20Z</time></trkpt><trkpt lat="43.58709627129766" lon="11.330343931710782"><ele>324.57142857142856</ele><time>2026-03-29T17:27:21Z</time></trkpt><trkpt lat="43.587168517317934" lon="11.330381833600992"><ele>323.2857142857143</ele><time>2026-03-29T17:27:22Z</time></trkpt><trkpt lat="43.587251894552075" lon="11.330394080666258"><ele>322.0</ele><time>2026-03-29T17:27:23Z</time></trkpt><trkpt lat="43.587314217016775" lon="11.330413717301052"><ele>322.0</ele><time>2026-03-29T17:27:24Z</time></trkpt><trkpt lat="43.58738093654132" lon="11.330422447708381"><ele>322.0</ele><time>2026-03-29T17:27:25Z</time></trkpt><trkpt lat="43.58744985615998" lon="11.330424478825137"><ele>322.0</ele><time>2026-03-29T17:27:26Z</time></trkpt><trkpt lat="43.58754058629009" lon="11.330298908874628"><ele>322.0</ele><time>2026-03-29T17:27:28Z</time></trkpt><trkpt lat="43.58753665637376" lon="11.330211629797413"><ele>322.0</ele><time>2026-03-29T17:27:29Z</time></trkpt><trkpt lat="43.5874877959598" lon="11.330102452741071"><ele>322.0</ele><time>2026-03-29T17:27:30Z</time></trkpt><trkpt lat="43.58744564301549" lon="11.329990282082806"><ele>322.0</ele><time>2026-03-29T17:27:30.999Z</time></trkpt><trkpt lat="43.587427704966075" lon="11.329886624196076"><ele>322.0</ele><time>2026-03-29T17:27:31.999Z</time></trkpt><trkpt lat="43.587414716520804" lon="11.329776044003525"><ele>322.0</ele><time>2026-03-29T17:27:32.999Z</time></trkpt><trkpt lat="43.5873928409375" lon="11.32965848222078"><ele>322.0</ele><time>2026-03-29T17:27:33.999Z</time></trkpt><trkpt lat="43.58737622627682" lon="11.329509559424315"><ele>322.0</ele><time>2026-03-29T17:27:34.999Z</time></trkpt><trkpt lat="43.58735859266955" lon="11.329352759585921"><ele>322.0</ele><time>2026-03-29T17:27:35.999Z</time></trkpt><trkpt lat="43.58734995441656" lon="11.32918527903195"><ele>322.0</ele><time>2026-03-29T17:27:36.999Z</time></trkpt><trkpt lat="43.58734649950258" lon="11.329036159025822"><ele>322.0</ele><time>2026-03-29T17:27:37.999Z</time></trkpt><trkpt lat="43.587344242184216" lon="11.328898457706314"><ele>322.0</ele><time>2026-03-29T17:27:38.999Z</time></trkpt><trkpt lat="43.58733203388367" lon="11.32876536118046"><ele>322.0</ele><time>2026-03-29T17:27:39.999Z</time></trkpt><trkpt lat="43.58732240118899" lon="11.328640558399693"><ele>322.0</ele><time>2026-03-29T17:27:40.999Z</time></trkpt><trkpt lat="43.587312367334754" lon="11.328527752772805"><ele>322.0</ele><time>2026-03-29T17:27:41.999Z</time></trkpt><trkpt lat="43.58728769809096" lon="11.328428136975026"><ele>322.0</ele><time>2026-03-29T17:27:42.999Z</time></trkpt><trkpt lat="43.58723760607391" lon="11.328321893654111"><ele>322.0</ele><time>2026-03-29T17:27:43.999Z</time></trkpt><trkpt lat="43.587177176445635" lon="11.32822630471608"><ele>322.0</ele><time>2026-03-29T17:27:44.999Z</time></trkpt><trkpt lat="43.58711594416619" lon="11.328143397690976"><ele>322.0</ele><time>2026-03-29T17:27:45.999Z</time></trkpt><trkpt lat="43.587055630879696" lon="11.328063313904813"><ele>319.5</ele><time>2026-03-29T17:27:46.999Z</time></trkpt><trkpt lat="43.58699323627619" lon="11.327972704404438"><ele>317.0</ele><time>2026-03-29T17:27:47.999Z</time></trkpt><trkpt lat="43.586939237450636" lon="11.327859500046635"><ele>314.5</ele><time>2026-03-29T17:27:48.999Z</time></trkpt><trkpt lat="43.58689974136685" lon="11.327761031770958"><ele>312.0</ele><time>2026-03-29T17:27:49.999Z</time></trkpt><trkpt lat="43.58686404890413" lon="11.32765149535956"><ele>309.5</ele><time>2026-03-29T17:27:51Z</time></trkpt><trkpt lat="43.58683510546446" lon="11.327547093303076"><ele>307.0</ele><time>2026-03-29T17:27:52Z</time></trkpt><trkpt lat="43.5867956140836" lon="11.327449695619965"><ele>306.99999999999994</ele><time>2026-03-29T17:27:53Z</time></trkpt><trkpt lat="43.58676005756533" lon="11.327360800603797"><ele>307.0</ele><time>2026-03-29T17:27:54Z</time></trkpt><trkpt lat="43.58670536456496" lon="11.327291449683925"><ele>307.0</ele><time>2026-03-29T17:27:55Z</time></trkpt><trkpt lat="43.58662564404747" lon="11.327244865103232"><ele>307.0</ele><time>2026-03-29T17:27:56Z</time></trkpt><trkpt lat="43.586548080954266" lon="11.3272247399135"><ele>307.0</ele><time>2026-03-29T17:27:57Z</time></trkpt><trkpt lat="43.586489354236264" lon="11.327185413289792"><ele>306.99999999999994</ele><time>2026-03-29T17:27:58Z</time></trkpt><trkpt lat="43.586441289002465" lon="11.327120894024066"><ele>307.0</ele><time>2026-03-29T17:27:59Z</time></trkpt><trkpt lat="43.58640886778871" lon="11.327030741958158"><ele>308.3333333333333</ele><time>2026-03-29T17:28:00Z</time></trkpt><trkpt lat="43.58638243083827" lon="11.326931209296072"><ele>309.66666666666663</ele><time>2026-03-29T17:28:01Z</time></trkpt><trkpt lat="43.58635755642874" lon="11.326829968511404"><ele>311.0</ele><time>2026-03-29T17:28:02Z</time></trkpt><trkpt lat="43.58631411422997" lon="11.326749601007927"><ele>312.3333333333333</ele><time>2026-03-29T17:28:03Z</time></trkpt><trkpt lat="43.58624298834765" lon="11.326715231496742"><ele>313.6666666666667</ele><time>2026-03-29T17:28:04Z</time></trkpt><trkpt lat="43.586162335251935" lon="11.326738681041526"><ele>315.0</ele><time>2026-03-29T17:28:05Z</time></trkpt><trkpt lat="43.586086796981746" lon="11.326779192525372"><ele>312.14285714285717</ele><time>2026-03-29T17:28:06Z</time></trkpt><trkpt lat="43.58602480187777" lon="11.32681151690549"><ele>309.2857142857143</ele><time>2026-03-29T17:28:07Z</time></trkpt><trkpt lat="43.5859642780309" lon="11.326842786260118"><ele>306.42857142857144</ele><time>2026-03-29T17:28:08Z</time></trkpt><trkpt lat="43.585899882910034" lon="11.326828705880843"><ele>303.57142857142856</ele><time>2026-03-29T17:28:09Z</time></trkpt><trkpt lat="43.58585134841351" lon="11.32676387465798"><ele>300.7142857142857</ele><time>2026-03-29T17:28:10Z</time></trkpt><trkpt lat="43.585830133159625" lon="11.326653601258613"><ele>297.8571428571429</ele><time>2026-03-29T17:28:11Z</time></trkpt><trkpt lat="43.58581305465489" lon="11.326540094424303"><ele>295.0</ele><time>2026-03-29T17:28:12Z</time></trkpt><trkpt lat="43.58579413111129" lon="11.326404683255427"><ele>297.5</ele><time>2026-03-29T17:28:13Z</time></trkpt><trkpt lat="43.58574253517726" lon="11.326279804748994"><ele>300.0</ele><time>2026-03-29T17:28:14Z</time></trkpt><trkpt lat="43.58565771640439" lon="11.326178324866857"><ele>302.5</ele><time>2026-03-29T17:28:15Z</time></trkpt><trkpt lat="43.58555633251393" lon="11.326104420350603"><ele>305.0</ele><time>2026-03-29T17:28:16Z</time></trkpt><trkpt lat="43.58545333814473" lon="11.326020450408729"><ele>305.0</ele><time>2026-03-29T17:28:17Z</time></trkpt><trkpt lat="43.58536046166561" lon="11.325947328472802"><ele>305.0</ele><time>2026-03-29T17:28:18Z</time></trkpt><trkpt lat="43.58527348225254" lon="11.325881370493635"><ele>305.0</ele><time>2026-03-29T17:28:19Z</time></trkpt><trkpt lat="43.585180697061936" lon="11.325820513359584"><ele>305.0</ele><time>2026-03-29T17:28:20Z</time></trkpt><trkpt lat="43.58508705884782" lon="11.325747634227525"><ele>305.0</ele><time>2026-03-29T17:28:21Z</time></trkpt><trkpt lat="43.5850017781937" lon="11.325674629711799"><ele>303.6666666666667</ele><time>2026-03-29T17:28:22Z</time></trkpt><trkpt lat="43.58491054560515" lon="11.325607363477078"><ele>302.33333333333337</ele><time>2026-03-29T17:28:23Z</time></trkpt><trkpt lat="43.58482988590243" lon="11.325548828016071"><ele>301.0</ele><time>2026-03-29T17:28:24Z</time></trkpt><trkpt lat="43.58476198358756" lon="11.325487914017783"><ele>299.6666666666667</ele><time>2026-03-29T17:28:25Z</time></trkpt><trkpt lat="43.58470805355441" lon="11.325403559636255"><ele>298.3333333333333</ele><time>2026-03-29T17:28:26Z</time></trkpt><trkpt lat="43.58469251406982" lon="11.325280331235408"><ele>297.0</ele><time>2026-03-29T17:28:27Z</time></trkpt><trkpt lat="43.58466136963207" lon="11.325149080042102"><ele>297.0</ele><time>2026-03-29T17:28:28Z</time></trkpt><trkpt lat="43.584615595177844" lon="11.325020631626257"><ele>297.0</ele><time>2026-03-29T17:28:29Z</time></trkpt><trkpt lat="43.584588303479784" lon="11.324897103042435"><ele>297.0</ele><time>2026-03-29T17:28:30Z</time></trkpt><trkpt lat="43.58454937949256" lon="11.324793306390534"><ele>297.0</ele><time>2026-03-29T17:28:31Z</time></trkpt><trkpt lat="43.58450332624164" lon="11.324692580878473"><ele>297.0</ele><time>2026-03-29T17:28:32Z</time></trkpt><trkpt lat="43.58440642776987" lon="11.324652689708426"><ele>291.75</ele><time>2026-03-29T17:28:33Z</time></trkpt><trkpt lat="43.58431921957342" lon="11.324572238175113"><ele>286.5</ele><time>2026-03-29T17:28:34Z</time></trkpt><trkpt lat="43.584241578227434" lon="11.324472899458003"><ele>281.25</ele><time>2026-03-29T17:28:35Z</time></trkpt><trkpt lat="43.584162743469406" lon="11.324336657327756"><ele>276.0</ele><time>2026-03-29T17:28:36Z</time></trkpt><trkpt lat="43.58408523570958" lon="11.324187223312409"><ele>276.0</ele><time>2026-03-29T17:28:37Z</time></trkpt><trkpt lat="43.584006474466776" lon="11.324039998514593"><ele>276.0</ele><time>2026-03-29T17:28:38Z</time></trkpt><trkpt lat="43.58397820019183" lon="11.323879184570709"><ele>276.0</ele><time>2026-03-29T17:28:39Z</time></trkpt><trkpt lat="43.583956189446845" lon="11.323684298503437"><ele>276.0</ele><time>2026-03-29T17:28:40Z</time></trkpt><trkpt lat="43.58393535977748" lon="11.32346049389872"><ele>275.25</ele><time>2026-03-29T17:28:41Z</time></trkpt><trkpt lat="43.58390035012779" lon="11.323253308345684"><ele>274.5</ele><time>2026-03-29T17:28:42Z</time></trkpt><trkpt lat="43.58388939277515" lon="11.323081462481902"><ele>273.75</ele><time>2026-03-29T17:28:43Z</time></trkpt><trkpt lat="43.58390175412726" lon="11.322936756886275"><ele>273.0</ele><time>2026-03-29T17:28:44Z</time></trkpt><trkpt lat="43.58388135364571" lon="11.322799204016086"><ele>272.0</ele><time>2026-03-29T17:28:45Z</time></trkpt><trkpt lat="43.58387949444042" lon="11.322674899874368"><ele>271.0</ele><time>2026-03-29T17:28:46Z</time></trkpt><trkpt lat="43.5838348403132" lon="11.322552272927599"><ele>270.0</ele><time>2026-03-29T17:28:47Z</time></trkpt><trkpt lat="43.583758101647476" lon="11.322463313394463"><ele>269.0</ele><time>2026-03-29T17:28:48Z</time></trkpt><trkpt lat="43.58368349787513" lon="11.3223780219356"><ele>268.0</ele><time>2026-03-29T17:28:49Z</time></trkpt><trkpt lat="43.58361587691696" lon="11.322293342894524"><ele>265.16666666666663</ele><time>2026-03-29T17:28:50Z</time></trkpt><trkpt lat="43.58356201369396" lon="11.32219472039529"><ele>262.3333333333333</ele><time>2026-03-29T17:28:51Z</time></trkpt><trkpt lat="43.58355436761842" lon="11.322078666345423"><ele>259.5</ele><time>2026-03-29T17:28:52Z</time></trkpt><trkpt lat="43.583540315486154" lon="11.321965280868298"><ele>256.6666666666667</ele><time>2026-03-29T17:28:53Z</time></trkpt><trkpt lat="43.583530201022775" lon="11.321844342571765"><ele>253.83333333333334</ele><time>2026-03-29T17:28:54Z</time></trkpt><trkpt lat="43.58352543556789" lon="11.321715585574289"><ele>251.0</ele><time>2026-03-29T17:28:55Z</time></trkpt><trkpt lat="43.583527776946624" lon="11.321591068960569"><ele>251.0</ele><time>2026-03-29T17:28:56Z</time></trkpt><trkpt lat="43.58352255800761" lon="11.321477493884398"><ele>251.00000000000003</ele><time>2026-03-29T17:28:57Z</time></trkpt><trkpt lat="43.58348437010751" lon="11.32135742737575"><ele>251.00000000000003</ele><time>2026-03-29T17:28:58Z</time></trkpt><trkpt lat="43.58345421193693" lon="11.32124198774365"><ele>251.0</ele><time>2026-03-29T17:28:59Z</time></trkpt><trkpt lat="43.58342047761494" lon="11.32112872192272"><ele>251.0</ele><time>2026-03-29T17:29:00Z</time></trkpt><trkpt lat="43.5833742179711" lon="11.321014713531794"><ele>251.0</ele><time>2026-03-29T17:29:01Z</time></trkpt><trkpt lat="43.58333508457107" lon="11.32088088927855"><ele>251.00000000000003</ele><time>2026-03-29T17:29:02Z</time></trkpt><trkpt lat="43.58333061113567" lon="11.320745609134232"><ele>251.00000000000003</ele><time>2026-03-29T17:29:03Z</time></trkpt><trkpt lat="43.58330153190919" lon="11.32062017831128"><ele>251.0</ele><time>2026-03-29T17:29:04Z</time></trkpt><trkpt lat="43.5832910140179" lon="11.320495125208694"><ele>251.0</ele><time>2026-03-29T17:29:05Z</time></trkpt><trkpt lat="43.58328527714971" lon="11.320377980193602"><ele>251.1428571428571</ele><time>2026-03-29T17:29:06Z</time></trkpt><trkpt lat="43.5832741756388" lon="11.320261829102288"><ele>251.28571428571428</ele><time>2026-03-29T17:29:07Z</time></trkpt><trkpt lat="43.58326189891599" lon="11.320154688177377"><ele>251.42857142857142</ele><time>2026-03-29T17:29:08Z</time></trkpt><trkpt lat="43.58324146155509" lon="11.320054482172194"><ele>251.57142857142856</ele><time>2026-03-29T17:29:09Z</time></trkpt><trkpt lat="43.58321304313031" lon="11.319964779824913"><ele>251.71428571428572</ele><time>2026-03-29T17:29:10Z</time></trkpt><trkpt lat="43.58319055953061" lon="11.319880324844116"><ele>251.85714285714286</ele><time>2026-03-29T17:29:11Z</time></trkpt><trkpt lat="43.58316228396472" lon="11.319787780892156"><ele>252.0</ele><time>2026-03-29T17:29:12Z</time></trkpt><trkpt lat="43.58313402393065" lon="11.319674202197602"><ele>250.85714285714286</ele><time>2026-03-29T17:29:13Z</time></trkpt><trkpt lat="43.58312207612604" lon="11.319572743155547"><ele>249.71428571428572</ele><time>2026-03-29T17:29:14Z</time></trkpt><trkpt lat="43.58311518793267" lon="11.31948060398792"><ele>248.57142857142856</ele><time>2026-03-29T17:29:15Z</time></trkpt><trkpt lat="43.58310965520623" lon="11.31939367257035"><ele>247.42857142857142</ele><time>2026-03-29T17:29:16Z</time></trkpt><trkpt lat="43.58310217778932" lon="11.319307381094108"><ele>246.28571428571428</ele><time>2026-03-29T17:29:17Z</time></trkpt><trkpt lat="43.583096520628935" lon="11.319219577530095"><ele>245.1428571428571</ele><time>2026-03-29T17:29:18Z</time></trkpt><trkpt lat="43.58309059081223" lon="11.319130175500938"><ele>243.99999999999997</ele><time>2026-03-29T17:29:19Z</time></trkpt><trkpt lat="43.58305781413131" lon="11.318965479270458"><ele>242.2</ele><time>2026-03-29T17:29:21Z</time></trkpt><trkpt lat="43.58305180956444" lon="11.318801365217585"><ele>240.39999999999998</ele><time>2026-03-29T17:29:23Z</time></trkpt><trkpt lat="43.58304468118618" lon="11.318714838603757"><ele>238.6</ele><time>2026-03-29T17:29:24Z</time></trkpt><trkpt lat="43.583035642166834" lon="11.318558150007533"><ele>236.8</ele><time>2026-03-29T17:29:26Z</time></trkpt><trkpt lat="43.58301824311341" lon="11.318424136785113"><ele>235.0</ele><time>2026-03-29T17:29:28Z</time></trkpt><trkpt lat="43.58300681303974" lon="11.318310919215584"><ele>234.99999999999997</ele><time>2026-03-29T17:29:29.999Z</time></trkpt><trkpt lat="43.58299898389224" lon="11.318212478753738"><ele>235.0</ele><time>2026-03-29T17:29:31.999Z</time></trkpt><trkpt lat="43.582988879030125" lon="11.31812558420674"><ele>235.0</ele><time>2026-03-29T17:29:35.999Z</time></trkpt><trkpt lat="43.58298332433644" lon="11.318026747679161"><ele>235.0</ele><time>2026-03-29T17:29:39.999Z</time></trkpt><trkpt lat="43.582959122869816" lon="11.317943577452624"><ele>234.99999999999997</ele><time>2026-03-29T17:29:43.999Z</time></trkpt><trkpt lat="43.58296295863383" lon="11.317810923540199"><ele>235.0</ele><time>2026-03-29T17:29:59Z</time></trkpt><trkpt lat="43.58293759871402" lon="11.317695536259484"><ele>235.33333333333331</ele><time>2026-03-29T17:30:01Z</time></trkpt><trkpt lat="43.58271472596006" lon="11.317743356942183"><ele>235.66666666666669</ele><time>2026-03-29T17:30:02Z</time></trkpt><trkpt lat="43.58261490810484" lon="11.317807505180305"><ele>236.0</ele><time>2026-03-29T17:30:03Z</time></trkpt><trkpt lat="43.5825034151084" lon="11.317861481714038"><ele>236.0</ele><time>2026-03-29T17:30:04Z</time></trkpt><trkpt lat="43.58239064589187" lon="11.317909101783366"><ele>236.00000000000003</ele><time>2026-03-29T17:30:05Z</time></trkpt><trkpt lat="43.58228507623712" lon="11.317954967194112"><ele>236.00000000000003</ele><time>2026-03-29T17:30:06Z</time></trkpt><trkpt lat="43.582185288131924" lon="11.317981116852893"><ele>236.0</ele><time>2026-03-29T17:30:07Z</time></trkpt><trkpt lat="43.582084559362286" lon="11.31798830997325"><ele>236.0</ele><time>2026-03-29T17:30:08Z</time></trkpt><trkpt lat="43.581983112933585" lon="11.31798156215945"><ele>236.60000000000002</ele><time>2026-03-29T17:30:09Z</time></trkpt><trkpt lat="43.58188892139789" lon="11.317938111192205"><ele>237.20000000000002</ele><time>2026-03-29T17:30:10Z</time></trkpt><trkpt lat="43.58178921877433" lon="11.317926715393522"><ele>237.79999999999998</ele><time>2026-03-29T17:30:11Z</time></trkpt><trkpt lat="43.58169296359624" lon="11.317901209890021"><ele>238.39999999999998</ele><time>2026-03-29T17:30:12Z</time></trkpt><trkpt lat="43.58159620777762" lon="11.317875363123925"><ele>239.0</ele><time>2026-03-29T17:30:13Z</time></trkpt><trkpt lat="43.58149658595847" lon="11.317871402259975"><ele>239.0</ele><time>2026-03-29T17:30:14Z</time></trkpt><trkpt lat="43.58139433793381" lon="11.317880229144116"><ele>238.99999999999997</ele><time>2026-03-29T17:30:15Z</time></trkpt><trkpt lat="43.58128078103084" lon="11.317891348712594"><ele>238.99999999999997</ele><time>2026-03-29T17:30:16Z</time></trkpt><trkpt lat="43.58116204636654" lon="11.317908738930193"><ele>239.0</ele><time>2026-03-29T17:30:17Z</time></trkpt><trkpt lat="43.58105206587963" lon="11.317911120445789"><ele>239.0</ele><time>2026-03-29T17:30:18Z</time></trkpt><trkpt lat="43.58095078985679" lon="11.317880771772721"><ele>238.5</ele><time>2026-03-29T17:30:19Z</time></trkpt><trkpt lat="43.58086267841785" lon="11.317791186281957"><ele>238.0</ele><time>2026-03-29T17:30:20Z</time></trkpt><trkpt lat="43.58075755609921" lon="11.317727920519042"><ele>237.5</ele><time>2026-03-29T17:30:21Z</time></trkpt><trkpt lat="43.580655932054704" lon="11.317647438936584"><ele>237.0</ele><time>2026-03-29T17:30:22Z</time></trkpt><trkpt lat="43.58054960676298" lon="11.317564813279335"><ele>237.0</ele><time>2026-03-29T17:30:23Z</time></trkpt><trkpt lat="43.580447762447506" lon="11.317481569566498"><ele>237.0</ele><time>2026-03-29T17:30:24Z</time></trkpt><trkpt lat="43.58034490934081" lon="11.317388510775238"><ele>237.0</ele><time>2026-03-29T17:30:25Z</time></trkpt><trkpt lat="43.580252364846636" lon="11.317285004029156"><ele>237.0</ele><time>2026-03-29T17:30:26Z</time></trkpt><trkpt lat="43.58016373960832" lon="11.31716920501396"><ele>238.5</ele><time>2026-03-29T17:30:27Z</time></trkpt><trkpt lat="43.58006649520105" lon="11.31706552051006"><ele>240.0</ele><time>2026-03-29T17:30:28Z</time></trkpt><trkpt lat="43.57995296119574" lon="11.316999187511763"><ele>241.5</ele><time>2026-03-29T17:30:29Z</time></trkpt><trkpt lat="43.579825484995695" lon="11.316958377295634"><ele>243.0</ele><time>2026-03-29T17:30:30Z</time></trkpt><trkpt lat="43.57969484558585" lon="11.316919178466474"><ele>243.0</ele><time>2026-03-29T17:30:31Z</time></trkpt><trkpt lat="43.579562607268564" lon="11.3168714879874"><ele>243.0</ele><time>2026-03-29T17:30:32Z</time></trkpt><trkpt lat="43.579431186416485" lon="11.316825707804258"><ele>243.0</ele><time>2026-03-29T17:30:33Z</time></trkpt><trkpt lat="43.579300111594556" lon="11.316785053086045"><ele>243.0</ele><time>2026-03-29T17:30:34Z</time></trkpt><trkpt lat="43.57916758575903" lon="11.316736365614448"><ele>242.25</ele><time>2026-03-29T17:30:35Z</time></trkpt><trkpt lat="43.57904218813355" lon="11.316690084361735"><ele>241.5</ele><time>2026-03-29T17:30:36Z</time></trkpt><trkpt lat="43.57891183996057" lon="11.316639188266016"><ele>240.75</ele><time>2026-03-29T17:30:37Z</time></trkpt><trkpt lat="43.57878458511392" lon="11.316587637545487"><ele>240.0</ele><time>2026-03-29T17:30:38Z</time></trkpt><trkpt lat="43.578655944437656" lon="11.316552699413487"><ele>240.0</ele><time>2026-03-29T17:30:39Z</time></trkpt><trkpt lat="43.57852085368718" lon="11.316543654397176"><ele>240.0</ele><time>2026-03-29T17:30:40Z</time></trkpt><trkpt lat="43.5783824135219" lon="11.316552678274155"><ele>240.0</ele><time>2026-03-29T17:30:41Z</time></trkpt><trkpt lat="43.578244944687505" lon="11.316580852794742"><ele>240.0</ele><time>2026-03-29T17:30:42Z</time></trkpt><trkpt lat="43.57810996359143" lon="11.316620579106464"><ele>240.0</ele><time>2026-03-29T17:30:43Z</time></trkpt><trkpt lat="43.57797849057164" lon="11.316663956612635"><ele>240.0</ele><time>2026-03-29T17:30:44Z</time></trkpt><trkpt lat="43.57784835880276" lon="11.31671499284483"><ele>240.0</ele><time>2026-03-29T17:30:45Z</time></trkpt><trkpt lat="43.57771765702487" lon="11.31676622878788"><ele>240.0</ele><time>2026-03-29T17:30:46Z</time></trkpt><trkpt lat="43.57758792884418" lon="11.316812473365415"><ele>241.0</ele><time>2026-03-29T17:30:47Z</time></trkpt><trkpt lat="43.577454442550106" lon="11.316858413351197"><ele>242.0</ele><time>2026-03-29T17:30:48Z</time></trkpt><trkpt lat="43.57732271460705" lon="11.316901491937378"><ele>243.0</ele><time>2026-03-29T17:30:49Z</time></trkpt><trkpt lat="43.57719181775468" lon="11.316950873273425"><ele>244.0</ele><time>2026-03-29T17:30:50Z</time></trkpt><trkpt lat="43.5770645956726" lon="11.317006868909376"><ele>243.0</ele><time>2026-03-29T17:30:51Z</time></trkpt><trkpt lat="43.57693624590155" lon="11.31706594729796"><ele>242.0</ele><time>2026-03-29T17:30:52Z</time></trkpt><trkpt lat="43.57680755768493" lon="11.317125372644767"><ele>241.0</ele><time>2026-03-29T17:30:53Z</time></trkpt><trkpt lat="43.576680843642286" lon="11.317186805352902"><ele>240.0</ele><time>2026-03-29T17:30:54Z</time></trkpt><trkpt lat="43.57655842452786" lon="11.317253491463413"><ele>240.0</ele><time>2026-03-29T17:30:55Z</time></trkpt><trkpt lat="43.57643130362867" lon="11.317325801828408"><ele>240.0</ele><time>2026-03-29T17:30:56Z</time></trkpt><trkpt lat="43.57630776674347" lon="11.317389074003284"><ele>240.0</ele><time>2026-03-29T17:30:57Z</time></trkpt><trkpt lat="43.57618319221721" lon="11.31745507113895"><ele>240.0</ele><time>2026-03-29T17:30:58Z</time></trkpt><trkpt lat="43.57605415460335" lon="11.317522373312531"><ele>241.0</ele><time>2026-03-29T17:30:59Z</time></trkpt><trkpt lat="43.575929629600644" lon="11.317583233670584"><ele>242.0</ele><time>2026-03-29T17:31:00Z</time></trkpt><trkpt lat="43.575803348045454" lon="11.317647216671048"><ele>243.0</ele><time>2026-03-29T17:31:01Z</time></trkpt><trkpt lat="43.57566763969011" lon="11.317712411630874"><ele>244.0</ele><time>2026-03-29T17:31:02Z</time></trkpt><trkpt lat="43.575533867054155" lon="11.317787517266098"><ele>244.0</ele><time>2026-03-29T17:31:03Z</time></trkpt><trkpt lat="43.57539454893573" lon="11.3178512934339"><ele>244.0</ele><time>2026-03-29T17:31:04Z</time></trkpt><trkpt lat="43.57526317757662" lon="11.31792102663825"><ele>244.0</ele><time>2026-03-29T17:31:05Z</time></trkpt><trkpt lat="43.57512944344053" lon="11.317987044923932"><ele>244.0</ele><time>2026-03-29T17:31:06Z</time></trkpt><trkpt lat="43.5749899949268" lon="11.318045459876739"><ele>243.75</ele><time>2026-03-29T17:31:07Z</time></trkpt><trkpt lat="43.57484224943079" lon="11.318124651299385"><ele>243.5</ele><time>2026-03-29T17:31:08Z</time></trkpt><trkpt lat="43.574699344313174" lon="11.318193419851706"><ele>243.25</ele><time>2026-03-29T17:31:09Z</time></trkpt><trkpt lat="43.57456822282852" lon="11.318259067983487"><ele>243.0</ele><time>2026-03-29T17:31:10Z</time></trkpt><trkpt lat="43.574425653212685" lon="11.318332902548443"><ele>248.0</ele><time>2026-03-29T17:31:11Z</time></trkpt><trkpt lat="43.57428345769599" lon="11.318406488012851"><ele>253.0</ele><time>2026-03-29T17:31:12Z</time></trkpt><trkpt lat="43.574139593279504" lon="11.31847199436299"><ele>258.0</ele><time>2026-03-29T17:31:13Z</time></trkpt><trkpt lat="43.57400102790471" lon="11.318543168339083"><ele>258.0</ele><time>2026-03-29T17:31:14Z</time></trkpt><trkpt lat="43.57385445204114" lon="11.318621625592558"><ele>258.0</ele><time>2026-03-29T17:31:15Z</time></trkpt><trkpt lat="43.573718460873145" lon="11.318688666342984"><ele>258.0</ele><time>2026-03-29T17:31:16Z</time></trkpt><trkpt lat="43.57357875400067" lon="11.318751471890915"><ele>258.0</ele><time>2026-03-29T17:31:17Z</time></trkpt><trkpt lat="43.57344504350624" lon="11.31881780647587"><ele>255.75</ele><time>2026-03-29T17:31:18Z</time></trkpt><trkpt lat="43.57330229123563" lon="11.31890182684822"><ele>253.5</ele><time>2026-03-29T17:31:19Z</time></trkpt><trkpt lat="43.57317031999532" lon="11.318971729222103"><ele>251.25</ele><time>2026-03-29T17:31:20Z</time></trkpt><trkpt lat="43.57303770524925" lon="11.319043081283166"><ele>249.0</ele><time>2026-03-29T17:31:21Z</time></trkpt><trkpt lat="43.57290209222665" lon="11.319111083357983"><ele>251.25</ele><time>2026-03-29T17:31:22Z</time></trkpt><trkpt lat="43.57276127153925" lon="11.319181750975245"><ele>253.5</ele><time>2026-03-29T17:31:23Z</time></trkpt><trkpt lat="43.57262723703935" lon="11.319246458902619"><ele>255.75</ele><time>2026-03-29T17:31:24Z</time></trkpt><trkpt lat="43.572496413597115" lon="11.319317561949319"><ele>258.0</ele><time>2026-03-29T17:31:25Z</time></trkpt><trkpt lat="43.57237404293254" lon="11.319385177287886"><ele>258.0</ele><time>2026-03-29T17:31:25.999Z</time></trkpt><trkpt lat="43.57224378771236" lon="11.319414654550194"><ele>258.0</ele><time>2026-03-29T17:31:26.999Z</time></trkpt><trkpt lat="43.572121259268194" lon="11.319476471980561"><ele>258.0</ele><time>2026-03-29T17:31:27.999Z</time></trkpt><trkpt lat="43.57201059928101" lon="11.31953304285988"><ele>258.0</ele><time>2026-03-29T17:31:28.999Z</time></trkpt><trkpt lat="43.571912340121536" lon="11.319583274275095"><ele>259.5</ele><time>2026-03-29T17:31:29.999Z</time></trkpt><trkpt lat="43.57183917998318" lon="11.319620674738307"><ele>261.0</ele><time>2026-03-29T17:31:30.999Z</time></trkpt><trkpt lat="43.57175755025391" lon="11.319661954986334"><ele>262.5</ele><time>2026-03-29T17:31:32.999Z</time></trkpt><trkpt lat="43.57172283350146" lon="11.319586711546432"><ele>264.0</ele><time>2026-03-29T17:31:34.999Z</time></trkpt><trkpt lat="43.57164837810353" lon="11.319489094456195"><ele>265.5</ele><time>2026-03-29T17:31:36.999Z</time></trkpt><trkpt lat="43.57158488510242" lon="11.3195000745717"><ele>267.0</ele><time>2026-03-29T17:31:37.999Z</time></trkpt><trkpt lat="43.57150950484029" lon="11.319529074171086"><ele>267.0</ele><time>2026-03-29T17:31:38.999Z</time></trkpt><trkpt lat="43.57139826608638" lon="11.319463047199418"><ele>267.0</ele><time>2026-03-29T17:31:40.999Z</time></trkpt><trkpt lat="43.571330442302404" lon="11.31941018830923"><ele>267.0</ele><time>2026-03-29T17:31:42.999Z</time></trkpt><trkpt lat="43.57135593297779" lon="11.319267489319936"><ele>267.0</ele><time>2026-03-29T17:31:44.999Z</time></trkpt><trkpt lat="43.57138239888455" lon="11.319121213436684"><ele>267.0</ele><time>2026-03-29T17:31:46.999Z</time></trkpt><trkpt lat="43.57136789235988" lon="11.318989152963145"><ele>270.5</ele><time>2026-03-29T17:31:48.999Z</time></trkpt><trkpt lat="43.571325358711626" lon="11.318846041448507"><ele>274.0</ele><time>2026-03-29T17:31:50.999Z</time></trkpt><trkpt lat="43.57128144916502" lon="11.31877001139838"><ele>277.5</ele><time>2026-03-29T17:31:51.999Z</time></trkpt><trkpt lat="43.571246119701264" lon="11.318675449170122"><ele>281.0</ele><time>2026-03-29T17:31:52.999Z</time></trkpt><trkpt lat="43.571219707009725" lon="11.318568019040145"><ele>284.5</ele><time>2026-03-29T17:31:53.999Z</time></trkpt><trkpt lat="43.57118818670862" lon="11.31848489204822"><ele>288.0</ele><time>2026-03-29T17:31:54.999Z</time></trkpt><trkpt lat="43.571107725845586" lon="11.318348678540174"><ele>289.8333333333333</ele><time>2026-03-29T17:31:56.999Z</time></trkpt><trkpt lat="43.57108458413754" lon="11.318244851597907"><ele>291.6666666666667</ele><time>2026-03-29T17:31:57.999Z</time></trkpt><trkpt lat="43.5710724977699" lon="11.318135571330345"><ele>293.5</ele><time>2026-03-29T17:31:58.999Z</time></trkpt><trkpt lat="43.57105964897104" lon="11.318026929598084"><ele>295.33333333333337</ele><time>2026-03-29T17:31:59.999Z</time></trkpt><trkpt lat="43.571041682795816" lon="11.31791017056101"><ele>297.1666666666667</ele><time>2026-03-29T17:32:02Z</time></trkpt><trkpt lat="43.570942947803765" lon="11.317924822405526"><ele>299.0</ele><time>2026-03-29T17:32:04Z</time></trkpt><trkpt lat="43.57086831667408" lon="11.318058089160441"><ele>299.0</ele><time>2026-03-29T17:32:06Z</time></trkpt><trkpt lat="43.57081966118353" lon="11.31811504475261"><ele>299.0</ele><time>2026-03-29T17:32:08Z</time></trkpt><trkpt lat="43.570809307730364" lon="11.318227066039256"><ele>299.0</ele><time>2026-03-29T17:32:10Z</time></trkpt><trkpt lat="43.57073439174198" lon="11.318334104412841"><ele>299.0</ele><time>2026-03-29T17:32:12Z</time></trkpt><trkpt lat="43.570639854097244" lon="11.318431817412323"><ele>299.0</ele><time>2026-03-29T17:32:14Z</time></trkpt><trkpt lat="43.5705324255101" lon="11.318500633893928"><ele>299.0</ele><time>2026-03-29T17:32:16Z</time></trkpt><trkpt lat="43.57040626149561" lon="11.318528789689548"><ele>299.0</ele><time>2026-03-29T17:32:18Z</time></trkpt><trkpt lat="43.570295553642595" lon="11.318509292078826"><ele>299.0</ele><time>2026-03-29T17:32:20Z</time></trkpt><trkpt lat="43.57021952170537" lon="11.318442606530347"><ele>299.0</ele><time>2026-03-29T17:32:22Z</time></trkpt><trkpt lat="43.57027129759702" lon="11.318318313384312"><ele>299.0</ele><time>2026-03-29T17:32:26Z</time></trkpt><trkpt lat="43.57031288673184" lon="11.31816484854333"><ele>304.79999999999995</ele><time>2026-03-29T17:32:28Z</time></trkpt><trkpt lat="43.57029067732894" lon="11.318042871209885"><ele>310.59999999999997</ele><time>2026-03-29T17:32:30Z</time></trkpt><trkpt lat="43.570289345600045" lon="11.317878771390557"><ele>316.4</ele><time>2026-03-29T17:32:32Z</time></trkpt><trkpt lat="43.57028366520318" lon="11.317775329242728"><ele>322.2</ele><time>2026-03-29T17:32:33Z</time></trkpt><trkpt lat="43.570259348100656" lon="11.317673487929575"><ele>328.0</ele><time>2026-03-29T17:32:34Z</time></trkpt><trkpt lat="43.570239983573245" lon="11.317556150015255"><ele>328.0</ele><time>2026-03-29T17:32:35Z</time></trkpt><trkpt lat="43.57021980155491" lon="11.317463002277313"><ele>328.0</ele><time>2026-03-29T17:32:36Z</time></trkpt><trkpt lat="43.570197257003045" lon="11.317378610734488"><ele>328.0</ele><time>2026-03-29T17:32:37Z</time></trkpt><trkpt lat="43.570118019947245" lon="11.317274502636502"><ele>328.0</ele><time>2026-03-29T17:32:39Z</time></trkpt><trkpt lat="43.57002314098916" lon="11.317197862668538"><ele>328.0</ele><time>2026-03-29T17:32:41Z</time></trkpt><trkpt lat="43.57000817514921" lon="11.316993203240452"><ele>329.66666666666663</ele><time>2026-03-29T17:32:43Z</time></trkpt><trkpt lat="43.57000056590463" lon="11.316860384687878"><ele>331.3333333333333</ele><time>2026-03-29T17:32:44Z</time></trkpt><trkpt lat="43.569985343954855" lon="11.316740372836003"><ele>333.0</ele><time>2026-03-29T17:32:45Z</time></trkpt><trkpt lat="43.56995914463871" lon="11.316639935362899"><ele>334.6666666666667</ele><time>2026-03-29T17:32:46Z</time></trkpt><trkpt lat="43.569928064271245" lon="11.316541999686304"><ele>336.33333333333337</ele><time>2026-03-29T17:32:47Z</time></trkpt><trkpt lat="43.569909354800636" lon="11.31645300688957"><ele>338.0</ele><time>2026-03-29T17:32:48Z</time></trkpt><trkpt lat="43.56987345885114" lon="11.316300831253592"><ele>338.6666666666667</ele><time>2026-03-29T17:32:50Z</time></trkpt><trkpt lat="43.56982198344037" lon="11.316206040496331"><ele>339.33333333333337</ele><time>2026-03-29T17:32:51Z</time></trkpt><trkpt lat="43.56978379104097" lon="11.316110356192308"><ele>340.0</ele><time>2026-03-29T17:32:52Z</time></trkpt><trkpt lat="43.56974802472235" lon="11.316003880111621"><ele>340.6666666666667</ele><time>2026-03-29T17:32:53Z</time></trkpt><trkpt lat="43.56973208686481" lon="11.315908183743767"><ele>341.3333333333333</ele><time>2026-03-29T17:32:54Z</time></trkpt><trkpt lat="43.56974076250265" lon="11.315817631414543"><ele>342.0</ele><time>2026-03-29T17:32:55Z</time></trkpt><trkpt lat="43.56973769915918" lon="11.315699864458157"><ele>342.0</ele><time>2026-03-29T17:32:56Z</time></trkpt><trkpt lat="43.56973927264748" lon="11.315612748420925"><ele>342.0</ele><time>2026-03-29T17:32:57Z</time></trkpt><trkpt lat="43.56975970745164" lon="11.315442696941448"><ele>342.0</ele><time>2026-03-29T17:32:59Z</time></trkpt><trkpt lat="43.56976447142079" lon="11.315345883818047"><ele>342.0</ele><time>2026-03-29T17:33:00Z</time></trkpt><trkpt lat="43.569740692043204" lon="11.315223378245086"><ele>342.0</ele><time>2026-03-29T17:33:02Z</time></trkpt><trkpt lat="43.56968552119698" lon="11.315112977346342"><ele>342.0</ele><time>2026-03-29T17:33:04Z</time></trkpt><trkpt lat="43.569630852975614" lon="11.314979264378039"><ele>344.0</ele><time>2026-03-29T17:33:06Z</time></trkpt><trkpt lat="43.56958540075642" lon="11.314837268104286"><ele>346.0</ele><time>2026-03-29T17:33:08Z</time></trkpt><trkpt lat="43.5695547213307" lon="11.314711606347501"><ele>348.0</ele><time>2026-03-29T17:33:10Z</time></trkpt><trkpt lat="43.56959112003039" lon="11.314595346694212"><ele>350.0</ele><time>2026-03-29T17:33:12Z</time></trkpt><trkpt lat="43.569677078458824" lon="11.314522826795576"><ele>352.0</ele><time>2026-03-29T17:33:14Z</time></trkpt><trkpt lat="43.569718716513165" lon="11.314415014208826"><ele>354.8333333333333</ele><time>2026-03-29T17:33:16Z</time></trkpt><trkpt lat="43.569684612923275" lon="11.314279887276388"><ele>357.66666666666663</ele><time>2026-03-29T17:33:18Z</time></trkpt><trkpt lat="43.56962597726508" lon="11.314149124330719"><ele>360.5</ele><time>2026-03-29T17:33:20Z</time></trkpt><trkpt lat="43.56960284844284" lon="11.314048065676129"><ele>363.3333333333333</ele><time>2026-03-29T17:33:22Z</time></trkpt><trkpt lat="43.56958676465877" lon="11.313953395835965"><ele>366.1666666666667</ele><time>2026-03-29T17:33:23Z</time></trkpt><trkpt lat="43.56957143572092" lon="11.313856266101842"><ele>369.0</ele><time>2026-03-29T17:33:24Z</time></trkpt><trkpt lat="43.569552072802566" lon="11.313756049085177"><ele>369.4</ele><time>2026-03-29T17:33:25Z</time></trkpt><trkpt lat="43.56954265963787" lon="11.313660791144526"><ele>369.79999999999995</ele><time>2026-03-29T17:33:26Z</time></trkpt><trkpt lat="43.56953397823232" lon="11.313499857992507"><ele>370.20000000000005</ele><time>2026-03-29T17:33:28Z</time></trkpt><trkpt lat="43.56948559793071" lon="11.31343160195922"><ele>370.6</ele><time>2026-03-29T17:33:29Z</time></trkpt><trkpt lat="43.56940334660155" lon="11.313298219834506"><ele>371.0</ele><time>2026-03-29T17:33:30.999Z</time></trkpt><trkpt lat="43.56937047912914" lon="11.313172726038399"><ele>373.0</ele><time>2026-03-29T17:33:32.999Z</time></trkpt><trkpt lat="43.56935096898031" lon="11.313030713723464"><ele>375.0</ele><time>2026-03-29T17:33:34.999Z</time></trkpt><trkpt lat="43.56934917118992" lon="11.312925589907696"><ele>377.0</ele><time>2026-03-29T17:33:35.999Z</time></trkpt><trkpt lat="43.56935192933639" lon="11.312827209691426"><ele>379.0</ele><time>2026-03-29T17:33:36.999Z</time></trkpt><trkpt lat="43.56934949153054" lon="11.312733177529951"><ele>381.0</ele><time>2026-03-29T17:33:37.999Z</time></trkpt><trkpt lat="43.5693628935894" lon="11.312640269953029"><ele>383.0</ele><time>2026-03-29T17:33:38.999Z</time></trkpt><trkpt lat="43.569395250317605" lon="11.312539703721326"><ele>383.0</ele><time>2026-03-29T17:33:39.999Z</time></trkpt><trkpt lat="43.56943295275318" lon="11.31241809177014"><ele>383.0</ele><time>2026-03-29T17:33:40.999Z</time></trkpt><trkpt lat="43.56944985403048" lon="11.312322923289859"><ele>383.0</ele><time>2026-03-29T17:33:41.999Z</time></trkpt><trkpt lat="43.56946607886219" lon="11.312217530172907"><ele>383.0</ele><time>2026-03-29T17:33:43.999Z</time></trkpt><trkpt lat="43.569352987761924" lon="11.312091679714417"><ele>383.0</ele><time>2026-03-29T17:34:42Z</time></trkpt><trkpt lat="43.56928119991217" lon="11.312035702987536"><ele>384.6666666666667</ele><time>2026-03-29T17:34:43Z</time></trkpt><trkpt lat="43.56922794588542" lon="11.31198653752682"><ele>386.33333333333337</ele><time>2026-03-29T17:34:44Z</time></trkpt><trkpt lat="43.56914103871398" lon="11.311928199654279"><ele>388.0</ele><time>2026-03-29T17:34:45Z</time></trkpt><trkpt lat="43.56905053543267" lon="11.311898216363362"><ele>389.6666666666667</ele><time>2026-03-29T17:34:46Z</time></trkpt><trkpt lat="43.56897531450962" lon="11.311896391871842"><ele>391.3333333333333</ele><time>2026-03-29T17:34:47Z</time></trkpt><trkpt lat="43.56891243228068" lon="11.311902014598353"><ele>393.0</ele><time>2026-03-29T17:34:48Z</time></trkpt><trkpt lat="43.56880170837599" lon="11.31187210753434"><ele>393.0</ele><time>2026-03-29T17:34:50Z</time></trkpt><trkpt lat="43.56870126636173" lon="11.311846123548726"><ele>393.0</ele><time>2026-03-29T17:34:52Z</time></trkpt><trkpt lat="43.568639576830314" lon="11.311756933313248"><ele>393.0</ele><time>2026-03-29T17:34:53Z</time></trkpt><trkpt lat="43.56858983151932" lon="11.31170284163876"><ele>393.0</ele><time>2026-03-29T17:34:54Z</time></trkpt><trkpt lat="43.568536695339255" lon="11.311570700537082"><ele>393.0</ele><time>2026-03-29T17:34:56Z</time></trkpt><trkpt lat="43.56853367056257" lon="11.311413324010882"><ele>388.75</ele><time>2026-03-29T17:34:58Z</time></trkpt><trkpt lat="43.56854008023049" lon="11.311258530376527"><ele>384.5</ele><time>2026-03-29T17:35:00Z</time></trkpt><trkpt lat="43.56851226473283" lon="11.31110724881284"><ele>380.25</ele><time>2026-03-29T17:35:02Z</time></trkpt><trkpt lat="43.56848844388066" lon="11.310944655732495"><ele>376.0</ele><time>2026-03-29T17:35:04Z</time></trkpt><trkpt lat="43.568482126560994" lon="11.310799222917238"><ele>376.0</ele><time>2026-03-29T17:35:06Z</time></trkpt><trkpt lat="43.568494020913995" lon="11.31061041603933"><ele>376.0</ele><time>2026-03-29T17:35:08Z</time></trkpt><trkpt lat="43.568500038354536" lon="11.310506003344576"><ele>376.0</ele><time>2026-03-29T17:35:09Z</time></trkpt><trkpt lat="43.56844668418179" lon="11.310383025778018"><ele>376.0</ele><time>2026-03-29T17:35:11Z</time></trkpt><trkpt lat="43.56832779983698" lon="11.31039098449423"><ele>376.0</ele><time>2026-03-29T17:35:13Z</time></trkpt><trkpt lat="43.56818765028678" lon="11.310400974481015"><ele>376.4</ele><time>2026-03-29T17:35:15Z</time></trkpt><trkpt lat="43.568116107452155" lon="11.310397952860784"><ele>376.8</ele><time>2026-03-29T17:35:16Z</time></trkpt><trkpt lat="43.56803037735493" lon="11.310392631334668"><ele>377.2</ele><time>2026-03-29T17:35:17Z</time></trkpt><trkpt lat="43.567904928460884" lon="11.31036613022698"><ele>377.59999999999997</ele><time>2026-03-29T17:35:19Z</time></trkpt><trkpt lat="43.56781323951714" lon="11.310396758514722"><ele>378.0</ele><time>2026-03-29T17:35:21Z</time></trkpt><trkpt lat="43.56773268435867" lon="11.310368650204243"><ele>378.0</ele><time>2026-03-29T17:35:23Z</time></trkpt><trkpt lat="43.567652507729605" lon="11.310298528218132"><ele>378.0</ele><time>2026-03-29T17:35:25Z</time></trkpt><trkpt lat="43.56756672161847" lon="11.310205051921377"><ele>378.0</ele><time>2026-03-29T17:35:27Z</time></trkpt><trkpt lat="43.567496642004144" lon="11.310067912509284"><ele>378.0</ele><time>2026-03-29T17:35:29Z</time></trkpt><trkpt lat="43.56740662623067" lon="11.309957774578914"><ele>378.0</ele><time>2026-03-29T17:35:31Z</time></trkpt><trkpt lat="43.567325816516956" lon="11.309831041349927"><ele>378.0</ele><time>2026-03-29T17:35:33Z</time></trkpt><trkpt lat="43.56727644121859" lon="11.30976021447834"><ele>378.0</ele><time>2026-03-29T17:35:34Z</time></trkpt><trkpt lat="43.567224771373375" lon="11.309700713961295"><ele>378.0</ele><time>2026-03-29T17:35:35Z</time></trkpt><trkpt lat="43.567150311293034" lon="11.309608072794314"><ele>378.0</ele><time>2026-03-29T17:35:37Z</time></trkpt><trkpt lat="43.567057203614375" lon="11.309529588293751"><ele>378.0</ele><time>2026-03-29T17:35:38.999Z</time></trkpt><trkpt lat="43.56700363759952" lon="11.309482116474898"><ele>378.0</ele><time>2026-03-29T17:35:39.999Z</time></trkpt><trkpt lat="43.566946597707506" lon="11.309434566852671"><ele>379.1666666666667</ele><time>2026-03-29T17:35:40.999Z</time></trkpt><trkpt lat="43.56689317032778" lon="11.309376748363187"><ele>380.33333333333337</ele><time>2026-03-29T17:35:41.999Z</time></trkpt><trkpt lat="43.56683202923051" lon="11.309305808488759"><ele>381.5</ele><time>2026-03-29T17:35:43.999Z</time></trkpt><trkpt lat="43.566777855618" lon="11.309248941087969"><ele>382.6666666666667</ele><time>2026-03-29T17:35:46.999Z</time></trkpt><trkpt lat="43.56670837473244" lon="11.309298676129504"><ele>383.83333333333337</ele><time>2026-03-29T17:35:50.999Z</time></trkpt><trkpt lat="43.56670544701227" lon="11.309403437567845"><ele>385.0</ele><time>2026-03-29T17:35:52.999Z</time></trkpt><trkpt lat="43.56669138829053" lon="11.309513812570527"><ele>385.0</ele><time>2026-03-29T17:35:54.999Z</time></trkpt><trkpt lat="43.566691291221986" lon="11.30964525983639"><ele>385.0</ele><time>2026-03-29T17:35:56.999Z</time></trkpt><trkpt lat="43.566683298495576" lon="11.309779842836107"><ele>385.0</ele><time>2026-03-29T17:35:58.999Z</time></trkpt><trkpt lat="43.56664987796656" lon="11.309934751940343"><ele>385.0</ele><time>2026-03-29T17:36:00.999Z</time></trkpt><trkpt lat="43.56662150895875" lon="11.310054539995923"><ele>385.0</ele><time>2026-03-29T17:36:02.999Z</time></trkpt><trkpt lat="43.56662562605703" lon="11.310182481770013"><ele>383.50000000000006</ele><time>2026-03-29T17:36:04.999Z</time></trkpt><trkpt lat="43.566646310241055" lon="11.310285988939631"><ele>382.0</ele><time>2026-03-29T17:36:05.999Z</time></trkpt><trkpt lat="43.56666142531588" lon="11.31038647234299"><ele>380.5</ele><time>2026-03-29T17:36:06.999Z</time></trkpt><trkpt lat="43.56665085896597" lon="11.310533729525991"><ele>379.0</ele><time>2026-03-29T17:36:08.999Z</time></trkpt><trkpt lat="43.56662837016177" lon="11.310662605389279"><ele>377.5</ele><time>2026-03-29T17:36:10.999Z</time></trkpt><trkpt lat="43.56660550079542" lon="11.310756437473959"><ele>376.0</ele><time>2026-03-29T17:36:11.999Z</time></trkpt><trkpt lat="43.56656456273466" lon="11.310834957199594"><ele>374.6</ele><time>2026-03-29T17:36:12.999Z</time></trkpt><trkpt lat="43.5664858747053" lon="11.310910764140695"><ele>373.20000000000005</ele><time>2026-03-29T17:36:15Z</time></trkpt><trkpt lat="43.56637726706511" lon="11.311021623728278"><ele>371.79999999999995</ele><time>2026-03-29T17:36:17Z</time></trkpt><trkpt lat="43.56632900912896" lon="11.311124415525052"><ele>370.4</ele><time>2026-03-29T17:36:19Z</time></trkpt><trkpt lat="43.56627854909363" lon="11.311266574200786"><ele>369.0</ele><time>2026-03-29T17:36:21Z</time></trkpt><trkpt lat="43.56623261711327" lon="11.31136919622403"><ele>374.0</ele><time>2026-03-29T17:36:23Z</time></trkpt><trkpt lat="43.566174365709514" lon="11.31148705121176"><ele>379.0</ele><time>2026-03-29T17:36:25Z</time></trkpt><trkpt lat="43.56612703124574" lon="11.311586700448013"><ele>384.0</ele><time>2026-03-29T17:36:27Z</time></trkpt><trkpt lat="43.566094413975755" lon="11.311711087557873"><ele>389.0</ele><time>2026-03-29T17:36:29Z</time></trkpt><trkpt lat="43.56605444520626" lon="11.311820666257338"><ele>394.0</ele><time>2026-03-29T17:36:31Z</time></trkpt><trkpt lat="43.566036241408916" lon="11.311940298381797"><ele>394.0</ele><time>2026-03-29T17:36:34Z</time></trkpt><trkpt lat="43.566023460435254" lon="11.31202830738914"><ele>394.0</ele><time>2026-03-29T17:36:36Z</time></trkpt><trkpt lat="43.56601291358301" lon="11.312148436891361"><ele>394.0</ele><time>2026-03-29T17:36:39Z</time></trkpt><trkpt lat="43.56599010115048" lon="11.31223847730979"><ele>394.0</ele><time>2026-03-29T17:36:41Z</time></trkpt><trkpt lat="43.56591681678527" lon="11.31221201824553"><ele>394.0</ele><time>2026-03-29T17:36:44Z</time></trkpt><trkpt lat="43.565907872798356" lon="11.312123996296025"><ele>394.0</ele><time>2026-03-29T17:36:46Z</time></trkpt><trkpt lat="43.565875123278474" lon="11.312025186544503"><ele>394.0</ele><time>2026-03-29T17:36:48Z</time></trkpt><trkpt lat="43.56581143538188" lon="11.311876832692656"><ele>394.00000000000006</ele><time>2026-03-29T17:36:51Z</time></trkpt><trkpt lat="43.565777901896254" lon="11.311781799311246"><ele>394.0</ele><time>2026-03-29T17:36:53Z</time></trkpt><trkpt lat="43.565740123252134" lon="11.311672609766857"><ele>394.0</ele><time>2026-03-29T17:36:55Z</time></trkpt><trkpt lat="43.56570185026898" lon="11.311555066504841"><ele>394.0</ele><time>2026-03-29T17:36:57Z</time></trkpt><trkpt lat="43.56567721685605" lon="11.311439120115534"><ele>394.00000000000006</ele><time>2026-03-29T17:36:59Z</time></trkpt><trkpt lat="43.56567390807796" lon="11.311300283149304"><ele>394.0</ele><time>2026-03-29T17:37:01Z</time></trkpt><trkpt lat="43.565656514072764" lon="11.311204157090003"><ele>394.33333333333337</ele><time>2026-03-29T17:37:03Z</time></trkpt><trkpt lat="43.56562733170117" lon="11.311076006427493"><ele>394.6666666666667</ele><time>2026-03-29T17:37:05Z</time></trkpt><trkpt lat="43.565591327766256" lon="11.310972366795873"><ele>395.0</ele><time>2026-03-29T17:37:07Z</time></trkpt><trkpt lat="43.56559911437048" lon="11.310875674871026"><ele>395.33333333333337</ele><time>2026-03-29T17:37:09Z</time></trkpt><trkpt lat="43.56564056785927" lon="11.310749550233204"><ele>395.6666666666667</ele><time>2026-03-29T17:37:11Z</time></trkpt><trkpt lat="43.56566697847565" lon="11.310657509722022"><ele>396.0</ele><time>2026-03-29T17:37:13Z</time></trkpt><trkpt lat="43.56560736029071" lon="11.310533653599338"><ele>396.6666666666667</ele><time>2026-03-29T17:37:16Z</time></trkpt><trkpt lat="43.56554184498052" lon="11.310445590823493"><ele>397.33333333333337</ele><time>2026-03-29T17:37:18Z</time></trkpt><trkpt lat="43.5654896707739" lon="11.310354625465633"><ele>398.0</ele><time>2026-03-29T17:37:21Z</time></trkpt><trkpt lat="43.56543828558374" lon="11.310252103309303"><ele>398.6666666666667</ele><time>2026-03-29T17:37:24Z</time></trkpt><trkpt lat="43.565418825324784" lon="11.31014573142346"><ele>399.33333333333337</ele><time>2026-03-29T17:37:26Z</time></trkpt><trkpt lat="43.56540974666401" lon="11.310022877759193"><ele>400.0</ele><time>2026-03-29T17:37:28Z</time></trkpt><trkpt lat="43.56543241664155" lon="11.309877536887802"><ele>400.00000000000006</ele><time>2026-03-29T17:37:30Z</time></trkpt><trkpt lat="43.56546270318539" lon="11.309757621443993"><ele>400.0</ele><time>2026-03-29T17:37:32Z</time></trkpt><trkpt lat="43.5654496868849" lon="11.309664770966627"><ele>400.0</ele><time>2026-03-29T17:37:40Z</time></trkpt><trkpt lat="43.565411024719396" lon="11.309543254960827"><ele>400.0</ele><time>2026-03-29T17:37:42Z</time></trkpt><trkpt lat="43.5653621829426" lon="11.309420646357074"><ele>400.00000000000006</ele><time>2026-03-29T17:37:44Z</time></trkpt><trkpt lat="43.565319827394696" lon="11.309345129554284"><ele>400.0</ele><time>2026-03-29T17:37:46Z</time></trkpt><trkpt lat="43.5652710133257" lon="11.309259327669176"><ele>404.33333333333337</ele><time>2026-03-29T17:37:47.999Z</time></trkpt><trkpt lat="43.56522584143577" lon="11.309184731477878"><ele>408.6666666666667</ele><time>2026-03-29T17:37:49.999Z</time></trkpt><trkpt lat="43.5651522340402" lon="11.309199463264607"><ele>413.0</ele><time>2026-03-29T17:37:51.999Z</time></trkpt><trkpt lat="43.565098484486754" lon="11.30927611262539"><ele>417.33333333333337</ele><time>2026-03-29T17:37:53.999Z</time></trkpt><trkpt lat="43.56506993365132" lon="11.309412325487111"><ele>421.6666666666667</ele><time>2026-03-29T17:37:55.999Z</time></trkpt><trkpt lat="43.56503504842396" lon="11.309512079586334"><ele>426.0</ele><time>2026-03-29T17:37:57.999Z</time></trkpt><trkpt lat="43.5649759585344" lon="11.309545033460276"><ele>426.0</ele><time>2026-03-29T17:37:59.999Z</time></trkpt><trkpt lat="43.56491455728499" lon="11.309515724437142"><ele>426.0</ele><time>2026-03-29T17:38:01.999Z</time></trkpt><trkpt lat="43.56485282089582" lon="11.309448786457331"><ele>426.0</ele><time>2026-03-29T17:38:05.999Z</time></trkpt><trkpt lat="43.56476223312475" lon="11.30941624268234"><ele>426.0</ele><time>2026-03-29T17:38:08.999Z</time></trkpt><trkpt lat="43.56469323284295" lon="11.309409426315332"><ele>426.0</ele><time>2026-03-29T17:38:10.999Z</time></trkpt><trkpt lat="43.56462486422796" lon="11.309378212910534"><ele>426.0</ele><time>2026-03-29T17:38:13.999Z</time></trkpt><trkpt lat="43.56454983088801" lon="11.309334115652275"><ele>428.3333333333333</ele><time>2026-03-29T17:38:25Z</time></trkpt><trkpt lat="43.56446392930476" lon="11.309302251357206"><ele>430.66666666666663</ele><time>2026-03-29T17:38:28Z</time></trkpt><trkpt lat="43.5643727286982" lon="11.309306977095469"><ele>433.0</ele><time>2026-03-29T17:38:30Z</time></trkpt><trkpt lat="43.564304331220235" lon="11.309289273362033"><ele>435.3333333333333</ele><time>2026-03-29T17:38:32Z</time></trkpt><trkpt lat="43.56423369808749" lon="11.309293865043278"><ele>437.66666666666663</ele><time>2026-03-29T17:38:35Z</time></trkpt><trkpt lat="43.564151576923926" lon="11.309257179009203"><ele>440.0</ele><time>2026-03-29T17:38:49Z</time></trkpt><trkpt lat="43.56413427857887" lon="11.309164671982922"><ele>440.0</ele><time>2026-03-29T17:38:51Z</time></trkpt><trkpt lat="43.564129531584626" lon="11.309035141376938"><ele>440.0</ele><time>2026-03-29T17:38:53Z</time></trkpt><trkpt lat="43.564104784756715" lon="11.308907162200239"><ele>440.0</ele><time>2026-03-29T17:38:55Z</time></trkpt><trkpt lat="43.56407062762734" lon="11.308808190853497"><ele>440.0</ele><time>2026-03-29T17:38:57Z</time></trkpt><trkpt lat="43.56400904215576" lon="11.308690959371958"><ele>440.0</ele><time>2026-03-29T17:38:59Z</time></trkpt><trkpt lat="43.56392844516451" lon="11.308577957718226"><ele>440.0</ele><time>2026-03-29T17:39:01Z</time></trkpt><trkpt lat="43.56388395031961" lon="11.308514122578623"><ele>440.0</ele><time>2026-03-29T17:39:02Z</time></trkpt><trkpt lat="43.56383134102041" lon="11.308454809331643"><ele>440.0</ele><time>2026-03-29T17:39:03Z</time></trkpt><trkpt lat="43.56372638348149" lon="11.308395091180863"><ele>440.0</ele><time>2026-03-29T17:39:05Z</time></trkpt><trkpt lat="43.56363300917348" lon="11.308309254041083"><ele>440.0</ele><time>2026-03-29T17:39:07Z</time></trkpt><trkpt lat="43.563518926034696" lon="11.30828275322015"><ele>437.4</ele><time>2026-03-29T17:39:09Z</time></trkpt><trkpt lat="43.56340468022244" lon="11.308248085138958"><ele>434.8</ele><time>2026-03-29T17:39:11Z</time></trkpt><trkpt lat="43.56331588586963" lon="11.308143111085469"><ele>432.20000000000005</ele><time>2026-03-29T17:39:13Z</time></trkpt><trkpt lat="43.563261971879385" lon="11.308097278090209"><ele>429.6</ele><time>2026-03-29T17:39:14Z</time></trkpt><trkpt lat="43.56315283723286" lon="11.308069597272558"><ele>427.0</ele><time>2026-03-29T17:39:16Z</time></trkpt><trkpt lat="43.56307078592578" lon="11.308046040752183"><ele>427.00000000000006</ele><time>2026-03-29T17:39:18Z</time></trkpt><trkpt lat="43.56303481473697" lon="11.307921862700143"><ele>427.0</ele><time>2026-03-29T17:39:20Z</time></trkpt><trkpt lat="43.56298684785461" lon="11.30782801054935"><ele>427.0</ele><time>2026-03-29T17:39:22Z</time></trkpt><trkpt lat="43.562900317798864" lon="11.307827805459011"><ele>427.0</ele><time>2026-03-29T17:39:24Z</time></trkpt><trkpt lat="43.562818860585566" lon="11.307869566048593"><ele>427.00000000000006</ele><time>2026-03-29T17:39:27Z</time></trkpt><trkpt lat="43.56275402942412" lon="11.30785832135626"><ele>427.0</ele><time>2026-03-29T17:39:43Z</time></trkpt><trkpt lat="43.56276327441749" lon="11.307746425855383"><ele>424.8</ele><time>2026-03-29T17:39:46Z</time></trkpt><trkpt lat="43.562745722912744" lon="11.307648442271855"><ele>422.6</ele><time>2026-03-29T17:39:47Z</time></trkpt><trkpt lat="43.56272569566208" lon="11.307447749454477"><ele>420.40000000000003</ele><time>2026-03-29T17:39:49Z</time></trkpt><trkpt lat="43.56271480850088" lon="11.307321596097902"><ele>418.20000000000005</ele><time>2026-03-29T17:39:49.999Z</time></trkpt><trkpt lat="43.56270087377631" lon="11.307209403641965"><ele>416.0</ele><time>2026-03-29T17:39:50.999Z</time></trkpt><trkpt lat="43.562680152621766" lon="11.30711470688776"><ele>416.0</ele><time>2026-03-29T17:39:51.999Z</time></trkpt><trkpt lat="43.562661233176215" lon="11.30694082369078"><ele>416.0</ele><time>2026-03-29T17:39:53.999Z</time></trkpt><trkpt lat="43.56266440181342" lon="11.30679001279543"><ele>416.0</ele><time>2026-03-29T17:39:55.999Z</time></trkpt><trkpt lat="43.56262831988693" lon="11.306664734687839"><ele>416.0</ele><time>2026-03-29T17:39:57.999Z</time></trkpt><trkpt lat="43.562520165051914" lon="11.306614940825249"><ele>416.0</ele><time>2026-03-29T17:39:59.999Z</time></trkpt><trkpt lat="43.562452704511564" lon="11.306630038024403"><ele>416.0</ele><time>2026-03-29T17:40:00.999Z</time></trkpt><trkpt lat="43.56232403493179" lon="11.306597791348224"><ele>416.0</ele><time>2026-03-29T17:40:02.999Z</time></trkpt><trkpt lat="43.562250452087746" lon="11.306566357952173"><ele>416.0</ele><time>2026-03-29T17:40:03.999Z</time></trkpt><trkpt lat="43.56217129860072" lon="11.306524466296436"><ele>416.0</ele><time>2026-03-29T17:40:04.999Z</time></trkpt><trkpt lat="43.56207157634161" lon="11.30649026987284"><ele>416.0</ele><time>2026-03-29T17:40:05.999Z</time></trkpt><trkpt lat="43.561976479959256" lon="11.306436868957656"><ele>417.8</ele><time>2026-03-29T17:40:06.999Z</time></trkpt><trkpt lat="43.56191181731386" lon="11.306380305283946"><ele>419.6</ele><time>2026-03-29T17:40:07.999Z</time></trkpt><trkpt lat="43.56182840725905" lon="11.306314196739663"><ele>421.4</ele><time>2026-03-29T17:40:08.999Z</time></trkpt><trkpt lat="43.561760055123514" lon="11.306265953290117"><ele>423.2</ele><time>2026-03-29T17:40:09.999Z</time></trkpt><trkpt lat="43.561694337428285" lon="11.306218813592036"><ele>425.0</ele><time>2026-03-29T17:40:10.999Z</time></trkpt><trkpt lat="43.561592724332066" lon="11.306104743059214"><ele>424.99999999999994</ele><time>2026-03-29T17:40:12.999Z</time></trkpt><trkpt lat="43.56158301319163" lon="11.305952352646802"><ele>425.0</ele><time>2026-03-29T17:40:14.999Z</time></trkpt><trkpt lat="43.561633694977935" lon="11.305805631171037"><ele>425.0</ele><time>2026-03-29T17:40:16.999Z</time></trkpt><trkpt lat="43.56166496140655" lon="11.305726189673527"><ele>425.0</ele><time>2026-03-29T17:40:17.999Z</time></trkpt><trkpt lat="43.56170777346131" lon="11.305655589599002"><ele>424.99999999999994</ele><time>2026-03-29T17:40:18.999Z</time></trkpt><trkpt lat="43.56176731442264" lon="11.305615020701751"><ele>425.0</ele><time>2026-03-29T17:40:19.999Z</time></trkpt><trkpt lat="43.56183431359462" lon="11.305570426098614"><ele>425.6</ele><time>2026-03-29T17:40:20.999Z</time></trkpt><trkpt lat="43.56191234190503" lon="11.30551141813245"><ele>426.2</ele><time>2026-03-29T17:40:21.999Z</time></trkpt><trkpt lat="43.561958999836854" lon="11.305451788915464"><ele>426.79999999999995</ele><time>2026-03-29T17:40:22.999Z</time></trkpt><trkpt lat="43.56201260519188" lon="11.305384266190716"><ele>427.4</ele><time>2026-03-29T17:40:23.999Z</time></trkpt><trkpt lat="43.56204845472171" lon="11.305272917215776"><ele>428.0</ele><time>2026-03-29T17:40:26Z</time></trkpt><trkpt lat="43.56203917368821" lon="11.305081755627656"><ele>429.66666666666663</ele><time>2026-03-29T17:40:28Z</time></trkpt><trkpt lat="43.56204555242279" lon="11.30498809605229"><ele>431.3333333333333</ele><time>2026-03-29T17:40:29Z</time></trkpt><trkpt lat="43.56206526801399" lon="11.304887710911535"><ele>433.0</ele><time>2026-03-29T17:40:30Z</time></trkpt><trkpt lat="43.562080715657885" lon="11.304778631405176"><ele>434.66666666666663</ele><time>2026-03-29T17:40:31Z</time></trkpt><trkpt lat="43.56209117053038" lon="11.304656767534842"><ele>436.3333333333333</ele><time>2026-03-29T17:40:32Z</time></trkpt><trkpt lat="43.56210154427412" lon="11.304542020802526"><ele>438.0</ele><time>2026-03-29T17:40:33Z</time></trkpt><trkpt lat="43.562108281958466" lon="11.304439256191346"><ele>438.8333333333333</ele><time>2026-03-29T17:40:34Z</time></trkpt><trkpt lat="43.56210776432719" lon="11.304343800936703"><ele>439.66666666666663</ele><time>2026-03-29T17:40:35Z</time></trkpt><trkpt lat="43.56210893199303" lon="11.304253901286122"><ele>440.5</ele><time>2026-03-29T17:40:36Z</time></trkpt><trkpt lat="43.56209714259753" lon="11.304099270426136"><ele>441.3333333333333</ele><time>2026-03-29T17:40:38Z</time></trkpt><trkpt lat="43.56208294169174" lon="11.304003435221405"><ele>442.16666666666663</ele><time>2026-03-29T17:40:39Z</time></trkpt><trkpt lat="43.562083664095276" lon="11.303913569702546"><ele>443.0</ele><time>2026-03-29T17:40:40Z</time></trkpt><trkpt lat="43.56209441601682" lon="11.30380729019016"><ele>444.0</ele><time>2026-03-29T17:40:41Z</time></trkpt><trkpt lat="43.56211038336933" lon="11.303719869700528"><ele>445.0</ele><time>2026-03-29T17:40:42Z</time></trkpt><trkpt lat="43.562128588568136" lon="11.303629610480737"><ele>446.0</ele><time>2026-03-29T17:40:43Z</time></trkpt><trkpt lat="43.56215155836859" lon="11.303535976943179"><ele>447.0</ele><time>2026-03-29T17:40:44Z</time></trkpt><trkpt lat="43.56218982594583" lon="11.303444504606151"><ele>448.0</ele><time>2026-03-29T17:40:45Z</time></trkpt><trkpt lat="43.56222459772079" lon="11.303349630203732"><ele>449.00000000000006</ele><time>2026-03-29T17:40:46Z</time></trkpt><trkpt lat="43.562255256403674" lon="11.303237206387282"><ele>450.00000000000006</ele><time>2026-03-29T17:40:47Z</time></trkpt><trkpt lat="43.56228260992247" lon="11.303140388332471"><ele>453.0</ele><time>2026-03-29T17:40:48Z</time></trkpt><trkpt lat="43.56231151772205" lon="11.303005689436333"><ele>456.0</ele><time>2026-03-29T17:40:50Z</time></trkpt><trkpt lat="43.56226026430157" lon="11.30289239159235"><ele>459.0</ele><time>2026-03-29T17:40:52Z</time></trkpt><trkpt lat="43.562197740652195" lon="11.302739196565339"><ele>462.0</ele><time>2026-03-29T17:40:54Z</time></trkpt><trkpt lat="43.56220595657299" lon="11.302631606098931"><ele>465.0</ele><time>2026-03-29T17:40:56Z</time></trkpt><trkpt lat="43.56227803886569" lon="11.302504582995015"><ele>465.0</ele><time>2026-03-29T17:40:58Z</time></trkpt><trkpt lat="43.56231462321486" lon="11.302362157711885"><ele>465.0</ele><time>2026-03-29T17:41:00Z</time></trkpt><trkpt lat="43.56231119051465" lon="11.302239723972775"><ele>465.0</ele><time>2026-03-29T17:41:02Z</time></trkpt><trkpt lat="43.56230757498655" lon="11.30210900779663"><ele>465.0</ele><time>2026-03-29T17:41:04Z</time></trkpt><trkpt lat="43.56229992954257" lon="11.302008270686448"><ele>465.0</ele><time>2026-03-29T17:41:06Z</time></trkpt><trkpt lat="43.56233708567277" lon="11.301877610270102"><ele>467.0</ele><time>2026-03-29T17:41:08Z</time></trkpt><trkpt lat="43.562347057417384" lon="11.301789514606424"><ele>469.0</ele><time>2026-03-29T17:41:09Z</time></trkpt><trkpt lat="43.562341056730396" lon="11.30164620134206"><ele>471.0</ele><time>2026-03-29T17:41:11Z</time></trkpt><trkpt lat="43.5623397709954" lon="11.301556336137695"><ele>473.0</ele><time>2026-03-29T17:41:12Z</time></trkpt><trkpt lat="43.562342781155714" lon="11.30146546233042"><ele>475.0</ele><time>2026-03-29T17:41:13Z</time></trkpt><trkpt lat="43.56237231145754" lon="11.30135835972081"><ele>477.0</ele><time>2026-03-29T17:41:15Z</time></trkpt><trkpt lat="43.562454810739695" lon="11.301302470793994"><ele>478.40000000000003</ele><time>2026-03-29T17:41:17Z</time></trkpt><trkpt lat="43.56255533874933" lon="11.30125873077416"><ele>479.80000000000007</ele><time>2026-03-29T17:41:19Z</time></trkpt><trkpt lat="43.56255984938386" lon="11.301122042180578"><ele>481.2</ele><time>2026-03-29T17:41:21Z</time></trkpt><trkpt lat="43.56253130575229" lon="11.30099076125013"><ele>482.6</ele><time>2026-03-29T17:41:23Z</time></trkpt><trkpt lat="43.56253323171559" lon="11.30087669736951"><ele>484.0</ele><time>2026-03-29T17:41:25Z</time></trkpt><trkpt lat="43.56255075727891" lon="11.300736057213614"><ele>484.0</ele><time>2026-03-29T17:41:27Z</time></trkpt><trkpt lat="43.5625985594507" lon="11.300606105557154"><ele>484.0</ele><time>2026-03-29T17:41:29Z</time></trkpt><trkpt lat="43.56263245202542" lon="11.300445443306897"><ele>484.0</ele><time>2026-03-29T17:41:31Z</time></trkpt><trkpt lat="43.56264668950283" lon="11.300355466268812"><ele>484.0</ele><time>2026-03-29T17:41:32Z</time></trkpt><trkpt lat="43.56267108656242" lon="11.30025431438104"><ele>484.0</ele><time>2026-03-29T17:41:33Z</time></trkpt><trkpt lat="43.562700166731055" lon="11.300131285059875"><ele>484.0</ele><time>2026-03-29T17:41:34Z</time></trkpt><trkpt lat="43.56272606647684" lon="11.300008960562849"><ele>484.0</ele><time>2026-03-29T17:41:35Z</time></trkpt><trkpt lat="43.562751173201775" lon="11.299911177813222"><ele>484.0</ele><time>2026-03-29T17:41:36Z</time></trkpt><trkpt lat="43.5627710863272" lon="11.299828697314428"><ele>484.0</ele><time>2026-03-29T17:41:37Z</time></trkpt><trkpt lat="43.56278806519679" lon="11.299690359635505"><ele>484.0</ele><time>2026-03-29T17:41:39Z</time></trkpt><trkpt lat="43.56277785907416" lon="11.299512675925476"><ele>483.6666666666667</ele><time>2026-03-29T17:41:41Z</time></trkpt><trkpt lat="43.5627631448243" lon="11.299419773117933"><ele>483.33333333333337</ele><time>2026-03-29T17:41:42Z</time></trkpt><trkpt lat="43.56276500945047" lon="11.299329760866067"><ele>483.0</ele><time>2026-03-29T17:41:43Z</time></trkpt><trkpt lat="43.56277938084128" lon="11.2992448137388"><ele>482.66666666666663</ele><time>2026-03-29T17:41:44Z</time></trkpt><trkpt lat="43.56281643092792" lon="11.299106833758977"><ele>482.3333333333333</ele><time>2026-03-29T17:41:46Z</time></trkpt><trkpt lat="43.56280408463139" lon="11.299013973425918"><ele>482.0</ele><time>2026-03-29T17:41:48Z</time></trkpt><trkpt lat="43.56276817276823" lon="11.2989034879448"><ele>482.99999999999994</ele><time>2026-03-29T17:41:50.999Z</time></trkpt><trkpt lat="43.56273740841147" lon="11.298770948817792"><ele>484.0</ele><time>2026-03-29T17:42:04.999Z</time></trkpt><trkpt lat="43.56270320893844" lon="11.29866738602161"><ele>485.0</ele><time>2026-03-29T17:42:05.999Z</time></trkpt><trkpt lat="43.562679715356644" lon="11.298581920751397"><ele>486.0</ele><time>2026-03-29T17:42:06.999Z</time></trkpt><trkpt lat="43.56262158252391" lon="11.298448091090266"><ele>486.99999999999994</ele><time>2026-03-29T17:42:08.999Z</time></trkpt><trkpt lat="43.56257879829985" lon="11.298380945466105"><ele>488.0</ele><time>2026-03-29T17:42:09.999Z</time></trkpt><trkpt lat="43.56253142074794" lon="11.29826370877638"><ele>488.0</ele><time>2026-03-29T17:42:11.999Z</time></trkpt><trkpt lat="43.56249558648949" lon="11.298337878729066"><ele>487.99999999999994</ele><time>2026-03-29T17:42:14.999Z</time></trkpt><trkpt lat="43.56258584293031" lon="11.298421402000038"><ele>487.99999999999994</ele><time>2026-03-29T17:42:16.999Z</time></trkpt><trkpt lat="43.56265536759927" lon="11.29850100181691"><ele>488.0</ele><time>2026-03-29T17:42:17.999Z</time></trkpt><trkpt lat="43.56270131735443" lon="11.298612905450993"><ele>488.0</ele><time>2026-03-29T17:42:18.999Z</time></trkpt><trkpt lat="43.56272638218519" lon="11.298738454252682"><ele>487.99999999999994</ele><time>2026-03-29T17:42:19.999Z</time></trkpt><trkpt lat="43.5627686620784" lon="11.298877532585749"><ele>488.0</ele><time>2026-03-29T17:42:20.999Z</time></trkpt><trkpt lat="43.56280708412186" lon="11.29901023453552"><ele>488.0</ele><time>2026-03-29T17:42:21.999Z</time></trkpt><trkpt lat="43.5628377162281" lon="11.299103989411892"><ele>488.0</ele><time>2026-03-29T17:42:22.999Z</time></trkpt><trkpt lat="43.56288137740219" lon="11.299169451614345"><ele>487.99999999999994</ele><time>2026-03-29T17:42:23.999Z</time></trkpt><trkpt lat="43.56293975777322" lon="11.29920819693369"><ele>488.0</ele><time>2026-03-29T17:42:24.999Z</time></trkpt><trkpt lat="43.56302652653281" lon="11.299235714226882"><ele>488.0</ele><time>2026-03-29T17:42:25.999Z</time></trkpt><trkpt lat="43.56313490017779" lon="11.299280890125337"><ele>487.99999999999994</ele><time>2026-03-29T17:42:26.999Z</time></trkpt><trkpt lat="43.56322475407426" lon="11.2993341443034"><ele>487.99999999999994</ele><time>2026-03-29T17:42:27.999Z</time></trkpt><trkpt lat="43.563288842846234" lon="11.29936929746292"><ele>488.0</ele><time>2026-03-29T17:42:28.999Z</time></trkpt><trkpt lat="43.56338780001382" lon="11.299412131147777"><ele>488.0</ele><time>2026-03-29T17:42:30.999Z</time></trkpt><trkpt lat="43.5634676079322" lon="11.299414714117159"><ele>487.99999999999994</ele><time>2026-03-29T17:42:32Z</time></trkpt><trkpt lat="43.563544202389146" lon="11.299409852154612"><ele>488.0</ele><time>2026-03-29T17:42:33Z</time></trkpt><trkpt lat="43.56360881917096" lon="11.299421169711962"><ele>488.0</ele><time>2026-03-29T17:42:34Z</time></trkpt><trkpt lat="43.56372586330642" lon="11.299498710804784"><ele>488.0</ele><time>2026-03-29T17:42:36Z</time></trkpt><trkpt lat="43.56379963203563" lon="11.299561099397094"><ele>487.99999999999994</ele><time>2026-03-29T17:42:37Z</time></trkpt><trkpt lat="43.56386267800173" lon="11.299621317426368"><ele>488.0</ele><time>2026-03-29T17:42:38Z</time></trkpt><trkpt lat="43.56393132445352" lon="11.299695426416976"><ele>489.49999999999994</ele><time>2026-03-29T17:42:40Z</time></trkpt><trkpt lat="43.56401206595309" lon="11.299755180101785"><ele>491.0</ele><time>2026-03-29T17:42:43Z</time></trkpt><trkpt lat="43.56408861002493" lon="11.299810778492986"><ele>492.5</ele><time>2026-03-29T17:42:45Z</time></trkpt><trkpt lat="43.5641575582556" lon="11.29985261176158"><ele>494.0</ele><time>2026-03-29T17:42:47Z</time></trkpt><trkpt lat="43.56423631747294" lon="11.299885118175487"><ele>495.49999999999994</ele><time>2026-03-29T17:42:49Z</time></trkpt><trkpt lat="43.564318025608486" lon="11.299907349856609"><ele>497.0</ele><time>2026-03-29T17:42:51Z</time></trkpt><trkpt lat="43.56440251925372" lon="11.299919714328613"><ele>496.99999999999994</ele><time>2026-03-29T17:42:53Z</time></trkpt><trkpt lat="43.564497232652116" lon="11.299955148812447"><ele>497.0</ele><time>2026-03-29T17:42:55Z</time></trkpt><trkpt lat="43.56458346158451" lon="11.2999820731668"><ele>497.0</ele><time>2026-03-29T17:42:57Z</time></trkpt><trkpt lat="43.564652907443566" lon="11.299997657307465"><ele>497.0</ele><time>2026-03-29T17:42:59Z</time></trkpt><trkpt lat="43.564728866703355" lon="11.3000362405018"><ele>496.99999999999994</ele><time>2026-03-29T17:43:01Z</time></trkpt><trkpt lat="43.564800753698066" lon="11.300101843353387"><ele>497.0</ele><time>2026-03-29T17:43:03Z</time></trkpt><trkpt lat="43.564890744969475" lon="11.300166557472323"><ele>495.3333333333333</ele><time>2026-03-29T17:43:05Z</time></trkpt><trkpt lat="43.56497359505991" lon="11.30019145718225"><ele>493.66666666666663</ele><time>2026-03-29T17:43:07Z</time></trkpt><trkpt lat="43.5650631534232" lon="11.300230348296699"><ele>492.0</ele><time>2026-03-29T17:43:09Z</time></trkpt><trkpt lat="43.56512338141454" lon="11.300289669702446"><ele>490.33333333333337</ele><time>2026-03-29T17:43:18Z</time></trkpt><trkpt lat="43.5651768448294" lon="11.30039539087755"><ele>488.6666666666667</ele><time>2026-03-29T17:43:22Z</time></trkpt><trkpt lat="43.565223655597364" lon="11.30048219266083"><ele>487.0</ele><time>2026-03-29T17:43:25Z</time></trkpt><trkpt lat="43.56521438407677" lon="11.300598395918863"><ele>486.0</ele><time>2026-03-29T17:43:29Z</time></trkpt><trkpt lat="43.56525588206073" lon="11.300532611631125"><ele>485.0</ele><time>2026-03-29T17:43:53.999Z</time></trkpt><trkpt lat="43.56518481573649" lon="11.300427945773404"><ele>484.0</ele><time>2026-03-29T17:43:56.999Z</time></trkpt><trkpt lat="43.56515398072779" lon="11.300324872132636"><ele>483.0</ele><time>2026-03-29T17:43:59.999Z</time></trkpt><trkpt lat="43.565104951527935" lon="11.300266685773636"><ele>482.0</ele><time>2026-03-29T17:44:09.999Z</time></trkpt><trkpt lat="43.565045162122374" lon="11.30023589762301"><ele>481.0</ele><time>2026-03-29T17:44:23.999Z</time></trkpt><trkpt lat="43.564976563726596" lon="11.300213036655196"><ele>480.0</ele><time>2026-03-29T17:44:25.999Z</time></trkpt><trkpt lat="43.564903131347855" lon="11.300173513491197"><ele>480.0</ele><time>2026-03-29T17:44:27.999Z</time></trkpt><trkpt lat="43.56481549514287" lon="11.300119125580494"><ele>480.0</ele><time>2026-03-29T17:44:29.999Z</time></trkpt><trkpt lat="43.56473517054" lon="11.300039789227268"><ele>480.0</ele><time>2026-03-29T17:44:31.999Z</time></trkpt><trkpt lat="43.564647312076254" lon="11.30001572028529"><ele>480.0</ele><time>2026-03-29T17:44:33.999Z</time></trkpt><trkpt lat="43.564527002000986" lon="11.299988243788814"><ele>480.0</ele><time>2026-03-29T17:44:35.999Z</time></trkpt><trkpt lat="43.56443930555821" lon="11.299964318112348"><ele>480.0</ele><time>2026-03-29T17:44:38Z</time></trkpt><trkpt lat="43.56434792953617" lon="11.299942176481885"><ele>480.0</ele><time>2026-03-29T17:44:40Z</time></trkpt><trkpt lat="43.5642537244687" lon="11.2999283358941"><ele>480.0</ele><time>2026-03-29T17:44:42Z</time></trkpt><trkpt lat="43.56417382406216" lon="11.299885739680155"><ele>480.0</ele><time>2026-03-29T17:44:44Z</time></trkpt><trkpt lat="43.56408683131771" lon="11.299829000069773"><ele>480.0</ele><time>2026-03-29T17:44:46Z</time></trkpt><trkpt lat="43.564031954222735" lon="11.2997714539061"><ele>480.0</ele><time>2026-03-29T17:44:48Z</time></trkpt><trkpt lat="43.56397077356686" lon="11.299739752623605"><ele>482.8333333333333</ele><time>2026-03-29T17:44:51Z</time></trkpt><trkpt lat="43.56395699550906" lon="11.299826106614667"><ele>485.66666666666663</ele><time>2026-03-29T17:44:59Z</time></trkpt><trkpt lat="43.56396273369366" lon="11.299927891347501"><ele>488.5</ele><time>2026-03-29T17:45:01Z</time></trkpt><trkpt lat="43.56398022662927" lon="11.300048621666965"><ele>491.3333333333333</ele><time>2026-03-29T17:45:04Z</time></trkpt><trkpt lat="43.564050695799736" lon="11.300176778588057"><ele>494.16666666666663</ele><time>2026-03-29T17:45:06Z</time></trkpt><trkpt lat="43.564083150872236" lon="11.300269303694876"><ele>497.0</ele><time>2026-03-29T17:45:07Z</time></trkpt><trkpt lat="43.56411345056241" lon="11.30038594979576"><ele>497.0</ele><time>2026-03-29T17:45:08Z</time></trkpt><trkpt lat="43.564146354895534" lon="11.300483097732492"><ele>497.00000000000006</ele><time>2026-03-29T17:45:09Z</time></trkpt><trkpt lat="43.56418215066054" lon="11.300580476070607"><ele>497.00000000000006</ele><time>2026-03-29T17:45:10Z</time></trkpt><trkpt lat="43.564235102961064" lon="11.300702118872163"><ele>497.0</ele><time>2026-03-29T17:45:11Z</time></trkpt><trkpt lat="43.564265767476776" lon="11.300794978404765"><ele>497.0</ele><time>2026-03-29T17:45:12Z</time></trkpt><trkpt lat="43.56431154971369" lon="11.300942405029147"><ele>496.66666666666663</ele><time>2026-03-29T17:45:14Z</time></trkpt><trkpt lat="43.5643387760156" lon="11.301034321290231"><ele>496.3333333333333</ele><time>2026-03-29T17:45:15Z</time></trkpt><trkpt lat="43.56436608937028" lon="11.30112225147104"><ele>496.0</ele><time>2026-03-29T17:45:16Z</time></trkpt><trkpt lat="43.56441521420859" lon="11.30125458535667"><ele>495.66666666666663</ele><time>2026-03-29T17:45:18Z</time></trkpt><trkpt lat="43.564497305985654" lon="11.301347017629176"><ele>495.3333333333333</ele><time>2026-03-29T17:45:20Z</time></trkpt><trkpt lat="43.564514361756885" lon="11.301433069774182"><ele>495.0</ele><time>2026-03-29T17:45:22Z</time></trkpt><trkpt lat="43.56461357208483" lon="11.301638001768952"><ele>495.0</ele><time>2026-03-29T17:45:24Z</time></trkpt><trkpt lat="43.56465642366572" lon="11.301713474825108"><ele>495.0</ele><time>2026-03-29T17:45:25Z</time></trkpt><trkpt lat="43.56469999761007" lon="11.30179829165843"><ele>495.0</ele><time>2026-03-29T17:45:26Z</time></trkpt><trkpt lat="43.564746388411095" lon="11.30190287009322"><ele>495.0</ele><time>2026-03-29T17:45:27Z</time></trkpt><trkpt lat="43.56478522955768" lon="11.301977872287122"><ele>495.0</ele><time>2026-03-29T17:45:28Z</time></trkpt><trkpt lat="43.56483929718516" lon="11.302102662518305"><ele>495.0</ele><time>2026-03-29T17:45:30Z</time></trkpt><trkpt lat="43.56489496536077" lon="11.302200424680853"><ele>495.0</ele><time>2026-03-29T17:45:32Z</time></trkpt><trkpt lat="43.56495614090588" lon="11.302236747511653"><ele>495.0</ele><time>2026-03-29T17:45:33Z</time></trkpt><trkpt lat="43.56504846357812" lon="11.302305689748195"><ele>495.0</ele><time>2026-03-29T17:45:34Z</time></trkpt><trkpt lat="43.56513448277506" lon="11.302383276721462"><ele>495.0</ele><time>2026-03-29T17:45:35Z</time></trkpt><trkpt lat="43.56519012668598" lon="11.302442095428914"><ele>495.0</ele><time>2026-03-29T17:45:36Z</time></trkpt><trkpt lat="43.56523887637206" lon="11.302510781443475"><ele>495.0</ele><time>2026-03-29T17:45:37Z</time></trkpt><trkpt lat="43.5652962451829" lon="11.302578694904502"><ele>494.0</ele><time>2026-03-29T17:45:38Z</time></trkpt><trkpt lat="43.56540665425893" lon="11.302664923158042"><ele>493.0</ele><time>2026-03-29T17:45:40Z</time></trkpt><trkpt lat="43.56549463360981" lon="11.302746895761931"><ele>492.0</ele><time>2026-03-29T17:45:42Z</time></trkpt><trkpt lat="43.565583680835914" lon="11.302818258705475"><ele>491.0</ele><time>2026-03-29T17:45:44Z</time></trkpt><trkpt lat="43.56563703328544" lon="11.302923586741956"><ele>490.0</ele><time>2026-03-29T17:45:46Z</time></trkpt><trkpt lat="43.56570136772026" lon="11.303043293955676"><ele>490.0</ele><time>2026-03-29T17:45:48Z</time></trkpt><trkpt lat="43.56572862961423" lon="11.303121993109446"><ele>490.0</ele><time>2026-03-29T17:45:49Z</time></trkpt><trkpt lat="43.565787097725014" lon="11.303261134305657"><ele>490.0</ele><time>2026-03-29T17:45:51Z</time></trkpt><trkpt lat="43.56587265361483" lon="11.303384060758919"><ele>490.0</ele><time>2026-03-29T17:45:53Z</time></trkpt><trkpt lat="43.565937026710046" lon="11.303496599293124"><ele>490.0</ele><time>2026-03-29T17:45:54.999Z</time></trkpt><trkpt lat="43.56599422028502" lon="11.303589816711932"><ele>490.0</ele><time>2026-03-29T17:45:56.999Z</time></trkpt><trkpt lat="43.56609241623768" lon="11.303680059567977"><ele>490.0</ele><time>2026-03-29T17:45:58.999Z</time></trkpt><trkpt lat="43.566165198684516" lon="11.303759065284611"><ele>490.0</ele><time>2026-03-29T17:46:00.999Z</time></trkpt><trkpt lat="43.566251287206796" lon="11.303819073551841"><ele>490.0</ele><time>2026-03-29T17:46:02.999Z</time></trkpt><trkpt lat="43.56637020116146" lon="11.30390960156406"><ele>490.0</ele><time>2026-03-29T17:46:04.999Z</time></trkpt><trkpt lat="43.56644253394437" lon="11.303959321515766"><ele>488.00000000000006</ele><time>2026-03-29T17:46:05.999Z</time></trkpt><trkpt lat="43.56651867199902" lon="11.30402353810977"><ele>486.0</ele><time>2026-03-29T17:46:06.999Z</time></trkpt><trkpt lat="43.56657679586652" lon="11.30407428496535"><ele>484.0</ele><time>2026-03-29T17:46:07.999Z</time></trkpt><trkpt lat="43.566655024452665" lon="11.304160571048962"><ele>482.0</ele><time>2026-03-29T17:46:24.999Z</time></trkpt><trkpt lat="43.56674355504624" lon="11.304247388201865"><ele>480.00000000000006</ele><time>2026-03-29T17:46:26.999Z</time></trkpt><trkpt lat="43.566807704521" lon="11.30431754040914"><ele>478.0</ele><time>2026-03-29T17:46:28.999Z</time></trkpt><trkpt lat="43.56689545797639" lon="11.304387204447714"><ele>478.00000000000006</ele><time>2026-03-29T17:46:30.999Z</time></trkpt><trkpt lat="43.56695686516631" lon="11.304430320911361"><ele>478.0</ele><time>2026-03-29T17:46:32.999Z</time></trkpt><trkpt lat="43.567047448035645" lon="11.304478487991814"><ele>478.0</ele><time>2026-03-29T17:46:34.999Z</time></trkpt><trkpt lat="43.567146855526715" lon="11.304486995366295"><ele>478.0</ele><time>2026-03-29T17:46:36.999Z</time></trkpt><trkpt lat="43.567205136256014" lon="11.304542258171612"><ele>478.00000000000006</ele><time>2026-03-29T17:46:38.999Z</time></trkpt><trkpt lat="43.56724629821248" lon="11.30462029040477"><ele>478.0</ele><time>2026-03-29T17:46:40.999Z</time></trkpt><trkpt lat="43.56728675470132" lon="11.304722776167273"><ele>479.33333333333337</ele><time>2026-03-29T17:46:42.999Z</time></trkpt><trkpt lat="43.56734565332591" lon="11.30477973111331"><ele>480.6666666666667</ele><time>2026-03-29T17:46:45Z</time></trkpt><trkpt lat="43.567406541798526" lon="11.304838946773723"><ele>482.0</ele><time>2026-03-29T17:46:47Z</time></trkpt><trkpt lat="43.56746687132162" lon="11.304935952865113"><ele>483.33333333333337</ele><time>2026-03-29T17:46:49Z</time></trkpt><trkpt lat="43.56753955922364" lon="11.305014618654518"><ele>484.6666666666667</ele><time>2026-03-29T17:46:51Z</time></trkpt><trkpt lat="43.567623198918575" lon="11.305082878876059"><ele>486.0</ele><time>2026-03-29T17:46:53Z</time></trkpt><trkpt lat="43.567721093851" lon="11.305189336471551"><ele>486.0</ele><time>2026-03-29T17:46:55Z</time></trkpt><trkpt lat="43.567777158107454" lon="11.305260467090584"><ele>486.0</ele><time>2026-03-29T17:46:56Z</time></trkpt><trkpt lat="43.56782604473287" lon="11.305328727779795"><ele>486.0</ele><time>2026-03-29T17:46:57Z</time></trkpt><trkpt lat="43.567891441912224" lon="11.305427120830716"><ele>486.0</ele><time>2026-03-29T17:46:59Z</time></trkpt><trkpt lat="43.56793727715692" lon="11.305496128653829"><ele>486.0</ele><time>2026-03-29T17:47:01Z</time></trkpt><trkpt lat="43.568026004943604" lon="11.30562999356676"><ele>486.0</ele><time>2026-03-29T17:47:03Z</time></trkpt><trkpt lat="43.56807023311625" lon="11.30571780053932"><ele>485.3333333333333</ele><time>2026-03-29T17:47:06Z</time></trkpt><trkpt lat="43.568129798820735" lon="11.305778071326538"><ele>484.66666666666663</ele><time>2026-03-29T17:47:10Z</time></trkpt><trkpt lat="43.568161649599105" lon="11.305898758724418"><ele>484.0</ele><time>2026-03-29T17:47:16Z</time></trkpt><trkpt lat="43.5682130006085" lon="11.30597064917692"><ele>483.3333333333333</ele><time>2026-03-29T17:47:18Z</time></trkpt><trkpt lat="43.56825888887515" lon="11.306058698953823"><ele>482.66666666666663</ele><time>2026-03-29T17:47:20Z</time></trkpt><trkpt lat="43.56830803518222" lon="11.30614533134869"><ele>482.0</ele><time>2026-03-29T17:47:22Z</time></trkpt><trkpt lat="43.56836171532486" lon="11.306247128557613"><ele>481.99999999999994</ele><time>2026-03-29T17:47:24Z</time></trkpt><trkpt lat="43.56841903973468" lon="11.306353509145106"><ele>482.0</ele><time>2026-03-29T17:47:27Z</time></trkpt><trkpt lat="43.56847719350749" lon="11.30644463307667"><ele>482.0</ele><time>2026-03-29T17:47:29Z</time></trkpt><trkpt lat="43.56852271335637" lon="11.30650675960506"><ele>482.0</ele><time>2026-03-29T17:47:31Z</time></trkpt><trkpt lat="43.568604571646866" lon="11.306586972692646"><ele>481.99999999999994</ele><time>2026-03-29T17:47:33Z</time></trkpt><trkpt lat="43.56864369077751" lon="11.30666046845323"><ele>482.0</ele><time>2026-03-29T17:47:36Z</time></trkpt><trkpt lat="43.56870407201994" lon="11.30675303950022"><ele>480.14285714285717</ele><time>2026-03-29T17:48:35.999Z</time></trkpt><trkpt lat="43.56872267098227" lon="11.306841677976413"><ele>478.28571428571433</ele><time>2026-03-29T17:48:45.999Z</time></trkpt><trkpt lat="43.56873099209249" lon="11.306952241072166"><ele>476.42857142857144</ele><time>2026-03-29T17:48:50Z</time></trkpt><trkpt lat="43.56878237275876" lon="11.30704797469197"><ele>474.57142857142856</ele><time>2026-03-29T17:48:53Z</time></trkpt><trkpt lat="43.56883200265695" lon="11.30710508508706"><ele>472.7142857142857</ele><time>2026-03-29T17:48:56Z</time></trkpt><trkpt lat="43.56889719937538" lon="11.307108562604482"><ele>470.8571428571429</ele><time>2026-03-29T17:49:05Z</time></trkpt><trkpt lat="43.56893991675939" lon="11.307185968202663"><ele>469.0</ele><time>2026-03-29T17:49:10Z</time></trkpt><trkpt lat="43.569006052453524" lon="11.30722129612994"><ele>467.1428571428571</ele><time>2026-03-29T17:49:23Z</time></trkpt><trkpt lat="43.56906133393579" lon="11.307264901198929"><ele>465.2857142857143</ele><time>2026-03-29T17:49:29Z</time></trkpt><trkpt lat="43.569066568387804" lon="11.307356945106445"><ele>463.42857142857144</ele><time>2026-03-29T17:49:32Z</time></trkpt><trkpt lat="43.56908311785182" lon="11.307470145572692"><ele>461.57142857142856</ele><time>2026-03-29T17:49:37Z</time></trkpt><trkpt lat="43.56909707560698" lon="11.307556520563887"><ele>459.71428571428567</ele><time>2026-03-29T17:49:41Z</time></trkpt><trkpt lat="43.569100289636054" lon="11.307664991864243"><ele>457.85714285714283</ele><time>2026-03-29T17:49:44Z</time></trkpt><trkpt lat="43.569152876666415" lon="11.30771909201901"><ele>456.0</ele><time>2026-03-29T17:49:48Z</time></trkpt><trkpt lat="43.569203421439944" lon="11.307784811132292"><ele>456.0</ele><time>2026-03-29T17:49:54Z</time></trkpt><trkpt lat="43.56923098747489" lon="11.307866924895063"><ele>455.99999999999994</ele><time>2026-03-29T17:50:00Z</time></trkpt><trkpt lat="43.56929641272041" lon="11.307896385074041"><ele>456.0</ele><time>2026-03-29T17:50:03.999Z</time></trkpt><trkpt lat="43.56936542111598" lon="11.307946106038285"><ele>456.0</ele><time>2026-03-29T17:50:07.999Z</time></trkpt><trkpt lat="43.56943213469834" lon="11.307950518791571"><ele>455.99999999999994</ele><time>2026-03-29T17:50:10.999Z</time></trkpt><trkpt lat="43.56949207942057" lon="11.307990748029887"><ele>456.0</ele><time>2026-03-29T17:50:15.999Z</time></trkpt><trkpt lat="43.56953444065705" lon="11.30807781563007"><ele>456.0</ele><time>2026-03-29T17:50:22.999Z</time></trkpt><trkpt lat="43.569586024149466" lon="11.30812826062918"><ele>452.5</ele><time>2026-03-29T17:50:24.999Z</time></trkpt><trkpt lat="43.56965743580876" lon="11.30816143208101"><ele>449.0</ele><time>2026-03-29T17:50:29.999Z</time></trkpt><trkpt lat="43.569634815083994" lon="11.308270267168245"><ele>445.5</ele><time>2026-03-29T17:52:00.999Z</time></trkpt><trkpt lat="43.56958035398772" lon="11.308357549422855"><ele>442.0</ele><time>2026-03-29T17:52:03.999Z</time></trkpt><trkpt lat="43.569528964302854" lon="11.308412613454859"><ele>438.5</ele><time>2026-03-29T17:52:06.999Z</time></trkpt><trkpt lat="43.569481141357066" lon="11.308507884764259"><ele>435.0</ele><time>2026-03-29T17:52:09.999Z</time></trkpt><trkpt lat="43.56942120005123" lon="11.308584159612055"><ele>435.0</ele><time>2026-03-29T17:52:12.999Z</time></trkpt><trkpt lat="43.56949823404355" lon="11.30857793035938"><ele>435.0</ele><time>2026-03-29T17:52:15.999Z</time></trkpt><trkpt lat="43.56956663206758" lon="11.308622151596884"><ele>435.0</ele><time>2026-03-29T17:52:18.999Z</time></trkpt><trkpt lat="43.56958457459174" lon="11.308710843104144"><ele>435.0</ele><time>2026-03-29T17:52:20.999Z</time></trkpt><trkpt lat="43.56965673417204" lon="11.308725746065035"><ele>435.0</ele><time>2026-03-29T17:52:23.999Z</time></trkpt><trkpt lat="43.56971103968358" lon="11.308654120882212"><ele>435.0</ele><time>2026-03-29T17:52:25.999Z</time></trkpt><trkpt lat="43.56977432316597" lon="11.30856815206982"><ele>430.8</ele><time>2026-03-29T17:52:27.999Z</time></trkpt><trkpt lat="43.56986819230644" lon="11.308482374708113"><ele>426.6</ele><time>2026-03-29T17:52:29.999Z</time></trkpt><trkpt lat="43.56996362757681" lon="11.30837232106749"><ele>422.4</ele><time>2026-03-29T17:52:31.999Z</time></trkpt><trkpt lat="43.57001067507114" lon="11.308308904878855"><ele>418.2</ele><time>2026-03-29T17:52:32.999Z</time></trkpt><trkpt lat="43.57006260645378" lon="11.308249021028333"><ele>414.0</ele><time>2026-03-29T17:52:33.999Z</time></trkpt><trkpt lat="43.57015174425745" lon="11.308152217176954"><ele>416.79999999999995</ele><time>2026-03-29T17:52:35.999Z</time></trkpt><trkpt lat="43.57024295738445" lon="11.308042672833615"><ele>419.59999999999997</ele><time>2026-03-29T17:52:37.999Z</time></trkpt><trkpt lat="43.57029225915993" lon="11.307982878603383"><ele>422.4</ele><time>2026-03-29T17:52:38.999Z</time></trkpt><trkpt lat="43.57033989057206" lon="11.307916936391669"><ele>425.2</ele><time>2026-03-29T17:52:39.999Z</time></trkpt><trkpt lat="43.570433218056976" lon="11.307786356293153"><ele>428.0</ele><time>2026-03-29T17:52:41.999Z</time></trkpt><trkpt lat="43.570479240293665" lon="11.307713179049871"><ele>424.42857142857144</ele><time>2026-03-29T17:52:42.999Z</time></trkpt><trkpt lat="43.57052536799626" lon="11.30764126743906"><ele>420.8571428571429</ele><time>2026-03-29T17:52:43.999Z</time></trkpt><trkpt lat="43.5705710004287" lon="11.307571594286001"><ele>417.28571428571433</ele><time>2026-03-29T17:52:44.999Z</time></trkpt><trkpt lat="43.570596892588384" lon="11.30747260558843"><ele>413.7142857142857</ele><time>2026-03-29T17:52:45.999Z</time></trkpt><trkpt lat="43.57063687666792" lon="11.307389424861725"><ele>410.1428571428571</ele><time>2026-03-29T17:52:46.999Z</time></trkpt><trkpt lat="43.57066982574518" lon="11.30729472713975"><ele>406.5714285714286</ele><time>2026-03-29T17:52:47.999Z</time></trkpt><trkpt lat="43.57070990609332" lon="11.307195665198604"><ele>403.0</ele><time>2026-03-29T17:52:48.999Z</time></trkpt><trkpt lat="43.570754392095196" lon="11.307090288204574"><ele>403.0</ele><time>2026-03-29T17:52:49.999Z</time></trkpt><trkpt lat="43.570796420376986" lon="11.306995304415102"><ele>403.0</ele><time>2026-03-29T17:52:50.999Z</time></trkpt><trkpt lat="43.57084242749691" lon="11.306888850618071"><ele>403.0</ele><time>2026-03-29T17:52:51.999Z</time></trkpt><trkpt lat="43.570898557046505" lon="11.30676143173968"><ele>403.0</ele><time>2026-03-29T17:52:52.999Z</time></trkpt><trkpt lat="43.57095095598821" lon="11.306622019595043"><ele>403.0</ele><time>2026-03-29T17:52:53.999Z</time></trkpt><trkpt lat="43.57100185652384" lon="11.306509007164976"><ele>403.00000000000006</ele><time>2026-03-29T17:52:54.999Z</time></trkpt><trkpt lat="43.571064761310126" lon="11.306426189667672"><ele>403.0</ele><time>2026-03-29T17:52:55.999Z</time></trkpt><trkpt lat="43.57112250988514" lon="11.306364389089566"><ele>403.0</ele><time>2026-03-29T17:52:56.999Z</time></trkpt><trkpt lat="43.57120673665862" lon="11.30635532743022"><ele>403.0</ele><time>2026-03-29T17:52:57.999Z</time></trkpt><trkpt lat="43.57130838150289" lon="11.306312222021909"><ele>403.00000000000006</ele><time>2026-03-29T17:52:58.999Z</time></trkpt><trkpt lat="43.57139648039198" lon="11.30627004554159"><ele>403.0</ele><time>2026-03-29T17:52:59.999Z</time></trkpt><trkpt lat="43.57146099589749" lon="11.306212061442718"><ele>401.0</ele><time>2026-03-29T17:53:00.999Z</time></trkpt><trkpt lat="43.57156966050204" lon="11.306150566157756"><ele>399.0</ele><time>2026-03-29T17:53:03Z</time></trkpt><trkpt lat="43.57162299362123" lon="11.306101172095467"><ele>397.0</ele><time>2026-03-29T17:53:04Z</time></trkpt><trkpt lat="43.57168834716423" lon="11.306066716165857"><ele>395.0</ele><time>2026-03-29T17:53:05Z</time></trkpt><trkpt lat="43.57177579247578" lon="11.305986435010054"><ele>393.0</ele><time>2026-03-29T17:53:07Z</time></trkpt><trkpt lat="43.57186147759846" lon="11.305930156489884"><ele>393.0</ele><time>2026-03-29T17:53:09Z</time></trkpt><trkpt lat="43.571937655242955" lon="11.305897092024178"><ele>393.0</ele><time>2026-03-29T17:53:11Z</time></trkpt><trkpt lat="43.5720007941557" lon="11.305932835577126"><ele>393.0</ele><time>2026-03-29T17:53:13Z</time></trkpt><trkpt lat="43.572063925866416" lon="11.305983337232465"><ele>393.0</ele><time>2026-03-29T17:53:16Z</time></trkpt><trkpt lat="43.571977186880574" lon="11.305942451297279"><ele>393.0</ele><time>2026-03-29T17:53:29Z</time></trkpt><trkpt lat="43.57207724166265" lon="11.305799355920197"><ele>393.0</ele><time>2026-03-29T17:53:30Z</time></trkpt><trkpt lat="43.57183053898901" lon="11.305813165265667"><ele>393.0</ele><time>2026-03-29T17:53:33Z</time></trkpt><trkpt lat="43.571730876748724" lon="11.305809428085706"><ele>393.0</ele><time>2026-03-29T17:53:35Z</time></trkpt><trkpt lat="43.57162108974741" lon="11.30579725979309"><ele>393.0</ele><time>2026-03-29T17:53:36.999Z</time></trkpt><trkpt lat="43.571516662557784" lon="11.305806501086263"><ele>393.0</ele><time>2026-03-29T17:53:38.999Z</time></trkpt><trkpt lat="43.57142883051679" lon="11.30579256781902"><ele>393.0</ele><time>2026-03-29T17:53:40.999Z</time></trkpt><trkpt lat="43.57132570107723" lon="11.30579030239746"><ele>393.0</ele><time>2026-03-29T17:53:42.999Z</time></trkpt><trkpt lat="43.571237175215195" lon="11.305788401752597"><ele>393.0</ele><time>2026-03-29T17:53:44.999Z</time></trkpt><trkpt lat="43.57117264182068" lon="11.305785468431383"><ele>393.0</ele><time>2026-03-29T17:53:45.999Z</time></trkpt><trkpt lat="43.57109227476634" lon="11.305793501848871"><ele>397.59999999999997</ele><time>2026-03-29T17:53:46.999Z</time></trkpt><trkpt lat="43.57099359998714" lon="11.305790123034296"><ele>402.2</ele><time>2026-03-29T17:53:48.999Z</time></trkpt><trkpt lat="43.570889287585594" lon="11.305783013918855"><ele>406.8</ele><time>2026-03-29T17:53:50.999Z</time></trkpt><trkpt lat="43.570783156627456" lon="11.30577574521789"><ele>411.4</ele><time>2026-03-29T17:53:52.999Z</time></trkpt><trkpt lat="43.57070786347723" lon="11.305773609764804"><ele>416.0</ele><time>2026-03-29T17:53:53.999Z</time></trkpt><trkpt lat="43.57059490086509" lon="11.305774991536262"><ele>415.99999999999994</ele><time>2026-03-29T17:53:55.999Z</time></trkpt><trkpt lat="43.57051213191903" lon="11.305776267038395"><ele>416.0</ele><time>2026-03-29T17:53:57.999Z</time></trkpt><trkpt lat="43.57044557545317" lon="11.305782594986729"><ele>416.0</ele><time>2026-03-29T17:53:59.999Z</time></trkpt><trkpt lat="43.570343397851545" lon="11.305790956404794"><ele>416.0</ele><time>2026-03-29T17:54:01.999Z</time></trkpt><trkpt lat="43.570260557577456" lon="11.305750701726664"><ele>415.99999999999994</ele><time>2026-03-29T17:54:03.999Z</time></trkpt><trkpt lat="43.57015463715303" lon="11.305726141867714"><ele>416.0</ele><time>2026-03-29T17:54:06.999Z</time></trkpt><trkpt lat="43.57005924878994" lon="11.305755806023498"><ele>421.20000000000005</ele><time>2026-03-29T17:54:08.999Z</time></trkpt><trkpt lat="43.56999187752185" lon="11.305766762921268"><ele>426.40000000000003</ele><time>2026-03-29T17:54:09.999Z</time></trkpt><trkpt lat="43.569918050475145" lon="11.305766487397351"><ele>431.6</ele><time>2026-03-29T17:54:10.999Z</time></trkpt><trkpt lat="43.56983731241577" lon="11.305701925968238"><ele>436.8</ele><time>2026-03-29T17:54:12.999Z</time></trkpt><trkpt lat="43.569750993208146" lon="11.305692329933972"><ele>442.0</ele><time>2026-03-29T17:54:14.999Z</time></trkpt><trkpt lat="43.569623579429226" lon="11.30572576871206"><ele>442.00000000000006</ele><time>2026-03-29T17:54:16.999Z</time></trkpt><trkpt lat="43.56954981729946" lon="11.305734347100604"><ele>442.0</ele><time>2026-03-29T17:54:17.999Z</time></trkpt><trkpt lat="43.569437654418884" lon="11.305720459400337"><ele>442.0</ele><time>2026-03-29T17:54:19.999Z</time></trkpt><trkpt lat="43.5693753122181" lon="11.30570615998805"><ele>442.0</ele><time>2026-03-29T17:54:20.999Z</time></trkpt><trkpt lat="43.56928110278481" lon="11.305658617825786"><ele>442.00000000000006</ele><time>2026-03-29T17:54:22.999Z</time></trkpt><trkpt lat="43.56925934981029" lon="11.305566756341964"><ele>442.0</ele><time>2026-03-29T17:54:24.999Z</time></trkpt><trkpt lat="43.569232203709205" lon="11.305452952339731"><ele>444.0</ele><time>2026-03-29T17:54:26.999Z</time></trkpt><trkpt lat="43.569148553412646" lon="11.30532840666727"><ele>446.00000000000006</ele><time>2026-03-29T17:54:28.999Z</time></trkpt><trkpt lat="43.56908863376015" lon="11.305238300598281"><ele>448.00000000000006</ele><time>2026-03-29T17:54:30.999Z</time></trkpt><trkpt lat="43.56901338520685" lon="11.305148990505577"><ele>450.0</ele><time>2026-03-29T17:54:32.999Z</time></trkpt><trkpt lat="43.56894232689531" lon="11.30506225062596"><ele>452.0</ele><time>2026-03-29T17:54:34.999Z</time></trkpt><trkpt lat="43.568896500514754" lon="11.304941451027211"><ele>451.99999999999994</ele><time>2026-03-29T17:54:36.999Z</time></trkpt><trkpt lat="43.56887564262" lon="11.304831315584257"><ele>452.0</ele><time>2026-03-29T17:54:38.999Z</time></trkpt><trkpt lat="43.568797865410104" lon="11.304803675243305"><ele>452.0</ele><time>2026-03-29T17:54:40.999Z</time></trkpt><trkpt lat="43.568713838883035" lon="11.304767637619667"><ele>452.0</ele><time>2026-03-29T17:54:43.999Z</time></trkpt><trkpt lat="43.56865952014009" lon="11.304720320001499"><ele>451.99999999999994</ele><time>2026-03-29T17:54:46.999Z</time></trkpt><trkpt lat="43.56856737763597" lon="11.304682378313471"><ele>452.0</ele><time>2026-03-29T17:54:48.999Z</time></trkpt><trkpt lat="43.568494850254325" lon="11.304661213324595"><ele>453.8</ele><time>2026-03-29T17:54:49.999Z</time></trkpt><trkpt lat="43.56840852576773" lon="11.30464132418924"><ele>455.6</ele><time>2026-03-29T17:54:51.999Z</time></trkpt><trkpt lat="43.56829609994257" lon="11.304616939284761"><ele>457.40000000000003</ele><time>2026-03-29T17:54:53.999Z</time></trkpt><trkpt lat="43.56820000636019" lon="11.304615892571471"><ele>459.20000000000005</ele><time>2026-03-29T17:54:55.999Z</time></trkpt><trkpt lat="43.56811569473159" lon="11.304592149649634"><ele>461.0</ele><time>2026-03-29T17:54:57.998Z</time></trkpt><trkpt lat="43.56805175907555" lon="11.304555289131358"><ele>460.99999999999994</ele><time>2026-03-29T17:54:59.998Z</time></trkpt><trkpt lat="43.56797026613356" lon="11.304487545388964"><ele>461.0</ele><time>2026-03-29T17:55:01.998Z</time></trkpt><trkpt lat="43.56788441284101" lon="11.304410249639645"><ele>461.0</ele><time>2026-03-29T17:55:03.998Z</time></trkpt><trkpt lat="43.567838907513575" lon="11.30430626456661"><ele>461.0</ele><time>2026-03-29T17:55:05.998Z</time></trkpt><trkpt lat="43.56780530626672" lon="11.304228752343358"><ele>460.99999999999994</ele><time>2026-03-29T17:55:06.998Z</time></trkpt><trkpt lat="43.567733322261766" lon="11.304143760614302"><ele>461.0</ele><time>2026-03-29T17:55:09Z</time></trkpt><trkpt lat="43.56765172990042" lon="11.30411316972483"><ele>463.8</ele><time>2026-03-29T17:55:11Z</time></trkpt><trkpt lat="43.567554037059864" lon="11.30409875223231"><ele>466.6</ele><time>2026-03-29T17:55:13Z</time></trkpt><trkpt lat="43.56748327701793" lon="11.304083095851652"><ele>469.4</ele><time>2026-03-29T17:55:15Z</time></trkpt><trkpt lat="43.567388348201796" lon="11.304107369175556"><ele>472.2</ele><time>2026-03-29T17:55:17Z</time></trkpt><trkpt lat="43.56729978776557" lon="11.30413339240723"><ele>475.0</ele><time>2026-03-29T17:55:19Z</time></trkpt><trkpt lat="43.56719171635052" lon="11.304111287916559"><ele>475.0</ele><time>2026-03-29T17:55:21Z</time></trkpt><trkpt lat="43.56707740580258" lon="11.304119219379563"><ele>475.0</ele><time>2026-03-29T17:55:23Z</time></trkpt><trkpt lat="43.56696273463668" lon="11.304109018428258"><ele>475.0</ele><time>2026-03-29T17:55:25Z</time></trkpt><trkpt lat="43.566861146300305" lon="11.304116155294825"><ele>475.0</ele><time>2026-03-29T17:55:27Z</time></trkpt><trkpt lat="43.56676160354361" lon="11.304098537342487"><ele>475.0</ele><time>2026-03-29T17:55:29Z</time></trkpt><trkpt lat="43.56665241006015" lon="11.304086079497301"><ele>475.00000000000006</ele><time>2026-03-29T17:55:31Z</time></trkpt><trkpt lat="43.566571986073406" lon="11.304084656574545"><ele>475.0</ele><time>2026-03-29T17:55:34Z</time></trkpt><trkpt lat="43.56650680605783" lon="11.304024255139417"><ele>475.0</ele><time>2026-03-29T17:55:36Z</time></trkpt><trkpt lat="43.56659415677859" lon="11.304096716168553"><ele>475.0</ele><time>2026-03-29T17:55:46Z</time></trkpt><trkpt lat="43.566659102445854" lon="11.30407505541315"><ele>475.00000000000006</ele><time>2026-03-29T17:55:48Z</time></trkpt><trkpt lat="43.566692715404145" lon="11.30394714706562"><ele>475.0</ele><time>2026-03-29T17:55:51Z</time></trkpt><trkpt lat="43.566677767564194" lon="11.303797426117882"><ele>475.00000000000006</ele><time>2026-03-29T17:55:53Z</time></trkpt><trkpt lat="43.56663711834506" lon="11.30366756243316"><ele>475.0</ele><time>2026-03-29T17:55:55Z</time></trkpt><trkpt lat="43.566633383163754" lon="11.303548829732463"><ele>475.0</ele><time>2026-03-29T17:55:57Z</time></trkpt><trkpt lat="43.56664421264158" lon="11.303448071148129"><ele>475.0</ele><time>2026-03-29T17:55:59Z</time></trkpt><trkpt lat="43.5666572021886" lon="11.303355378046748"><ele>475.00000000000006</ele><time>2026-03-29T17:56:01Z</time></trkpt><trkpt lat="43.5666938093283" lon="11.303239037485955"><ele>475.0</ele><time>2026-03-29T17:56:04Z</time></trkpt><trkpt lat="43.56671366464806" lon="11.30313761473337"><ele>474.2</ele><time>2026-03-29T17:56:05.999Z</time></trkpt><trkpt lat="43.566715891537584" lon="11.303039457793167"><ele>473.4</ele><time>2026-03-29T17:56:07.999Z</time></trkpt><trkpt lat="43.566732076123856" lon="11.302954144994358"><ele>472.6</ele><time>2026-03-29T17:56:09.999Z</time></trkpt><trkpt lat="43.56676071233545" lon="11.30282140754838"><ele>471.8</ele><time>2026-03-29T17:56:11.999Z</time></trkpt><trkpt lat="43.566807527732436" lon="11.302678476946163"><ele>471.0</ele><time>2026-03-29T17:56:13.999Z</time></trkpt><trkpt lat="43.56687154756361" lon="11.302545757549431"><ele>471.0</ele><time>2026-03-29T17:56:15.999Z</time></trkpt><trkpt lat="43.566931233365445" lon="11.302457699096706"><ele>471.0</ele><time>2026-03-29T17:56:17.999Z</time></trkpt><trkpt lat="43.56698534533865" lon="11.302312768808866"><ele>471.0</ele><time>2026-03-29T17:56:19.999Z</time></trkpt><trkpt lat="43.56703671597223" lon="11.302204978600821"><ele>471.0</ele><time>2026-03-29T17:56:21.999Z</time></trkpt><trkpt lat="43.56710388247874" lon="11.30209657703457"><ele>471.0</ele><time>2026-03-29T17:56:23.999Z</time></trkpt><trkpt lat="43.567160998157014" lon="11.30195995040507"><ele>467.1666666666667</ele><time>2026-03-29T17:56:25.999Z</time></trkpt><trkpt lat="43.56718621541985" lon="11.3018738903815"><ele>463.33333333333337</ele><time>2026-03-29T17:56:27.999Z</time></trkpt><trkpt lat="43.56721203362394" lon="11.30176493163377"><ele>459.5</ele><time>2026-03-29T17:56:29.999Z</time></trkpt><trkpt lat="43.56725896338251" lon="11.301632820420448"><ele>455.6666666666667</ele><time>2026-03-29T17:56:31.999Z</time></trkpt><trkpt lat="43.56727522443273" lon="11.301520889857489"><ele>451.83333333333337</ele><time>2026-03-29T17:56:33.999Z</time></trkpt><trkpt lat="43.5672895300886" lon="11.30139757732662"><ele>448.0</ele><time>2026-03-29T17:56:35.999Z</time></trkpt><trkpt lat="43.56728859640158" lon="11.301279568168237"><ele>447.33333333333337</ele><time>2026-03-29T17:56:37.999Z</time></trkpt><trkpt lat="43.56732804807607" lon="11.301187730053142"><ele>446.6666666666667</ele><time>2026-03-29T17:56:39.999Z</time></trkpt><trkpt lat="43.567386040377684" lon="11.301069688387113"><ele>446.0</ele><time>2026-03-29T17:56:41.999Z</time></trkpt><trkpt lat="43.56740773674977" lon="11.300968197963794"><ele>445.33333333333337</ele><time>2026-03-29T17:56:43.999Z</time></trkpt><trkpt lat="43.567403578152756" lon="11.300870101856628"><ele>444.6666666666667</ele><time>2026-03-29T17:56:45.999Z</time></trkpt><trkpt lat="43.56743490341985" lon="11.30073680592349"><ele>444.0</ele><time>2026-03-29T17:56:47.999Z</time></trkpt><trkpt lat="43.56745801797537" lon="11.30063403287575"><ele>441.8333333333333</ele><time>2026-03-29T17:56:49.999Z</time></trkpt><trkpt lat="43.56747795357442" lon="11.300539739412834"><ele>439.66666666666663</ele><time>2026-03-29T17:56:51.999Z</time></trkpt><trkpt lat="43.567516783729836" lon="11.30044425996497"><ele>437.5</ele><time>2026-03-29T17:56:53.999Z</time></trkpt><trkpt lat="43.567575450194184" lon="11.300368372961072"><ele>435.3333333333333</ele><time>2026-03-29T17:56:55.999Z</time></trkpt><trkpt lat="43.56762610788022" lon="11.300307011873299"><ele>433.16666666666663</ele><time>2026-03-29T17:56:57.999Z</time></trkpt><trkpt lat="43.56768644434116" lon="11.300250077005838"><ele>431.0</ele><time>2026-03-29T17:57:00.999Z</time></trkpt><trkpt lat="43.5677591596085" lon="11.300209513951158"><ele>430.99999999999994</ele><time>2026-03-29T17:57:03.999Z</time></trkpt><trkpt lat="43.56782476153538" lon="11.300188390912993"><ele>431.0</ele><time>2026-03-29T17:57:05.999Z</time></trkpt><trkpt lat="43.56790436177205" lon="11.300205395548382"><ele>431.0</ele><time>2026-03-29T17:57:08.999Z</time></trkpt><trkpt lat="43.56799007563009" lon="11.30020174751704"><ele>431.0</ele><time>2026-03-29T17:57:10.999Z</time></trkpt><trkpt lat="43.568083877608856" lon="11.300190232694657"><ele>430.99999999999994</ele><time>2026-03-29T17:57:14Z</time></trkpt><trkpt lat="43.56815317281439" lon="11.300209176195132"><ele>431.0</ele><time>2026-03-29T17:57:16Z</time></trkpt><trkpt lat="43.56821579390771" lon="11.300230645437145"><ele>429.99999999999994</ele><time>2026-03-29T17:57:18Z</time></trkpt><trkpt lat="43.56829133510877" lon="11.300279896081575"><ele>429.0</ele><time>2026-03-29T17:57:20Z</time></trkpt><trkpt lat="43.5683664660143" lon="11.300262290075011"><ele>428.0</ele><time>2026-03-29T17:57:22Z</time></trkpt><trkpt lat="43.56843603087933" lon="11.300248048838618"><ele>427.0</ele><time>2026-03-29T17:57:24Z</time></trkpt><trkpt lat="43.56851864010911" lon="11.300281992201644"><ele>425.99999999999994</ele><time>2026-03-29T17:57:27Z</time></trkpt><trkpt lat="43.568596731822886" lon="11.30035078678748"><ele>425.0</ele><time>2026-03-29T17:57:29Z</time></trkpt><trkpt lat="43.56867313499428" lon="11.300384253491902"><ele>422.7142857142857</ele><time>2026-03-29T17:57:32Z</time></trkpt><trkpt lat="43.568696286078435" lon="11.300475491780714"><ele>420.42857142857144</ele><time>2026-03-29T17:57:34Z</time></trkpt><trkpt lat="43.568708207110255" lon="11.300575287942886"><ele>418.1428571428571</ele><time>2026-03-29T17:57:37Z</time></trkpt><trkpt lat="43.5687492723975" lon="11.30066451238102"><ele>415.8571428571429</ele><time>2026-03-29T17:57:40Z</time></trkpt><trkpt lat="43.56881126841037" lon="11.300686495030941"><ele>413.5714285714286</ele><time>2026-03-29T17:57:42Z</time></trkpt><trkpt lat="43.568881396107486" lon="11.300669901432263"><ele>411.2857142857143</ele><time>2026-03-29T17:57:45Z</time></trkpt><trkpt lat="43.56893061075438" lon="11.300611292968721"><ele>409.0</ele><time>2026-03-29T17:57:47Z</time></trkpt><trkpt lat="43.56896831200149" lon="11.300531713354243"><ele>408.50000000000006</ele><time>2026-03-29T17:57:49Z</time></trkpt><trkpt lat="43.56899566666444" lon="11.300446461658343"><ele>408.0</ele><time>2026-03-29T17:57:51Z</time></trkpt><trkpt lat="43.569014468508634" lon="11.300360718297368"><ele>407.5</ele><time>2026-03-29T17:57:53Z</time></trkpt><trkpt lat="43.56904003563681" lon="11.300273687196073"><ele>407.0</ele><time>2026-03-29T17:57:55Z</time></trkpt><trkpt lat="43.569077763810334" lon="11.300178825934456"><ele>406.50000000000006</ele><time>2026-03-29T17:57:57Z</time></trkpt><trkpt lat="43.56909541878173" lon="11.30004177634781"><ele>406.0</ele><time>2026-03-29T17:58:00Z</time></trkpt><trkpt lat="43.56911414461664" lon="11.299943697862787"><ele>406.0</ele><time>2026-03-29T17:58:02Z</time></trkpt><trkpt lat="43.56912244008214" lon="11.299836997710564"><ele>406.0</ele><time>2026-03-29T17:58:05Z</time></trkpt><trkpt lat="43.56919176995497" lon="11.29980745852626"><ele>406.0</ele><time>2026-03-29T17:58:28.999Z</time></trkpt><trkpt lat="43.56921883069254" lon="11.2998973412065"><ele>406.0</ele><time>2026-03-29T17:58:29.999Z</time></trkpt><trkpt lat="43.56928065002561" lon="11.29993476013275"><ele>406.0</ele><time>2026-03-29T17:58:30.999Z</time></trkpt><trkpt lat="43.56934845791074" lon="11.299975803856794"><ele>406.0</ele><time>2026-03-29T17:58:31.999Z</time></trkpt><trkpt lat="43.569415922244836" lon="11.300021764516169"><ele>406.0</ele><time>2026-03-29T17:58:32.999Z</time></trkpt><trkpt lat="43.56948386758977" lon="11.30007291721255"><ele>402.6666666666667</ele><time>2026-03-29T17:58:33.999Z</time></trkpt><trkpt lat="43.56955744314209" lon="11.300128204814614"><ele>399.33333333333337</ele><time>2026-03-29T17:58:34.999Z</time></trkpt><trkpt lat="43.56963020865227" lon="11.300179125267809"><ele>396.0</ele><time>2026-03-29T17:58:35.999Z</time></trkpt><trkpt lat="43.56969482830251" lon="11.300224345377783"><ele>392.66666666666663</ele><time>2026-03-29T17:58:36.999Z</time></trkpt><trkpt lat="43.56976085919224" lon="11.300267845444056"><ele>389.3333333333333</ele><time>2026-03-29T17:58:37.999Z</time></trkpt><trkpt lat="43.56982670962623" lon="11.300309245424554"><ele>386.0</ele><time>2026-03-29T17:58:38.999Z</time></trkpt><trkpt lat="43.569890368469814" lon="11.30034130427602"><ele>385.99999999999994</ele><time>2026-03-29T17:58:39.999Z</time></trkpt><trkpt lat="43.56995401421594" lon="11.300367741617249"><ele>386.0</ele><time>2026-03-29T17:58:40.999Z</time></trkpt><trkpt lat="43.57006144324794" lon="11.300409586584452"><ele>386.0</ele><time>2026-03-29T17:58:42.999Z</time></trkpt><trkpt lat="43.5701276100171" lon="11.300513844164382"><ele>386.0</ele><time>2026-03-29T17:58:44.999Z</time></trkpt><trkpt lat="43.57014916270652" lon="11.300595531664182"><ele>385.99999999999994</ele><time>2026-03-29T17:58:45.999Z</time></trkpt><trkpt lat="43.57017570345497" lon="11.30070356394848"><ele>386.0</ele><time>2026-03-29T17:58:46.999Z</time></trkpt><trkpt lat="43.57019845119724" lon="11.300791029014562"><ele>385.99999999999994</ele><time>2026-03-29T17:58:47.999Z</time></trkpt><trkpt lat="43.57022159935946" lon="11.300882468555919"><ele>386.0</ele><time>2026-03-29T17:58:48.999Z</time></trkpt><trkpt lat="43.570242488446624" lon="11.301055666984615"><ele>386.0</ele><time>2026-03-29T17:58:50.999Z</time></trkpt><trkpt lat="43.570187100689566" lon="11.301124402168911"><ele>386.0</ele><time>2026-03-29T17:58:51.999Z</time></trkpt><trkpt lat="43.57014438128304" lon="11.301210161059053"><ele>385.99999999999994</ele><time>2026-03-29T17:58:52.999Z</time></trkpt><trkpt lat="43.570098705126505" lon="11.3012938462485"><ele>386.0</ele><time>2026-03-29T17:58:53.999Z</time></trkpt><trkpt lat="43.57005884284813" lon="11.301364155431033"><ele>384.8</ele><time>2026-03-29T17:58:54.999Z</time></trkpt><trkpt lat="43.569978565829054" lon="11.30148054704492"><ele>383.6</ele><time>2026-03-29T17:58:56.999Z</time></trkpt><trkpt lat="43.5699380148656" lon="11.301566191453574"><ele>382.4</ele><time>2026-03-29T17:58:57.999Z</time></trkpt><trkpt lat="43.569890784516964" lon="11.301637917603037"><ele>381.2</ele><time>2026-03-29T17:58:58.999Z</time></trkpt><trkpt lat="43.569850769926326" lon="11.301717865374888"><ele>380.0</ele><time>2026-03-29T17:58:59.999Z</time></trkpt><trkpt lat="43.56982026668653" lon="11.30188508520588"><ele>380.0</ele><time>2026-03-29T17:59:01.999Z</time></trkpt><trkpt lat="43.56985833873046" lon="11.301974967947034"><ele>380.0</ele><time>2026-03-29T17:59:02.999Z</time></trkpt><trkpt lat="43.56990256922077" lon="11.30205207127177"><ele>380.0</ele><time>2026-03-29T17:59:03.999Z</time></trkpt><trkpt lat="43.569970760192554" lon="11.302101990660889"><ele>380.0</ele><time>2026-03-29T17:59:04.999Z</time></trkpt><trkpt lat="43.57007225959816" lon="11.30215475423317"><ele>380.0</ele><time>2026-03-29T17:59:05.999Z</time></trkpt><trkpt lat="43.57018378167892" lon="11.30222674611246"><ele>381.0</ele><time>2026-03-29T17:59:06.999Z</time></trkpt><trkpt lat="43.570270442849434" lon="11.302282689431454"><ele>382.0</ele><time>2026-03-29T17:59:07.999Z</time></trkpt><trkpt lat="43.570340622674976" lon="11.302328735297777"><ele>383.0</ele><time>2026-03-29T17:59:08.999Z</time></trkpt><trkpt lat="43.57042396643871" lon="11.302383102981125"><ele>384.0</ele><time>2026-03-29T17:59:09.999Z</time></trkpt><trkpt lat="43.570502281064236" lon="11.302432802850976"><ele>384.99999999999994</ele><time>2026-03-29T17:59:10.999Z</time></trkpt><trkpt lat="43.570589867230495" lon="11.302475545099014"><ele>386.0</ele><time>2026-03-29T17:59:11.999Z</time></trkpt><trkpt lat="43.57067303696056" lon="11.302536422065947"><ele>383.66666666666663</ele><time>2026-03-29T17:59:12.999Z</time></trkpt><trkpt lat="43.57074757609025" lon="11.302564010027938"><ele>381.3333333333333</ele><time>2026-03-29T17:59:13.999Z</time></trkpt><trkpt lat="43.57081056817336" lon="11.302584645802208"><ele>379.0</ele><time>2026-03-29T17:59:14.999Z</time></trkpt><trkpt lat="43.57089631063697" lon="11.302612734430229"><ele>376.66666666666663</ele><time>2026-03-29T17:59:16.999Z</time></trkpt><trkpt lat="43.570906055453335" lon="11.30247060679311"><ele>374.3333333333333</ele><time>2026-03-29T17:59:20Z</time></trkpt><trkpt lat="43.57081270346099" lon="11.302391031532693"><ele>372.0</ele><time>2026-03-29T17:59:22Z</time></trkpt><trkpt lat="43.57071176465797" lon="11.302273641669316"><ele>370.6666666666667</ele><time>2026-03-29T17:59:24Z</time></trkpt><trkpt lat="43.57066985201992" lon="11.302199719063106"><ele>369.3333333333333</ele><time>2026-03-29T17:59:25Z</time></trkpt><trkpt lat="43.5706219275386" lon="11.302092132377282"><ele>368.0</ele><time>2026-03-29T17:59:26Z</time></trkpt><trkpt lat="43.570583561454036" lon="11.30198912473431"><ele>366.66666666666663</ele><time>2026-03-29T17:59:27Z</time></trkpt><trkpt lat="43.57056929585244" lon="11.301841500373229"><ele>365.3333333333333</ele><time>2026-03-29T17:59:29Z</time></trkpt><trkpt lat="43.57062449197941" lon="11.301773970368043"><ele>364.0</ele><time>2026-03-29T17:59:30Z</time></trkpt><trkpt lat="43.57070036141755" lon="11.301724617033175"><ele>364.0</ele><time>2026-03-29T17:59:31Z</time></trkpt><trkpt lat="43.57079850153371" lon="11.301680911089907"><ele>364.0</ele><time>2026-03-29T17:59:32Z</time></trkpt><trkpt lat="43.570912359464586" lon="11.30162965489224"><ele>364.0</ele><time>2026-03-29T17:59:33Z</time></trkpt><trkpt lat="43.570986865177346" lon="11.301592602039344"><ele>364.0</ele><time>2026-03-29T17:59:34Z</time></trkpt><trkpt lat="43.57110887049423" lon="11.301498924980455"><ele>364.0</ele><time>2026-03-29T17:59:36Z</time></trkpt><trkpt lat="43.57118918821338" lon="11.301427429026578"><ele>361.79999999999995</ele><time>2026-03-29T17:59:37Z</time></trkpt><trkpt lat="43.571267000836016" lon="11.30135760220174"><ele>359.59999999999997</ele><time>2026-03-29T17:59:38Z</time></trkpt><trkpt lat="43.571339867878955" lon="11.301295600731335"><ele>357.4</ele><time>2026-03-29T17:59:39Z</time></trkpt><trkpt lat="43.571425309184974" lon="11.301228203002733"><ele>355.2</ele><time>2026-03-29T17:59:40Z</time></trkpt><trkpt lat="43.57151317307912" lon="11.301169101390517"><ele>353.0</ele><time>2026-03-29T17:59:41Z</time></trkpt><trkpt lat="43.57159412328467" lon="11.301103638112348"><ele>353.0</ele><time>2026-03-29T17:59:42Z</time></trkpt><trkpt lat="43.57168307913364" lon="11.3010463575016"><ele>353.0</ele><time>2026-03-29T17:59:43Z</time></trkpt><trkpt lat="43.57176162280124" lon="11.300997406493476"><ele>353.0</ele><time>2026-03-29T17:59:44Z</time></trkpt><trkpt lat="43.57183688162815" lon="11.300950098002213"><ele>353.0</ele><time>2026-03-29T17:59:45Z</time></trkpt><trkpt lat="43.57191194625902" lon="11.300909581601555"><ele>353.0</ele><time>2026-03-29T17:59:46Z</time></trkpt><trkpt lat="43.571974069910894" lon="11.30086745161933"><ele>353.0</ele><time>2026-03-29T17:59:47Z</time></trkpt><trkpt lat="43.572036272855804" lon="11.300821202590923"><ele>350.4</ele><time>2026-03-29T17:59:48Z</time></trkpt><trkpt lat="43.57208823171215" lon="11.30076744317061"><ele>347.79999999999995</ele><time>2026-03-29T17:59:49Z</time></trkpt><trkpt lat="43.57214662513076" lon="11.300643083667403"><ele>345.2</ele><time>2026-03-29T17:59:51Z</time></trkpt><trkpt lat="43.57222899939289" lon="11.300533325599226"><ele>342.6</ele><time>2026-03-29T17:59:53Z</time></trkpt><trkpt lat="43.57232693665155" lon="11.300429492753455"><ele>340.0</ele><time>2026-03-29T17:59:55Z</time></trkpt><trkpt lat="43.5723789620198" lon="11.30036445413595"><ele>339.3333333333333</ele><time>2026-03-29T17:59:56Z</time></trkpt><trkpt lat="43.57246486409357" lon="11.300245706568342"><ele>338.66666666666663</ele><time>2026-03-29T17:59:58Z</time></trkpt><trkpt lat="43.57249888979986" lon="11.300168756664172"><ele>338.0</ele><time>2026-03-29T17:59:59Z</time></trkpt><trkpt lat="43.57252965759942" lon="11.30006191414757"><ele>337.3333333333333</ele><time>2026-03-29T18:00:00Z</time></trkpt><trkpt lat="43.572563733117775" lon="11.299970080549626"><ele>336.6666666666667</ele><time>2026-03-29T18:00:01Z</time></trkpt><trkpt lat="43.572614284402945" lon="11.299861858486917"><ele>336.0</ele><time>2026-03-29T18:00:02Z</time></trkpt><trkpt lat="43.57267260662694" lon="11.299777587963161"><ele>334.3333333333333</ele><time>2026-03-29T18:00:03Z</time></trkpt><trkpt lat="43.572735502681425" lon="11.299716917902927"><ele>332.6666666666667</ele><time>2026-03-29T18:00:04Z</time></trkpt><trkpt lat="43.57280396414531" lon="11.299680415387458"><ele>331.0</ele><time>2026-03-29T18:00:05Z</time></trkpt><trkpt lat="43.572871635418856" lon="11.299686286988027"><ele>329.33333333333337</ele><time>2026-03-29T18:00:06Z</time></trkpt><trkpt lat="43.572936548230736" lon="11.2997149864899"><ele>327.6666666666667</ele><time>2026-03-29T18:00:07Z</time></trkpt><trkpt lat="43.57304552709857" lon="11.299724466796095"><ele>326.0</ele><time>2026-03-29T18:00:09Z</time></trkpt><trkpt lat="43.57315577901999" lon="11.29972262246987"><ele>324.33333333333337</ele><time>2026-03-29T18:00:10.999Z</time></trkpt><trkpt lat="43.573192692567986" lon="11.299859056693247"><ele>322.6666666666667</ele><time>2026-03-29T18:00:12.999Z</time></trkpt><trkpt lat="43.57318041038137" lon="11.299947857079905"><ele>321.0</ele><time>2026-03-29T18:00:13.999Z</time></trkpt><trkpt lat="43.57314706851173" lon="11.30004887644888"><ele>319.3333333333333</ele><time>2026-03-29T18:00:15.999Z</time></trkpt><trkpt lat="43.57321671201878" lon="11.300126692864135"><ele>317.66666666666663</ele><time>2026-03-29T18:00:17.999Z</time></trkpt><trkpt lat="43.573314286463834" lon="11.300120148881259"><ele>316.0</ele><time>2026-03-29T18:00:19.999Z</time></trkpt><trkpt lat="43.57342165192944" lon="11.300021907102748"><ele>316.0</ele><time>2026-03-29T18:00:21.999Z</time></trkpt><trkpt lat="43.57347713114232" lon="11.299972776700702"><ele>316.0</ele><time>2026-03-29T18:00:22.999Z</time></trkpt><trkpt lat="43.57354076869961" lon="11.299925884399551"><ele>316.0</ele><time>2026-03-29T18:00:23.999Z</time></trkpt><trkpt lat="43.573604399338016" lon="11.299887667192548"><ele>316.0</ele><time>2026-03-29T18:00:24.999Z</time></trkpt><trkpt lat="43.57370674966011" lon="11.299843575484966"><ele>316.0</ele><time>2026-03-29T18:00:26.999Z</time></trkpt><trkpt lat="43.573802535091055" lon="11.299851143031917"><ele>316.0</ele><time>2026-03-29T18:00:28.999Z</time></trkpt><trkpt lat="43.573876884001784" lon="11.299798845087606"><ele>315.3333333333333</ele><time>2026-03-29T18:00:30.999Z</time></trkpt><trkpt lat="43.57394194016203" lon="11.299775548828078"><ele>314.66666666666663</ele><time>2026-03-29T18:00:31.999Z</time></trkpt><trkpt lat="43.57401764211617" lon="11.299757298639607"><ele>314.0</ele><time>2026-03-29T18:00:32.999Z</time></trkpt><trkpt lat="43.574116332576" lon="11.299750555771615"><ele>313.3333333333333</ele><time>2026-03-29T18:00:33.999Z</time></trkpt><trkpt lat="43.57420238258097" lon="11.299742624492819"><ele>312.6666666666667</ele><time>2026-03-29T18:00:34.999Z</time></trkpt><trkpt lat="43.574277482738886" lon="11.299734073926713"><ele>312.0</ele><time>2026-03-29T18:00:35.999Z</time></trkpt><trkpt lat="43.57434745629762" lon="11.299737527121328"><ele>312.4</ele><time>2026-03-29T18:00:36.999Z</time></trkpt><trkpt lat="43.57443465750084" lon="11.299778002441407"><ele>312.79999999999995</ele><time>2026-03-29T18:00:37.999Z</time></trkpt><trkpt lat="43.57452933054802" lon="11.299816467770187"><ele>313.2</ele><time>2026-03-29T18:00:38.999Z</time></trkpt><trkpt lat="43.57463142347691" lon="11.299856413501928"><ele>313.59999999999997</ele><time>2026-03-29T18:00:39.999Z</time></trkpt><trkpt lat="43.57473872569867" lon="11.299908068186769"><ele>314.0</ele><time>2026-03-29T18:00:40.999Z</time></trkpt><trkpt lat="43.574829054889506" lon="11.299949683812487"><ele>314.0</ele><time>2026-03-29T18:00:41.999Z</time></trkpt><trkpt lat="43.5749205029092" lon="11.299988765028305"><ele>314.0</ele><time>2026-03-29T18:00:42.999Z</time></trkpt><trkpt lat="43.57500648071974" lon="11.300052863766672"><ele>314.0</ele><time>2026-03-29T18:00:43.999Z</time></trkpt><trkpt lat="43.575089768339076" lon="11.300109840887458"><ele>314.0</ele><time>2026-03-29T18:00:44.999Z</time></trkpt><trkpt lat="43.57517210793437" lon="11.300166548488734"><ele>314.0</ele><time>2026-03-29T18:00:45.999Z</time></trkpt><trkpt lat="43.57525048192051" lon="11.300212106990484"><ele>314.0</ele><time>2026-03-29T18:00:46.999Z</time></trkpt><trkpt lat="43.57532113023905" lon="11.300240493016942"><ele>314.0</ele><time>2026-03-29T18:00:47.999Z</time></trkpt><trkpt lat="43.575417184822875" lon="11.300259985757183"><ele>314.0</ele><time>2026-03-29T18:00:49.999Z</time></trkpt><trkpt lat="43.575518881807064" lon="11.300263027839147"><ele>314.0</ele><time>2026-03-29T18:00:51.999Z</time></trkpt><trkpt lat="43.57559761554111" lon="11.300282646813617"><ele>314.0</ele><time>2026-03-29T18:00:52.999Z</time></trkpt><trkpt lat="43.575699721498474" lon="11.300262174277567"><ele>313.8</ele><time>2026-03-29T18:00:53.999Z</time></trkpt><trkpt lat="43.57578936493427" lon="11.300203011922607"><ele>313.59999999999997</ele><time>2026-03-29T18:00:54.999Z</time></trkpt><trkpt lat="43.57587575932647" lon="11.300142683734942"><ele>313.4</ele><time>2026-03-29T18:00:55.999Z</time></trkpt><trkpt lat="43.57595826691619" lon="11.300085086706716"><ele>313.2</ele><time>2026-03-29T18:00:56.999Z</time></trkpt><trkpt lat="43.57604698898994" lon="11.300052061342427"><ele>313.0</ele><time>2026-03-29T18:00:57.999Z</time></trkpt><trkpt lat="43.57613490451009" lon="11.299997297976681"><ele>312.8333333333333</ele><time>2026-03-29T18:00:58.999Z</time></trkpt><trkpt lat="43.5761901953584" lon="11.299941370315882"><ele>312.66666666666663</ele><time>2026-03-29T18:00:59.999Z</time></trkpt><trkpt lat="43.57626836823163" lon="11.299901429446118"><ele>312.5</ele><time>2026-03-29T18:01:00.999Z</time></trkpt><trkpt lat="43.576350767708526" lon="11.299863611650114"><ele>312.3333333333333</ele><time>2026-03-29T18:01:01.999Z</time></trkpt><trkpt lat="43.576423505701015" lon="11.299836416166066"><ele>312.1666666666667</ele><time>2026-03-29T18:01:02.999Z</time></trkpt><trkpt lat="43.57648750390932" lon="11.299854454842738"><ele>312.0</ele><time>2026-03-29T18:01:03.999Z</time></trkpt><trkpt lat="43.576556408054266" lon="11.299999121336587"><ele>312.0</ele><time>2026-03-29T18:01:05.999Z</time></trkpt><trkpt lat="43.5766103094075" lon="11.300103485361793"><ele>312.0</ele><time>2026-03-29T18:01:06.999Z</time></trkpt><trkpt lat="43.57666114111852" lon="11.300199544620988"><ele>312.0</ele><time>2026-03-29T18:01:07.999Z</time></trkpt><trkpt lat="43.57671845213033" lon="11.300304125963992"><ele>312.0</ele><time>2026-03-29T18:01:08.999Z</time></trkpt><trkpt lat="43.57677378646978" lon="11.300405100321544"><ele>312.0</ele><time>2026-03-29T18:01:09.999Z</time></trkpt><trkpt lat="43.576827810621204" lon="11.300504787757543"><ele>311.0</ele><time>2026-03-29T18:01:10.999Z</time></trkpt><trkpt lat="43.57688425562991" lon="11.300610622862772"><ele>310.0</ele><time>2026-03-29T18:01:11.999Z</time></trkpt><trkpt lat="43.57693177911784" lon="11.300693026605506"><ele>309.0</ele><time>2026-03-29T18:01:12.999Z</time></trkpt><trkpt lat="43.576975870130035" lon="11.300759196703224"><ele>308.0</ele><time>2026-03-29T18:01:13.999Z</time></trkpt><trkpt lat="43.57703408519374" lon="11.300835606553132"><ele>307.0</ele><time>2026-03-29T18:01:14.999Z</time></trkpt><trkpt lat="43.57711702327899" lon="11.300927679060715"><ele>306.0</ele><time>2026-03-29T18:01:15.999Z</time></trkpt><trkpt lat="43.57719332429347" lon="11.301009342515037"><ele>309.3333333333333</ele><time>2026-03-29T18:01:16.999Z</time></trkpt><trkpt lat="43.577261374186165" lon="11.301079499789186"><ele>312.6666666666667</ele><time>2026-03-29T18:01:17.999Z</time></trkpt><trkpt lat="43.577325946923295" lon="11.301140410863075"><ele>316.0</ele><time>2026-03-29T18:01:18.999Z</time></trkpt><trkpt lat="43.57740227003753" lon="11.30120607206555"><ele>319.33333333333337</ele><time>2026-03-29T18:01:19.999Z</time></trkpt><trkpt lat="43.577486219473435" lon="11.301250404424902"><ele>322.6666666666667</ele><time>2026-03-29T18:01:20.999Z</time></trkpt><trkpt lat="43.577565123216054" lon="11.301293825765669"><ele>326.0</ele><time>2026-03-29T18:01:21.999Z</time></trkpt><trkpt lat="43.577661323559596" lon="11.301327019578208"><ele>326.0</ele><time>2026-03-29T18:01:22.999Z</time></trkpt><trkpt lat="43.57774850575221" lon="11.301366223812996"><ele>326.0</ele><time>2026-03-29T18:01:23.999Z</time></trkpt><trkpt lat="43.57784126681234" lon="11.301376361410309"><ele>326.0</ele><time>2026-03-29T18:01:24.999Z</time></trkpt><trkpt lat="43.577948271715286" lon="11.301351014985302"><ele>326.0</ele><time>2026-03-29T18:01:26Z</time></trkpt><trkpt lat="43.578071500031214" lon="11.301341770856139"><ele>326.0</ele><time>2026-03-29T18:01:27Z</time></trkpt><trkpt lat="43.57819745424791" lon="11.301335125558026"><ele>328.0</ele><time>2026-03-29T18:01:28Z</time></trkpt><trkpt lat="43.57833532836062" lon="11.3013404313279"><ele>330.0</ele><time>2026-03-29T18:01:29Z</time></trkpt><trkpt lat="43.578466053809436" lon="11.301358708828364"><ele>332.0</ele><time>2026-03-29T18:01:30Z</time></trkpt><trkpt lat="43.57858409614648" lon="11.301380344202535"><ele>334.0</ele><time>2026-03-29T18:01:31Z</time></trkpt><trkpt lat="43.57868520708561" lon="11.301387040545766"><ele>332.4</ele><time>2026-03-29T18:01:32Z</time></trkpt><trkpt lat="43.57879417752364" lon="11.30142303212511"><ele>330.79999999999995</ele><time>2026-03-29T18:01:33Z</time></trkpt><trkpt lat="43.57890639227163" lon="11.301444313041785"><ele>329.20000000000005</ele><time>2026-03-29T18:01:34Z</time></trkpt><trkpt lat="43.579015984630296" lon="11.301470717117237"><ele>327.6</ele><time>2026-03-29T18:01:35Z</time></trkpt><trkpt lat="43.579124005854986" lon="11.30150033920663"><ele>326.0</ele><time>2026-03-29T18:01:36Z</time></trkpt><trkpt lat="43.57922618419033" lon="11.30153160088817"><ele>326.0</ele><time>2026-03-29T18:01:37Z</time></trkpt><trkpt lat="43.57931078488709" lon="11.30157503123523"><ele>326.0</ele><time>2026-03-29T18:01:38Z</time></trkpt><trkpt lat="43.579395314859326" lon="11.301626677366825"><ele>326.0</ele><time>2026-03-29T18:01:39Z</time></trkpt><trkpt lat="43.579473812163265" lon="11.301694754312011"><ele>326.0</ele><time>2026-03-29T18:01:40Z</time></trkpt><trkpt lat="43.57954517798562" lon="11.301729182599294"><ele>326.0</ele><time>2026-03-29T18:01:41Z</time></trkpt><trkpt lat="43.57962304298654" lon="11.301747307784245"><ele>326.0</ele><time>2026-03-29T18:01:42Z</time></trkpt><trkpt lat="43.57971241208959" lon="11.301716116702123"><ele>327.0</ele><time>2026-03-29T18:01:43Z</time></trkpt><trkpt lat="43.57981036298051" lon="11.30169389629052"><ele>328.0</ele><time>2026-03-29T18:01:44Z</time></trkpt><trkpt lat="43.57989543470513" lon="11.301704810404338"><ele>329.0</ele><time>2026-03-29T18:01:45Z</time></trkpt><trkpt lat="43.579978043612414" lon="11.30171747503519"><ele>330.0</ele><time>2026-03-29T18:01:46Z</time></trkpt><trkpt lat="43.58006006307821" lon="11.301737913831174"><ele>331.0</ele><time>2026-03-29T18:01:47Z</time></trkpt><trkpt lat="43.58014019457818" lon="11.301764581691458"><ele>332.0</ele><time>2026-03-29T18:01:48Z</time></trkpt><trkpt lat="43.58021099871377" lon="11.301785532378327"><ele>332.0</ele><time>2026-03-29T18:01:49Z</time></trkpt><trkpt lat="43.58028870968321" lon="11.301805889994803"><ele>332.0</ele><time>2026-03-29T18:01:50Z</time></trkpt><trkpt lat="43.58035514358083" lon="11.301823293415021"><ele>332.0</ele><time>2026-03-29T18:01:51Z</time></trkpt><trkpt lat="43.58046126378186" lon="11.301845175379336"><ele>332.0</ele><time>2026-03-29T18:01:53Z</time></trkpt><trkpt lat="43.58053326059559" lon="11.301853901997614"><ele>332.0</ele><time>2026-03-29T18:01:57Z</time></trkpt><trkpt lat="43.580594530995256" lon="11.301798074956569"><ele>332.0</ele><time>2026-03-29T18:01:58Z</time></trkpt><trkpt lat="43.5807072726837" lon="11.301762338573026"><ele>333.0</ele><time>2026-03-29T18:02:00Z</time></trkpt><trkpt lat="43.58080584819617" lon="11.301761212372666"><ele>334.0</ele><time>2026-03-29T18:02:03Z</time></trkpt><trkpt lat="43.580885639288475" lon="11.301747977654378"><ele>335.0</ele><time>2026-03-29T18:02:05Z</time></trkpt><trkpt lat="43.58097278817086" lon="11.301550233423752"><ele>336.0</ele><time>2026-03-29T18:02:07Z</time></trkpt><trkpt lat="43.58103623041135" lon="11.301522065446072"><ele>337.0</ele><time>2026-03-29T18:02:08Z</time></trkpt><trkpt lat="43.58109318190316" lon="11.301477948472801"><ele>337.0</ele><time>2026-03-29T18:02:08.999Z</time></trkpt><trkpt lat="43.58115261634768" lon="11.301443392790276"><ele>337.0</ele><time>2026-03-29T18:02:09.999Z</time></trkpt><trkpt lat="43.58121303702961" lon="11.301409171780634"><ele>337.0</ele><time>2026-03-29T18:02:10.999Z</time></trkpt><trkpt lat="43.58130620202438" lon="11.30134669069361"><ele>337.0</ele><time>2026-03-29T18:02:12.999Z</time></trkpt><trkpt lat="43.58136927851709" lon="11.301293870678668"><ele>337.0</ele><time>2026-03-29T18:02:13.999Z</time></trkpt><trkpt lat="43.58142571907439" lon="11.301253906688311"><ele>337.0</ele><time>2026-03-29T18:02:14.999Z</time></trkpt><trkpt lat="43.58153946580954" lon="11.301179945221461"><ele>334.0</ele><time>2026-03-29T18:02:16.999Z</time></trkpt><trkpt lat="43.581649643316304" lon="11.301110595113373"><ele>331.0</ele><time>2026-03-29T18:02:18.999Z</time></trkpt><trkpt lat="43.581751734548554" lon="11.301055437225516"><ele>328.0</ele><time>2026-03-29T18:02:20.999Z</time></trkpt><trkpt lat="43.581852286385164" lon="11.300999363182829"><ele>325.0</ele><time>2026-03-29T18:02:22.999Z</time></trkpt><trkpt lat="43.58194183553047" lon="11.300953511300545"><ele>322.0</ele><time>2026-03-29T18:02:24.999Z</time></trkpt><trkpt lat="43.58204661958363" lon="11.300883527857003"><ele>319.66666666666663</ele><time>2026-03-29T18:02:26.999Z</time></trkpt><trkpt lat="43.58211418179831" lon="11.30083758404643"><ele>317.3333333333333</ele><time>2026-03-29T18:02:27.999Z</time></trkpt><trkpt lat="43.58218853136255" lon="11.30080933666967"><ele>315.0</ele><time>2026-03-29T18:02:28.999Z</time></trkpt><trkpt lat="43.58225685267158" lon="11.30079732118549"><ele>312.6666666666667</ele><time>2026-03-29T18:02:29.999Z</time></trkpt><trkpt lat="43.58238113993111" lon="11.300791242237713"><ele>310.33333333333337</ele><time>2026-03-29T18:02:31.999Z</time></trkpt><trkpt lat="43.5824451709755" lon="11.300801302091035"><ele>308.0</ele><time>2026-03-29T18:02:32.999Z</time></trkpt><trkpt lat="43.58251297588178" lon="11.300809042175247"><ele>308.0</ele><time>2026-03-29T18:02:33.999Z</time></trkpt><trkpt lat="43.58261530826941" lon="11.30081841157705"><ele>308.0</ele><time>2026-03-29T18:02:35.999Z</time></trkpt><trkpt lat="43.58271292500628" lon="11.30080921188604"><ele>308.0</ele><time>2026-03-29T18:02:37.999Z</time></trkpt><trkpt lat="43.5828179641834" lon="11.300731565025886"><ele>308.0</ele><time>2026-03-29T18:02:39.999Z</time></trkpt><trkpt lat="43.582875175370305" lon="11.300671548393858"><ele>308.0</ele><time>2026-03-29T18:02:40.999Z</time></trkpt><trkpt lat="43.58296913727243" lon="11.300674126730193"><ele>309.2</ele><time>2026-03-29T18:02:41.999Z</time></trkpt><trkpt lat="43.583043004317894" lon="11.300621835744352"><ele>310.4</ele><time>2026-03-29T18:02:42.999Z</time></trkpt><trkpt lat="43.58313936278437" lon="11.300582701978062"><ele>311.59999999999997</ele><time>2026-03-29T18:02:43.999Z</time></trkpt><trkpt lat="43.583244357760385" lon="11.300523879806416"><ele>312.8</ele><time>2026-03-29T18:02:44.999Z</time></trkpt><trkpt lat="43.583352904825524" lon="11.300481184358711"><ele>314.0</ele><time>2026-03-29T18:02:45.999Z</time></trkpt><trkpt lat="43.583476496720934" lon="11.300445392351083"><ele>314.0</ele><time>2026-03-29T18:02:46.999Z</time></trkpt><trkpt lat="43.583583840316074" lon="11.300406203496902"><ele>314.0</ele><time>2026-03-29T18:02:47.999Z</time></trkpt><trkpt lat="43.58368892257185" lon="11.300369132087255"><ele>314.0</ele><time>2026-03-29T18:02:48.999Z</time></trkpt><trkpt lat="43.58380698922653" lon="11.300346955467685"><ele>314.0</ele><time>2026-03-29T18:02:49.999Z</time></trkpt><trkpt lat="43.58393415110838" lon="11.300301266018348"><ele>317.25</ele><time>2026-03-29T18:02:50.999Z</time></trkpt><trkpt lat="43.58404365449832" lon="11.300239144631265"><ele>320.5</ele><time>2026-03-29T18:02:51.999Z</time></trkpt><trkpt lat="43.58414708681909" lon="11.300198328539489"><ele>323.75</ele><time>2026-03-29T18:02:52.999Z</time></trkpt><trkpt lat="43.58425529570621" lon="11.300158232478964"><ele>327.0</ele><time>2026-03-29T18:02:53.999Z</time></trkpt><trkpt lat="43.58436792790113" lon="11.30011622953509"><ele>327.0</ele><time>2026-03-29T18:02:54.999Z</time></trkpt><trkpt lat="43.58448512485413" lon="11.300073364394766"><ele>327.0</ele><time>2026-03-29T18:02:55.999Z</time></trkpt><trkpt lat="43.58460578600887" lon="11.30003046425049"><ele>327.0</ele><time>2026-03-29T18:02:56.999Z</time></trkpt><trkpt lat="43.58472105696215" lon="11.299989473258844"><ele>327.0</ele><time>2026-03-29T18:02:57.999Z</time></trkpt><trkpt lat="43.58482271990268" lon="11.299956653432945"><ele>328.6666666666667</ele><time>2026-03-29T18:02:58.999Z</time></trkpt><trkpt lat="43.58491269262897" lon="11.299928200092163"><ele>330.3333333333333</ele><time>2026-03-29T18:02:59.999Z</time></trkpt><trkpt lat="43.58500955052195" lon="11.299891772843829"><ele>332.0</ele><time>2026-03-29T18:03:00.999Z</time></trkpt><trkpt lat="43.585093345685685" lon="11.29986179052176"><ele>333.66666666666663</ele><time>2026-03-29T18:03:01.999Z</time></trkpt><trkpt lat="43.585158438761" lon="11.299856670772678"><ele>335.3333333333333</ele><time>2026-03-29T18:03:02.999Z</time></trkpt><trkpt lat="43.58523615904458" lon="11.299849493172788"><ele>337.0</ele><time>2026-03-29T18:03:04.999Z</time></trkpt><trkpt lat="43.585339705543866" lon="11.300093735669568"><ele>337.0</ele><time>2026-03-29T18:03:06.999Z</time></trkpt><trkpt lat="43.58533947766114" lon="11.300240111885758"><ele>337.0</ele><time>2026-03-29T18:03:07.999Z</time></trkpt><trkpt lat="43.58533927148771" lon="11.300372545350454"><ele>337.0</ele><time>2026-03-29T18:03:08.999Z</time></trkpt><trkpt lat="43.585339074741896" lon="11.300498924570665"><ele>337.0</ele><time>2026-03-29T18:03:09.999Z</time></trkpt><trkpt lat="43.58533863594197" lon="11.300643163010951"><ele>337.0</ele><time>2026-03-29T18:03:10.999Z</time></trkpt><trkpt lat="43.585337534983935" lon="11.300776819576992"><ele>337.16666666666663</ele><time>2026-03-29T18:03:11.999Z</time></trkpt><trkpt lat="43.58532020227287" lon="11.300884681724588"><ele>337.3333333333333</ele><time>2026-03-29T18:03:12.999Z</time></trkpt><trkpt lat="43.5853500666803" lon="11.300989389719433"><ele>337.5</ele><time>2026-03-29T18:03:13.999Z</time></trkpt><trkpt lat="43.58537826575321" lon="11.301097277718702"><ele>337.6666666666667</ele><time>2026-03-29T18:03:14.999Z</time></trkpt><trkpt lat="43.585417131272095" lon="11.30119185190521"><ele>337.83333333333337</ele><time>2026-03-29T18:03:15.999Z</time></trkpt><trkpt lat="43.58546996557528" lon="11.301279266704933"><ele>338.0</ele><time>2026-03-29T18:03:16.999Z</time></trkpt><trkpt lat="43.58551999832599" lon="11.301357899085206"><ele>338.5</ele><time>2026-03-29T18:03:17.999Z</time></trkpt><trkpt lat="43.5855645481021" lon="11.301434856120292"><ele>339.0</ele><time>2026-03-29T18:03:18.999Z</time></trkpt><trkpt lat="43.585604727539966" lon="11.301519256946612"><ele>339.5</ele><time>2026-03-29T18:03:19.999Z</time></trkpt><trkpt lat="43.585633669692115" lon="11.301604727915528"><ele>340.0</ele><time>2026-03-29T18:03:20.999Z</time></trkpt><trkpt lat="43.585649170615746" lon="11.301709320312911"><ele>340.5</ele><time>2026-03-29T18:03:21.999Z</time></trkpt><trkpt lat="43.58565841445002" lon="11.301821963473788"><ele>341.0</ele><time>2026-03-29T18:03:22.999Z</time></trkpt><trkpt lat="43.58566812744334" lon="11.301940875002526"><ele>341.0</ele><time>2026-03-29T18:03:23.999Z</time></trkpt><trkpt lat="43.58567702252029" lon="11.30206109855079"><ele>341.0</ele><time>2026-03-29T18:03:24.999Z</time></trkpt><trkpt lat="43.58568473317117" lon="11.302176838518859"><ele>341.0</ele><time>2026-03-29T18:03:25.999Z</time></trkpt><trkpt lat="43.58570314111636" lon="11.302292145889671"><ele>341.0</ele><time>2026-03-29T18:03:26.999Z</time></trkpt><trkpt lat="43.58573685729072" lon="11.302400980467787"><ele>341.0</ele><time>2026-03-29T18:03:27.999Z</time></trkpt><trkpt lat="43.585786507368006" lon="11.302505389794636"><ele>341.0</ele><time>2026-03-29T18:03:28.999Z</time></trkpt><trkpt lat="43.585840240414946" lon="11.302593487175006"><ele>341.0</ele><time>2026-03-29T18:03:29.999Z</time></trkpt><trkpt lat="43.585895461217724" lon="11.302678280406784"><ele>341.0</ele><time>2026-03-29T18:03:31Z</time></trkpt><trkpt lat="43.58595771167308" lon="11.302770727325857"><ele>341.0</ele><time>2026-03-29T18:03:32Z</time></trkpt><trkpt lat="43.58602535509356" lon="11.302867603699683"><ele>341.0</ele><time>2026-03-29T18:03:33Z</time></trkpt><trkpt lat="43.58610425560871" lon="11.302978381078718"><ele>341.0</ele><time>2026-03-29T18:03:34Z</time></trkpt><trkpt lat="43.586186738131744" lon="11.303089312426675"><ele>339.0</ele><time>2026-03-29T18:03:35Z</time></trkpt><trkpt lat="43.58626794857891" lon="11.303168424545417"><ele>337.0</ele><time>2026-03-29T18:03:36Z</time></trkpt><trkpt lat="43.586330405596016" lon="11.303277806140773"><ele>335.0</ele><time>2026-03-29T18:03:37Z</time></trkpt><trkpt lat="43.5864157060068" lon="11.303364924044095"><ele>333.0</ele><time>2026-03-29T18:03:38Z</time></trkpt><trkpt lat="43.58651941356066" lon="11.303435922137279"><ele>331.0</ele><time>2026-03-29T18:03:39Z</time></trkpt><trkpt lat="43.586601513067244" lon="11.30349769590318"><ele>331.0</ele><time>2026-03-29T18:03:40Z</time></trkpt><trkpt lat="43.58667682662702" lon="11.303555082514718"><ele>331.0</ele><time>2026-03-29T18:03:41Z</time></trkpt><trkpt lat="43.58674340078253" lon="11.303608872998772"><ele>331.0</ele><time>2026-03-29T18:03:42Z</time></trkpt><trkpt lat="43.58679731523454" lon="11.303655210955883"><ele>331.0</ele><time>2026-03-29T18:03:43Z</time></trkpt><trkpt lat="43.586881695066786" lon="11.30374357303802"><ele>331.0</ele><time>2026-03-29T18:03:45Z</time></trkpt><trkpt lat="43.586962805209694" lon="11.303894967827446"><ele>329.6</ele><time>2026-03-29T18:03:47Z</time></trkpt><trkpt lat="43.586990561656194" lon="11.303973329468354"><ele>328.20000000000005</ele><time>2026-03-29T18:03:48Z</time></trkpt><trkpt lat="43.58702660251627" lon="11.304106493163452"><ele>326.79999999999995</ele><time>2026-03-29T18:03:50Z</time></trkpt><trkpt lat="43.58699704256436" lon="11.304261398174162"><ele>325.4</ele><time>2026-03-29T18:03:52Z</time></trkpt><trkpt lat="43.58696327519635" lon="11.304415042884463"><ele>324.0</ele><time>2026-03-29T18:03:54Z</time></trkpt><trkpt lat="43.58696152437701" lon="11.304545001680712"><ele>324.0</ele><time>2026-03-29T18:03:56Z</time></trkpt><trkpt lat="43.58692946140465" lon="11.304641139166002"><ele>324.0</ele><time>2026-03-29T18:03:58Z</time></trkpt><trkpt lat="43.58690161108185" lon="11.304754655978568"><ele>324.0</ele><time>2026-03-29T18:04:00Z</time></trkpt><trkpt lat="43.58689994928546" lon="11.304905240324757"><ele>324.0</ele><time>2026-03-29T18:04:02Z</time></trkpt><trkpt lat="43.586881599450315" lon="11.304998012446696"><ele>324.0</ele><time>2026-03-29T18:04:03Z</time></trkpt><trkpt lat="43.58685750931868" lon="11.305097923899957"><ele>324.0</ele><time>2026-03-29T18:04:04Z</time></trkpt><trkpt lat="43.58683639310855" lon="11.3052080667871"><ele>323.0</ele><time>2026-03-29T18:04:05Z</time></trkpt><trkpt lat="43.586808153869626" lon="11.305339329337516"><ele>322.0</ele><time>2026-03-29T18:04:06Z</time></trkpt><trkpt lat="43.5867862008947" lon="11.30548282920411"><ele>321.0</ele><time>2026-03-29T18:04:07Z</time></trkpt><trkpt lat="43.58676778953415" lon="11.305603178191092"><ele>320.0</ele><time>2026-03-29T18:04:08Z</time></trkpt><trkpt lat="43.5867459684785" lon="11.305747481125588"><ele>319.0</ele><time>2026-03-29T18:04:09Z</time></trkpt><trkpt lat="43.586724920324215" lon="11.305892045873469"><ele>317.25</ele><time>2026-03-29T18:04:10Z</time></trkpt><trkpt lat="43.58670317412706" lon="11.306041404409166"><ele>315.5</ele><time>2026-03-29T18:04:11Z</time></trkpt><trkpt lat="43.58668088462692" lon="11.306194494584377"><ele>313.75</ele><time>2026-03-29T18:04:12Z</time></trkpt><trkpt lat="43.5866584201221" lon="11.306348787159187"><ele>312.0</ele><time>2026-03-29T18:04:13Z</time></trkpt><trkpt lat="43.5866328615621" lon="11.306520327765154"><ele>310.5</ele><time>2026-03-29T18:04:13.999Z</time></trkpt><trkpt lat="43.58660634600104" lon="11.306692171420023"><ele>309.0</ele><time>2026-03-29T18:04:14.999Z</time></trkpt><trkpt lat="43.58658510153381" lon="11.30687213059272"><ele>307.5</ele><time>2026-03-29T18:04:15.999Z</time></trkpt><trkpt lat="43.586583348180525" lon="11.307050518015197"><ele>306.0</ele><time>2026-03-29T18:04:16.999Z</time></trkpt><trkpt lat="43.586597993322" lon="11.307217288444837"><ele>304.40000000000003</ele><time>2026-03-29T18:04:17.999Z</time></trkpt><trkpt lat="43.58661792939122" lon="11.30736934659233"><ele>302.8</ele><time>2026-03-29T18:04:18.999Z</time></trkpt><trkpt lat="43.58663331645804" lon="11.307503561783689"><ele>301.20000000000005</ele><time>2026-03-29T18:04:19.999Z</time></trkpt><trkpt lat="43.58665070647897" lon="11.307658639681764"><ele>299.6</ele><time>2026-03-29T18:04:20.999Z</time></trkpt><trkpt lat="43.58666873570311" lon="11.307819943803597"><ele>298.0</ele><time>2026-03-29T18:04:21.999Z</time></trkpt><trkpt lat="43.586685146708675" lon="11.307967004395042"><ele>296.5</ele><time>2026-03-29T18:04:22.999Z</time></trkpt><trkpt lat="43.586700759701124" lon="11.308106879245424"><ele>295.0</ele><time>2026-03-29T18:04:23.999Z</time></trkpt><trkpt lat="43.586713430874504" lon="11.30821936696185"><ele>293.5</ele><time>2026-03-29T18:04:24.999Z</time></trkpt><trkpt lat="43.586723344053574" lon="11.308307370806965"><ele>292.0</ele><time>2026-03-29T18:04:25.999Z</time></trkpt><trkpt lat="43.58673904340203" lon="11.308446740898404"><ele>290.5</ele><time>2026-03-29T18:04:27.999Z</time></trkpt><trkpt lat="43.58674993895827" lon="11.308544777083123"><ele>289.0</ele><time>2026-03-29T18:04:29.999Z</time></trkpt><trkpt lat="43.58677502941611" lon="11.308771257179261"><ele>286.5</ele><time>2026-03-29T18:04:31.999Z</time></trkpt><trkpt lat="43.58679387718135" lon="11.308941387236635"><ele>284.0</ele><time>2026-03-29T18:04:32.999Z</time></trkpt><trkpt lat="43.586814237303145" lon="11.30912516870157"><ele>281.5</ele><time>2026-03-29T18:04:33.999Z</time></trkpt><trkpt lat="43.58683187295863" lon="11.309284357700278"><ele>279.0</ele><time>2026-03-29T18:04:34.999Z</time></trkpt><trkpt lat="43.58685018715694" lon="11.309435737556287"><ele>279.0</ele><time>2026-03-29T18:04:35.999Z</time></trkpt><trkpt lat="43.586866365571325" lon="11.309566567518544"><ele>279.0</ele><time>2026-03-29T18:04:36.999Z</time></trkpt><trkpt lat="43.58688132325811" lon="11.309687525951233"><ele>279.0</ele><time>2026-03-29T18:04:37.999Z</time></trkpt><trkpt lat="43.58689413324026" lon="11.309798009103071"><ele>279.0</ele><time>2026-03-29T18:04:38.999Z</time></trkpt><trkpt lat="43.58690689256653" lon="11.309910783141778"><ele>279.0</ele><time>2026-03-29T18:04:39.999Z</time></trkpt><trkpt lat="43.586915826233955" lon="11.310015877804974"><ele>279.0</ele><time>2026-03-29T18:04:40.999Z</time></trkpt><trkpt lat="43.58691774967822" lon="11.310124003454408"><ele>277.6666666666667</ele><time>2026-03-29T18:04:41.999Z</time></trkpt><trkpt lat="43.586899449043564" lon="11.310230128609028"><ele>276.3333333333333</ele><time>2026-03-29T18:04:42.999Z</time></trkpt><trkpt lat="43.58686050538296" lon="11.310333557259899"><ele>275.0</ele><time>2026-03-29T18:04:43.999Z</time></trkpt><trkpt lat="43.58682394895806" lon="11.310436963029598"><ele>273.66666666666663</ele><time>2026-03-29T18:04:44.999Z</time></trkpt><trkpt lat="43.58678727927821" lon="11.310536285363241"><ele>272.3333333333333</ele><time>2026-03-29T18:04:45.999Z</time></trkpt><trkpt lat="43.58674960142498" lon="11.310636298500931"><ele>271.0</ele><time>2026-03-29T18:04:46.999Z</time></trkpt><trkpt lat="43.58670750507402" lon="11.31073349024972"><ele>269.66666666666663</ele><time>2026-03-29T18:04:47.999Z</time></trkpt><trkpt lat="43.58666478393165" lon="11.310816792304204"><ele>268.3333333333333</ele><time>2026-03-29T18:04:48.999Z</time></trkpt><trkpt lat="43.58662360591705" lon="11.310895759293569"><ele>267.0</ele><time>2026-03-29T18:04:49.999Z</time></trkpt><trkpt lat="43.586550695476056" lon="11.31090431444281"><ele>265.6666666666667</ele><time>2026-03-29T18:04:50.999Z</time></trkpt><trkpt lat="43.586482034031256" lon="11.310930181041208"><ele>264.33333333333337</ele><time>2026-03-29T18:04:51.999Z</time></trkpt><trkpt lat="43.58638426426261" lon="11.311022797557465"><ele>263.0</ele><time>2026-03-29T18:04:53.999Z</time></trkpt><trkpt lat="43.5863767602548" lon="11.31113662025578"><ele>263.0</ele><time>2026-03-29T18:04:54.999Z</time></trkpt><trkpt lat="43.58640998908718" lon="11.311240811884987"><ele>263.0</ele><time>2026-03-29T18:04:55.999Z</time></trkpt><trkpt lat="43.58644515149255" lon="11.311359258323444"><ele>263.0</ele><time>2026-03-29T18:04:56.999Z</time></trkpt><trkpt lat="43.58647562806612" lon="11.311470935691714"><ele>263.0</ele><time>2026-03-29T18:04:57.999Z</time></trkpt><trkpt lat="43.5865032043265" lon="11.311567472027127"><ele>263.0</ele><time>2026-03-29T18:04:58.999Z</time></trkpt><trkpt lat="43.58653397671162" lon="11.31166062047974"><ele>263.0</ele><time>2026-03-29T18:04:59.999Z</time></trkpt><trkpt lat="43.58656696219514" lon="11.311744642080697"><ele>261.33333333333337</ele><time>2026-03-29T18:05:00.999Z</time></trkpt><trkpt lat="43.586610422589445" lon="11.311825471965548"><ele>259.6666666666667</ele><time>2026-03-29T18:05:01.999Z</time></trkpt><trkpt lat="43.58667913593715" lon="11.311897623924837"><ele>258.0</ele><time>2026-03-29T18:05:02.999Z</time></trkpt><trkpt lat="43.58675862220144" lon="11.311943626707032"><ele>256.3333333333333</ele><time>2026-03-29T18:05:03.999Z</time></trkpt><trkpt lat="43.586857312325755" lon="11.311980289705165"><ele>254.66666666666666</ele><time>2026-03-29T18:05:04.999Z</time></trkpt><trkpt lat="43.586943153339135" lon="11.312017516674242"><ele>253.0</ele><time>2026-03-29T18:05:05.999Z</time></trkpt><trkpt lat="43.58701878964181" lon="11.312052740621713"><ele>252.49999999999997</ele><time>2026-03-29T18:05:06.999Z</time></trkpt><trkpt lat="43.58709147020979" lon="11.312092226726216"><ele>252.0</ele><time>2026-03-29T18:05:07.999Z</time></trkpt><trkpt lat="43.58716459519743" lon="11.312134426746265"><ele>251.5</ele><time>2026-03-29T18:05:08.999Z</time></trkpt><trkpt lat="43.587230649317306" lon="11.312182910206772"><ele>251.0</ele><time>2026-03-29T18:05:09.999Z</time></trkpt><trkpt lat="43.58728357441834" lon="11.312250205293955"><ele>250.49999999999997</ele><time>2026-03-29T18:05:10.999Z</time></trkpt><trkpt lat="43.587350655839806" lon="11.312304569046978"><ele>250.0</ele><time>2026-03-29T18:05:11.999Z</time></trkpt><trkpt lat="43.58741627445795" lon="11.312342531640311"><ele>248.33333333333331</ele><time>2026-03-29T18:05:12.999Z</time></trkpt><trkpt lat="43.587477389202384" lon="11.31238214216432"><ele>246.66666666666666</ele><time>2026-03-29T18:05:13.999Z</time></trkpt><trkpt lat="43.58758081033771" lon="11.312454319607948"><ele>245.0</ele><time>2026-03-29T18:05:15.999Z</time></trkpt><trkpt lat="43.587647116972164" lon="11.312542530363467"><ele>243.33333333333331</ele><time>2026-03-29T18:05:17.999Z</time></trkpt><trkpt lat="43.58762958489642" lon="11.3126698102743"><ele>241.66666666666666</ele><time>2026-03-29T18:05:19.999Z</time></trkpt><trkpt lat="43.58756795649791" lon="11.312710047929922"><ele>240.0</ele><time>2026-03-29T18:05:20.999Z</time></trkpt><trkpt lat="43.58751821653459" lon="11.312793024174912"><ele>240.0</ele><time>2026-03-29T18:05:21.999Z</time></trkpt><trkpt lat="43.587473050316554" lon="11.31287363297702"><ele>240.0</ele><time>2026-03-29T18:05:22.999Z</time></trkpt><trkpt lat="43.58742385592401" lon="11.312961347465466"><ele>240.0</ele><time>2026-03-29T18:05:23.999Z</time></trkpt><trkpt lat="43.58737136752221" lon="11.313053363591559"><ele>240.0</ele><time>2026-03-29T18:05:24.999Z</time></trkpt><trkpt lat="43.58732208754947" lon="11.313138716542275"><ele>240.0</ele><time>2026-03-29T18:05:25.999Z</time></trkpt><trkpt lat="43.58727375453357" lon="11.313219930900452"><ele>240.0</ele><time>2026-03-29T18:05:26.999Z</time></trkpt><trkpt lat="43.58722554960868" lon="11.3133053042513"><ele>238.33333333333334</ele><time>2026-03-29T18:05:27.999Z</time></trkpt><trkpt lat="43.58718322167104" lon="11.313383241315147"><ele>236.66666666666669</ele><time>2026-03-29T18:05:28.999Z</time></trkpt><trkpt lat="43.58714580827988" lon="11.313455148878221"><ele>235.0</ele><time>2026-03-29T18:05:29.999Z</time></trkpt><trkpt lat="43.58708515438881" lon="11.313571724035533"><ele>233.33333333333334</ele><time>2026-03-29T18:05:31.999Z</time></trkpt><trkpt lat="43.58704707644432" lon="11.313644908865703"><ele>231.66666666666669</ele><time>2026-03-29T18:05:33.999Z</time></trkpt><trkpt lat="43.586979672547145" lon="11.313714483180192"><ele>230.0</ele><time>2026-03-29T18:05:37Z</time></trkpt><trkpt lat="43.58686757233773" lon="11.313666597297631"><ele>229.83333333333334</ele><time>2026-03-29T18:05:40Z</time></trkpt><trkpt lat="43.58680400863792" lon="11.313664578746447"><ele>229.66666666666669</ele><time>2026-03-29T18:05:41Z</time></trkpt><trkpt lat="43.5866955521225" lon="11.313628178788296"><ele>229.5</ele><time>2026-03-29T18:05:43Z</time></trkpt><trkpt lat="43.58664034376495" lon="11.313676483557025"><ele>229.33333333333331</ele><time>2026-03-29T18:05:44Z</time></trkpt><trkpt lat="43.586570489172615" lon="11.31374014444581"><ele>229.16666666666666</ele><time>2026-03-29T18:05:46Z</time></trkpt><trkpt lat="43.58649646451353" lon="11.313755306920434"><ele>229.0</ele><time>2026-03-29T18:05:48Z</time></trkpt><trkpt lat="43.58642963809" lon="11.313745313911015"><ele>228.99999999999997</ele><time>2026-03-29T18:05:49Z</time></trkpt><trkpt lat="43.58635997059435" lon="11.313760041756966"><ele>229.0</ele><time>2026-03-29T18:05:50Z</time></trkpt><trkpt lat="43.58628108404575" lon="11.313782708303613"><ele>229.0</ele><time>2026-03-29T18:05:51Z</time></trkpt><trkpt lat="43.586198046969066" lon="11.313832814462426"><ele>229.0</ele><time>2026-03-29T18:05:52Z</time></trkpt><trkpt lat="43.58611705541133" lon="11.313895531201494"><ele>228.99999999999997</ele><time>2026-03-29T18:05:53Z</time></trkpt><trkpt lat="43.586035037950076" lon="11.313951806167424"><ele>229.0</ele><time>2026-03-29T18:05:54Z</time></trkpt><trkpt lat="43.585958142973034" lon="11.314012431291243"><ele>229.0</ele><time>2026-03-29T18:05:55Z</time></trkpt><trkpt lat="43.585883927864394" lon="11.314070762891632"><ele>228.99999999999997</ele><time>2026-03-29T18:05:56Z</time></trkpt><trkpt lat="43.585805106230936" lon="11.314133561798359"><ele>228.99999999999997</ele><time>2026-03-29T18:05:57Z</time></trkpt><trkpt lat="43.58572887050085" lon="11.314196633742215"><ele>229.0</ele><time>2026-03-29T18:05:58Z</time></trkpt><trkpt lat="43.58565019562594" lon="11.314258655383156"><ele>229.0</ele><time>2026-03-29T18:05:59Z</time></trkpt><trkpt lat="43.58556866699549" lon="11.314322422852149"><ele>229.0</ele><time>2026-03-29T18:06:00Z</time></trkpt><trkpt lat="43.585485140754486" lon="11.314386959557835"><ele>228.99999999999997</ele><time>2026-03-29T18:06:01Z</time></trkpt><trkpt lat="43.58540953437877" lon="11.31444264242543"><ele>228.99999999999997</ele><time>2026-03-29T18:06:02Z</time></trkpt><trkpt lat="43.58533349134901" lon="11.314501725344153"><ele>229.0</ele><time>2026-03-29T18:06:03Z</time></trkpt><trkpt lat="43.58524949461944" lon="11.314564036847932"><ele>229.0</ele><time>2026-03-29T18:06:04Z</time></trkpt><trkpt lat="43.58515978318203" lon="11.31463467287936"><ele>229.2</ele><time>2026-03-29T18:06:05Z</time></trkpt><trkpt lat="43.58507548485021" lon="11.314703995988781"><ele>229.39999999999998</ele><time>2026-03-29T18:06:06Z</time></trkpt><trkpt lat="43.584987237100236" lon="11.314772094703889"><ele>229.6</ele><time>2026-03-29T18:06:07Z</time></trkpt><trkpt lat="43.58489400686021" lon="11.314845871119628"><ele>229.8</ele><time>2026-03-29T18:06:08Z</time></trkpt><trkpt lat="43.584802962564545" lon="11.314920227375797"><ele>230.0</ele><time>2026-03-29T18:06:09Z</time></trkpt><trkpt lat="43.58471204487902" lon="11.314993410449846"><ele>230.00000000000003</ele><time>2026-03-29T18:06:10Z</time></trkpt><trkpt lat="43.58462072879351" lon="11.31507144410875"><ele>230.0</ele><time>2026-03-29T18:06:11Z</time></trkpt><trkpt lat="43.58454334881362" lon="11.31513731662617"><ele>230.0</ele><time>2026-03-29T18:06:12Z</time></trkpt><trkpt lat="43.58446845007577" lon="11.315193697954804"><ele>230.0</ele><time>2026-03-29T18:06:13Z</time></trkpt><trkpt lat="43.58440079558889" lon="11.31525798051767"><ele>230.00000000000003</ele><time>2026-03-29T18:06:14Z</time></trkpt><trkpt lat="43.58433780380397" lon="11.315309710726272"><ele>230.0</ele><time>2026-03-29T18:06:15Z</time></trkpt><trkpt lat="43.58428644511032" lon="11.315383275095131"><ele>230.2</ele><time>2026-03-29T18:06:16Z</time></trkpt><trkpt lat="43.58422642608509" lon="11.3155330424406"><ele>230.4</ele><time>2026-03-29T18:06:17.999Z</time></trkpt><trkpt lat="43.58417767236463" lon="11.315671603777254"><ele>230.60000000000002</ele><time>2026-03-29T18:06:19.999Z</time></trkpt><trkpt lat="43.584152653415806" lon="11.315752327596776"><ele>230.8</ele><time>2026-03-29T18:06:20.999Z</time></trkpt><trkpt lat="43.58415845339472" lon="11.315851035637186"><ele>231.0</ele><time>2026-03-29T18:06:21.999Z</time></trkpt><trkpt lat="43.584044067074736" lon="11.315922376680277"><ele>231.0</ele><time>2026-03-29T18:06:22.999Z</time></trkpt><trkpt lat="43.583996852146356" lon="11.316030531589881"><ele>231.00000000000003</ele><time>2026-03-29T18:06:23.999Z</time></trkpt><trkpt lat="43.58395013079313" lon="11.316137555875068"><ele>231.00000000000003</ele><time>2026-03-29T18:06:24.999Z</time></trkpt><trkpt lat="43.58389892942136" lon="11.316254842332553"><ele>231.0</ele><time>2026-03-29T18:06:25.999Z</time></trkpt><trkpt lat="43.58385065530607" lon="11.316365423630302"><ele>231.0</ele><time>2026-03-29T18:06:26.999Z</time></trkpt><trkpt lat="43.58379965455896" lon="11.316482250659847"><ele>230.8</ele><time>2026-03-29T18:06:27.999Z</time></trkpt><trkpt lat="43.58375267793332" lon="11.3165898596483"><ele>230.60000000000002</ele><time>2026-03-29T18:06:28.999Z</time></trkpt><trkpt lat="43.5837029261042" lon="11.31670382567321"><ele>230.4</ele><time>2026-03-29T18:06:29.999Z</time></trkpt><trkpt lat="43.58365365340125" lon="11.316816694453156"><ele>230.2</ele><time>2026-03-29T18:06:30.999Z</time></trkpt><trkpt lat="43.583606844404926" lon="11.316923291290518"><ele>230.0</ele><time>2026-03-29T18:06:31.999Z</time></trkpt><trkpt lat="43.58356074031951" lon="11.317024526408542"><ele>230.66666666666669</ele><time>2026-03-29T18:06:32.999Z</time></trkpt><trkpt lat="43.583512932852535" lon="11.31711760550904"><ele>231.33333333333334</ele><time>2026-03-29T18:06:33.999Z</time></trkpt><trkpt lat="43.583464403585936" lon="11.317206711632302"><ele>232.0</ele><time>2026-03-29T18:06:34.999Z</time></trkpt><trkpt lat="43.5834106423781" lon="11.317291399259627"><ele>232.66666666666669</ele><time>2026-03-29T18:06:35.999Z</time></trkpt><trkpt lat="43.583353401812936" lon="11.317357965687723"><ele>233.33333333333334</ele><time>2026-03-29T18:06:36.999Z</time></trkpt><trkpt lat="43.5832644354635" lon="11.317447452244185"><ele>234.0</ele><time>2026-03-29T18:06:38.999Z</time></trkpt><trkpt lat="43.58320711786694" lon="11.317499901098167"><ele>234.0</ele><time>2026-03-29T18:06:40.999Z</time></trkpt><trkpt lat="43.58311393534116" lon="11.317594541611772"><ele>233.99999999999997</ele><time>2026-03-29T18:06:43.999Z</time></trkpt><trkpt lat="43.58304214713679" lon="11.31764933581402"><ele>233.99999999999997</ele><time>2026-03-29T18:06:44.999Z</time></trkpt><trkpt lat="43.582957216961525" lon="11.317701142893988"><ele>234.0</ele><time>2026-03-29T18:06:45.999Z</time></trkpt><trkpt lat="43.582857467333035" lon="11.3177473784384"><ele>234.0</ele><time>2026-03-29T18:06:46.999Z</time></trkpt><trkpt lat="43.58274100484631" lon="11.317766321864813"><ele>234.5</ele><time>2026-03-29T18:06:47.999Z</time></trkpt><trkpt lat="43.58263227492857" lon="11.317807974873991"><ele>235.0</ele><time>2026-03-29T18:06:48.999Z</time></trkpt><trkpt lat="43.582514294458896" lon="11.317853665376115"><ele>235.5</ele><time>2026-03-29T18:06:49.999Z</time></trkpt><trkpt lat="43.582417288428424" lon="11.317911731395773"><ele>236.0</ele><time>2026-03-29T18:06:50.999Z</time></trkpt><trkpt lat="43.58229644891265" lon="11.317937389922813"><ele>236.0</ele><time>2026-03-29T18:06:51.999Z</time></trkpt><trkpt lat="43.58219282224592" lon="11.317994041480832"><ele>236.0</ele><time>2026-03-29T18:06:52.999Z</time></trkpt><trkpt lat="43.58207656682487" lon="11.318000050756556"><ele>236.0</ele><time>2026-03-29T18:06:53.999Z</time></trkpt><trkpt lat="43.58196299495899" lon="11.317975594189978"><ele>236.0</ele><time>2026-03-29T18:06:54.999Z</time></trkpt><trkpt lat="43.581849467627286" lon="11.31794492857097"><ele>236.75</ele><time>2026-03-29T18:06:55.999Z</time></trkpt><trkpt lat="43.581739113216386" lon="11.317911926392783"><ele>237.5</ele><time>2026-03-29T18:06:56.999Z</time></trkpt><trkpt lat="43.581629095621636" lon="11.317869453593985"><ele>238.25</ele><time>2026-03-29T18:06:57.999Z</time></trkpt><trkpt lat="43.581511341230765" lon="11.317869789697436"><ele>239.0</ele><time>2026-03-29T18:06:58.999Z</time></trkpt><trkpt lat="43.58139821293246" lon="11.317876740753507"><ele>239.0</ele><time>2026-03-29T18:06:59.999Z</time></trkpt><trkpt lat="43.581283559132864" lon="11.317883820737787"><ele>238.99999999999997</ele><time>2026-03-29T18:07:00.999Z</time></trkpt><trkpt lat="43.58117180626988" lon="11.31791315245692"><ele>238.99999999999997</ele><time>2026-03-29T18:07:01.999Z</time></trkpt><trkpt lat="43.58105860474211" lon="11.317912473625876"><ele>239.0</ele><time>2026-03-29T18:07:02.999Z</time></trkpt><trkpt lat="43.580953917516105" lon="11.317878428624478"><ele>239.0</ele><time>2026-03-29T18:07:03.999Z</time></trkpt><trkpt lat="43.58085968611335" lon="11.317788867026792"><ele>238.5</ele><time>2026-03-29T18:07:04.999Z</time></trkpt><trkpt lat="43.58075091935411" lon="11.317718786086274"><ele>238.0</ele><time>2026-03-29T18:07:05.999Z</time></trkpt><trkpt lat="43.5806487583361" lon="11.31763596773993"><ele>237.5</ele><time>2026-03-29T18:07:06.999Z</time></trkpt><trkpt lat="43.58055109755489" lon="11.317555951651949"><ele>237.0</ele><time>2026-03-29T18:07:07.999Z</time></trkpt><trkpt lat="43.580446263741294" lon="11.31746313892048"><ele>236.75</ele><time>2026-03-29T18:07:08.999Z</time></trkpt><trkpt lat="43.580345924058214" lon="11.31736863757493"><ele>236.5</ele><time>2026-03-29T18:07:09.999Z</time></trkpt><trkpt lat="43.58025915347377" lon="11.317258762307963"><ele>236.25</ele><time>2026-03-29T18:07:10.999Z</time></trkpt><trkpt lat="43.58017157937325" lon="11.31716218884398"><ele>236.0</ele><time>2026-03-29T18:07:11.999Z</time></trkpt><trkpt lat="43.580078952095285" lon="11.31707027633397"><ele>237.75</ele><time>2026-03-29T18:07:12.999Z</time></trkpt><trkpt lat="43.57996875426029" lon="11.31701039235248"><ele>239.5</ele><time>2026-03-29T18:07:13.999Z</time></trkpt><trkpt lat="43.57985027213531" lon="11.316976777151408"><ele>241.25</ele><time>2026-03-29T18:07:14.999Z</time></trkpt><trkpt lat="43.57972905786651" lon="11.316937436958845"><ele>243.0</ele><time>2026-03-29T18:07:15.999Z</time></trkpt><trkpt lat="43.5796085601229" lon="11.316890114548292"><ele>242.0</ele><time>2026-03-29T18:07:16.999Z</time></trkpt><trkpt lat="43.579485265079505" lon="11.31684282862899"><ele>241.0</ele><time>2026-03-29T18:07:17.999Z</time></trkpt><trkpt lat="43.579358087371546" lon="11.31679926994833"><ele>240.0</ele><time>2026-03-29T18:07:18.999Z</time></trkpt><trkpt lat="43.57922954184667" lon="11.316757252576977"><ele>239.0</ele><time>2026-03-29T18:07:19.999Z</time></trkpt><trkpt lat="43.57910131896963" lon="11.31670768459218"><ele>239.0</ele><time>2026-03-29T18:07:20.999Z</time></trkpt><trkpt lat="43.578970634537654" lon="11.316652356309266"><ele>239.0</ele><time>2026-03-29T18:07:21.999Z</time></trkpt><trkpt lat="43.57883870855676" lon="11.316602777836968"><ele>239.0</ele><time>2026-03-29T18:07:22.999Z</time></trkpt><trkpt lat="43.57870911614175" lon="11.316566933307849"><ele>239.0</ele><time>2026-03-29T18:07:23.999Z</time></trkpt><trkpt lat="43.578574692567265" lon="11.316548595777649"><ele>239.25</ele><time>2026-03-29T18:07:24.999Z</time></trkpt><trkpt lat="43.57843647745147" lon="11.316551395899968"><ele>239.5</ele><time>2026-03-29T18:07:25.999Z</time></trkpt><trkpt lat="43.57829907245069" lon="11.316578114108971"><ele>239.75</ele><time>2026-03-29T18:07:26.999Z</time></trkpt><trkpt lat="43.57815769338562" lon="11.316613828964597"><ele>240.0</ele><time>2026-03-29T18:07:27.999Z</time></trkpt><trkpt lat="43.578020762519955" lon="11.316660033191404"><ele>240.0</ele><time>2026-03-29T18:07:28.999Z</time></trkpt><trkpt lat="43.577880267756996" lon="11.316709538253647"><ele>240.0</ele><time>2026-03-29T18:07:29.999Z</time></trkpt><trkpt lat="43.577746451238525" lon="11.316758483692679"><ele>240.0</ele><time>2026-03-29T18:07:30.999Z</time></trkpt><trkpt lat="43.57760434059518" lon="11.316785937470494"><ele>240.0</ele><time>2026-03-29T18:07:31.999Z</time></trkpt><trkpt lat="43.57746655068673" lon="11.316834490571361"><ele>241.0</ele><time>2026-03-29T18:07:32.999Z</time></trkpt><trkpt lat="43.577330334893745" lon="11.316883514938164"><ele>242.0</ele><time>2026-03-29T18:07:33.999Z</time></trkpt><trkpt lat="43.57719121487101" lon="11.316936903541185"><ele>243.0</ele><time>2026-03-29T18:07:34.999Z</time></trkpt><trkpt lat="43.57705353777034" lon="11.316995231350838"><ele>244.0</ele><time>2026-03-29T18:07:35.999Z</time></trkpt><trkpt lat="43.57691557925254" lon="11.317060277781332"><ele>243.0</ele><time>2026-03-29T18:07:36.999Z</time></trkpt><trkpt lat="43.57678852809386" lon="11.317148088657595"><ele>242.0</ele><time>2026-03-29T18:07:37.999Z</time></trkpt><trkpt lat="43.57664630930431" lon="11.317196321315139"><ele>241.0</ele><time>2026-03-29T18:07:38.999Z</time></trkpt><trkpt lat="43.57651194767198" lon="11.317265970608702"><ele>240.0</ele><time>2026-03-29T18:07:39.999Z</time></trkpt><trkpt lat="43.576369747344" lon="11.317340601365922"><ele>240.0</ele><time>2026-03-29T18:07:40.999Z</time></trkpt><trkpt lat="43.57623442316395" lon="11.317409504348074"><ele>240.0</ele><time>2026-03-29T18:07:41.999Z</time></trkpt><trkpt lat="43.57609846100804" lon="11.31747678582578"><ele>240.0</ele><time>2026-03-29T18:07:43Z</time></trkpt><trkpt lat="43.575965599948134" lon="11.317545306670482"><ele>240.0</ele><time>2026-03-29T18:07:44Z</time></trkpt><trkpt lat="43.57582802458884" lon="11.317616975546798"><ele>241.0</ele><time>2026-03-29T18:07:45Z</time></trkpt><trkpt lat="43.575692682159804" lon="11.317687482112943"><ele>242.0</ele><time>2026-03-29T18:07:46Z</time></trkpt><trkpt lat="43.57555827054596" lon="11.317754798820966"><ele>243.0</ele><time>2026-03-29T18:07:47Z</time></trkpt><trkpt lat="43.575426123776694" lon="11.317820935815298"><ele>244.0</ele><time>2026-03-29T18:07:48Z</time></trkpt><trkpt lat="43.57528925790574" lon="11.317889323663616"><ele>243.75</ele><time>2026-03-29T18:07:49Z</time></trkpt><trkpt lat="43.57515865287961" lon="11.317990858198"><ele>243.5</ele><time>2026-03-29T18:07:50Z</time></trkpt><trkpt lat="43.575017578100564" lon="11.318053419064883"><ele>243.25</ele><time>2026-03-29T18:07:51Z</time></trkpt><trkpt lat="43.574880528499364" lon="11.318121988315022"><ele>243.0</ele><time>2026-03-29T18:07:52Z</time></trkpt><trkpt lat="43.57474465519659" lon="11.318183874879077"><ele>243.0</ele><time>2026-03-29T18:07:53Z</time></trkpt><trkpt lat="43.57460166494509" lon="11.318232224570316"><ele>243.0</ele><time>2026-03-29T18:07:54Z</time></trkpt><trkpt lat="43.57446714479828" lon="11.318299794689388"><ele>243.0</ele><time>2026-03-29T18:07:55Z</time></trkpt><trkpt lat="43.5743307842058" lon="11.318368289241569"><ele>243.0</ele><time>2026-03-29T18:07:56Z</time></trkpt><trkpt lat="43.57419730549979" lon="11.318435336226237"><ele>246.75</ele><time>2026-03-29T18:07:57Z</time></trkpt><trkpt lat="43.5740604486488" lon="11.318504080057556"><ele>250.5</ele><time>2026-03-29T18:07:58Z</time></trkpt><trkpt lat="43.57392460496694" lon="11.318572314980772"><ele>254.25</ele><time>2026-03-29T18:07:59Z</time></trkpt><trkpt lat="43.57379183507234" lon="11.31863912712643"><ele>258.0</ele><time>2026-03-29T18:08:00Z</time></trkpt><trkpt lat="43.57365743357147" lon="11.318707546604328"><ele>255.75</ele><time>2026-03-29T18:08:01Z</time></trkpt><trkpt lat="43.573519468337516" lon="11.318777274251696"><ele>253.5</ele><time>2026-03-29T18:08:02Z</time></trkpt><trkpt lat="43.57338583421371" lon="11.318843091359643"><ele>251.25</ele><time>2026-03-29T18:08:03Z</time></trkpt><trkpt lat="43.573247013871296" lon="11.318911598764432"><ele>249.0</ele><time>2026-03-29T18:08:04Z</time></trkpt><trkpt lat="43.57311580343547" lon="11.319017122809933"><ele>249.0</ele><time>2026-03-29T18:08:05Z</time></trkpt><trkpt lat="43.57298157126005" lon="11.319082779983763"><ele>249.0</ele><time>2026-03-29T18:08:06Z</time></trkpt><trkpt lat="43.57284514329753" lon="11.319149533044534"><ele>249.0</ele><time>2026-03-29T18:08:07Z</time></trkpt><trkpt lat="43.57270201037438" lon="11.319216162825104"><ele>249.0</ele><time>2026-03-29T18:08:08Z</time></trkpt><trkpt lat="43.572564128872784" lon="11.319282204198512"><ele>251.25</ele><time>2026-03-29T18:08:09Z</time></trkpt><trkpt lat="43.57242924240723" lon="11.319356311128745"><ele>253.5</ele><time>2026-03-29T18:08:10Z</time></trkpt><trkpt lat="43.57228689801417" lon="11.31943262350502"><ele>255.75</ele><time>2026-03-29T18:08:11Z</time></trkpt><trkpt lat="43.57214190774734" lon="11.319465915863598"><ele>258.0</ele><time>2026-03-29T18:08:12Z</time></trkpt><trkpt lat="43.57200568480325" lon="11.319535554876603"><ele>256.0</ele><time>2026-03-29T18:08:13Z</time></trkpt><trkpt lat="43.57186548823877" lon="11.319607225235146"><ele>254.0</ele><time>2026-03-29T18:08:14Z</time></trkpt><trkpt lat="43.571728671805985" lon="11.319674945120607"><ele>252.0</ele><time>2026-03-29T18:08:15Z</time></trkpt><trkpt lat="43.57158947062917" lon="11.319743826905075"><ele>250.0</ele><time>2026-03-29T18:08:16Z</time></trkpt><trkpt lat="43.57145117660839" lon="11.319812259804705"><ele>250.0</ele><time>2026-03-29T18:08:17Z</time></trkpt><trkpt lat="43.57131279297037" lon="11.319880737046976"><ele>250.0</ele><time>2026-03-29T18:08:18Z</time></trkpt><trkpt lat="43.57117174114869" lon="11.31995053461967"><ele>250.0</ele><time>2026-03-29T18:08:19Z</time></trkpt><trkpt lat="43.57103051272137" lon="11.320020334866078"><ele>250.0</ele><time>2026-03-29T18:08:19.999Z</time></trkpt><trkpt lat="43.57089229138989" lon="11.320088438810313"><ele>252.25</ele><time>2026-03-29T18:08:20.999Z</time></trkpt><trkpt lat="43.57074920015913" lon="11.3201589425129"><ele>254.5</ele><time>2026-03-29T18:08:21.999Z</time></trkpt><trkpt lat="43.57060966744476" lon="11.320221331105166"><ele>256.75</ele><time>2026-03-29T18:08:22.999Z</time></trkpt><trkpt lat="43.570481695021485" lon="11.320275549813466"><ele>259.0</ele><time>2026-03-29T18:08:23.999Z</time></trkpt><trkpt lat="43.570347434592016" lon="11.320318699546355"><ele>259.75</ele><time>2026-03-29T18:08:24.999Z</time></trkpt><trkpt lat="43.57020716565294" lon="11.320356697716258"><ele>260.5</ele><time>2026-03-29T18:08:25.999Z</time></trkpt><trkpt lat="43.57007018160197" lon="11.32039290011217"><ele>261.25</ele><time>2026-03-29T18:08:26.999Z</time></trkpt><trkpt lat="43.56993361416026" lon="11.320428825603198"><ele>262.0</ele><time>2026-03-29T18:08:27.999Z</time></trkpt><trkpt lat="43.569802368764165" lon="11.32046137320716"><ele>262.0</ele><time>2026-03-29T18:08:28.999Z</time></trkpt><trkpt lat="43.56966827731601" lon="11.320495867371447"><ele>262.0</ele><time>2026-03-29T18:08:29.999Z</time></trkpt><trkpt lat="43.569558952171185" lon="11.320553189607885"><ele>262.0</ele><time>2026-03-29T18:08:30.999Z</time></trkpt><trkpt lat="43.56945864986733" lon="11.32059416033824"><ele>262.0</ele><time>2026-03-29T18:08:31.999Z</time></trkpt><trkpt lat="43.56936303799297" lon="11.32062825229759"><ele>263.0</ele><time>2026-03-29T18:08:32.999Z</time></trkpt><trkpt lat="43.569284711948775" lon="11.320740948092885"><ele>264.0</ele><time>2026-03-29T18:08:33.999Z</time></trkpt><trkpt lat="43.56923622224226" lon="11.320892985004736"><ele>265.0</ele><time>2026-03-29T18:08:34.999Z</time></trkpt><trkpt lat="43.569213442563836" lon="11.321029717345546"><ele>266.0</ele><time>2026-03-29T18:08:35.999Z</time></trkpt><trkpt lat="43.56920309844006" lon="11.321183636083497"><ele>267.0</ele><time>2026-03-29T18:08:36.999Z</time></trkpt><trkpt lat="43.56932505974142" lon="11.321374192100869"><ele>266.0</ele><time>2026-03-29T18:08:37.999Z</time></trkpt><trkpt lat="43.569319810623874" lon="11.321534644667992"><ele>265.0</ele><time>2026-03-29T18:08:38.999Z</time></trkpt><trkpt lat="43.56930219388441" lon="11.321701581385568"><ele>264.0</ele><time>2026-03-29T18:08:39.999Z</time></trkpt><trkpt lat="43.569268852569195" lon="11.321855799853411"><ele>263.0</ele><time>2026-03-29T18:08:40.999Z</time></trkpt><trkpt lat="43.56920607966869" lon="11.321978696200103"><ele>263.0</ele><time>2026-03-29T18:08:41.999Z</time></trkpt><trkpt lat="43.569134747270745" lon="11.322114438789358"><ele>263.0</ele><time>2026-03-29T18:08:42.999Z</time></trkpt><trkpt lat="43.56908544580472" lon="11.322277618667375"><ele>263.0</ele><time>2026-03-29T18:08:43.999Z</time></trkpt><trkpt lat="43.5689925433487" lon="11.322389660506543"><ele>263.0</ele><time>2026-03-29T18:08:44.999Z</time></trkpt><trkpt lat="43.5689018337793" lon="11.32251293653775"><ele>261.0</ele><time>2026-03-29T18:08:45.999Z</time></trkpt><trkpt lat="43.56881958364246" lon="11.322648756544822"><ele>259.0</ele><time>2026-03-29T18:08:46.999Z</time></trkpt><trkpt lat="43.56869953927583" lon="11.32273492412119"><ele>257.0</ele><time>2026-03-29T18:08:47.999Z</time></trkpt><trkpt lat="43.568617897444256" lon="11.322856081908336"><ele>255.0</ele><time>2026-03-29T18:08:48.999Z</time></trkpt><trkpt lat="43.56854021795413" lon="11.322973411260714"><ele>255.2</ele><time>2026-03-29T18:08:49.999Z</time></trkpt><trkpt lat="43.56846759135039" lon="11.323093972830643"><ele>255.4</ele><time>2026-03-29T18:08:50.999Z</time></trkpt><trkpt lat="43.568401348587535" lon="11.323214559272104"><ele>255.60000000000002</ele><time>2026-03-29T18:08:51.999Z</time></trkpt><trkpt lat="43.568338649513144" lon="11.323336484862702"><ele>255.8</ele><time>2026-03-29T18:08:52.999Z</time></trkpt><trkpt lat="43.568277723819016" lon="11.323465204976175"><ele>256.0</ele><time>2026-03-29T18:08:53.999Z</time></trkpt><trkpt lat="43.56821900902228" lon="11.323613071185815"><ele>256.0</ele><time>2026-03-29T18:08:54.999Z</time></trkpt><trkpt lat="43.56817700966586" lon="11.323776539521754"><ele>256.0</ele><time>2026-03-29T18:08:55.999Z</time></trkpt><trkpt lat="43.56814068834555" lon="11.323927890153286"><ele>256.0</ele><time>2026-03-29T18:08:56.999Z</time></trkpt><trkpt lat="43.56811054640547" lon="11.324064255705101"><ele>256.0</ele><time>2026-03-29T18:08:57.999Z</time></trkpt><trkpt lat="43.56808401588927" lon="11.324188294829568"><ele>256.0</ele><time>2026-03-29T18:08:58.999Z</time></trkpt><trkpt lat="43.568064239430534" lon="11.324297133864729"><ele>255.20000000000002</ele><time>2026-03-29T18:08:59.999Z</time></trkpt><trkpt lat="43.56802471150298" lon="11.324411179654511"><ele>254.40000000000003</ele><time>2026-03-29T18:09:01.999Z</time></trkpt><trkpt lat="43.56796082822383" lon="11.324495556168731"><ele>253.6</ele><time>2026-03-29T18:09:03.999Z</time></trkpt><trkpt lat="43.56797084157076" lon="11.324674250706536"><ele>252.8</ele><time>2026-03-29T18:09:04.999Z</time></trkpt><trkpt lat="43.56793424942241" lon="11.324819098850977"><ele>252.0</ele><time>2026-03-29T18:09:05.999Z</time></trkpt><trkpt lat="43.56788433065482" lon="11.32496412958623"><ele>252.0</ele><time>2026-03-29T18:09:06.999Z</time></trkpt><trkpt lat="43.567853177452115" lon="11.325100158634136"><ele>252.0</ele><time>2026-03-29T18:09:07.999Z</time></trkpt><trkpt lat="43.56783679573991" lon="11.325239076598361"><ele>252.0</ele><time>2026-03-29T18:09:08.999Z</time></trkpt><trkpt lat="43.56782660385812" lon="11.32538163983502"><ele>252.0</ele><time>2026-03-29T18:09:09.999Z</time></trkpt><trkpt lat="43.56783028633399" lon="11.325530247697312"><ele>252.0</ele><time>2026-03-29T18:09:10.999Z</time></trkpt><trkpt lat="43.56784028802606" lon="11.325670096503053"><ele>253.0</ele><time>2026-03-29T18:09:11.999Z</time></trkpt><trkpt lat="43.56785759624204" lon="11.32580846038474"><ele>254.0</ele><time>2026-03-29T18:09:12.999Z</time></trkpt><trkpt lat="43.56787766163647" lon="11.325925849000932"><ele>255.0</ele><time>2026-03-29T18:09:13.999Z</time></trkpt><trkpt lat="43.56790240962535" lon="11.326030378597558"><ele>256.0</ele><time>2026-03-29T18:09:14.999Z</time></trkpt><trkpt lat="43.56795493380542" lon="11.326139795523824"><ele>257.0</ele><time>2026-03-29T18:09:15.999Z</time></trkpt><trkpt lat="43.56803617816964" lon="11.326224126275156"><ele>260.4</ele><time>2026-03-29T18:09:16.999Z</time></trkpt><trkpt lat="43.56812044138874" lon="11.326308271818748"><ele>263.79999999999995</ele><time>2026-03-29T18:09:17.999Z</time></trkpt><trkpt lat="43.56820330846844" lon="11.326394250675044"><ele>267.2</ele><time>2026-03-29T18:09:18.999Z</time></trkpt><trkpt lat="43.568279469202984" lon="11.326484259457569"><ele>270.59999999999997</ele><time>2026-03-29T18:09:19.999Z</time></trkpt><trkpt lat="43.56834928372278" lon="11.326586115535218"><ele>274.0</ele><time>2026-03-29T18:09:20.999Z</time></trkpt><trkpt lat="43.56841289109531" lon="11.326690154390274"><ele>274.0</ele><time>2026-03-29T18:09:21.999Z</time></trkpt><trkpt lat="43.568466464829115" lon="11.326796218146141"><ele>274.0</ele><time>2026-03-29T18:09:22.999Z</time></trkpt><trkpt lat="43.56849824403788" lon="11.32689477084397"><ele>274.0</ele><time>2026-03-29T18:09:23.999Z</time></trkpt><trkpt lat="43.56853136036592" lon="11.32699450750027"><ele>274.0</ele><time>2026-03-29T18:09:24.999Z</time></trkpt><trkpt lat="43.56856530034284" lon="11.327106834811"><ele>274.0</ele><time>2026-03-29T18:09:25.999Z</time></trkpt><trkpt lat="43.56859156246824" lon="11.327200345861451"><ele>274.0</ele><time>2026-03-29T18:09:26.999Z</time></trkpt><trkpt lat="43.56861950684954" lon="11.327304347785441"><ele>274.4</ele><time>2026-03-29T18:09:27.999Z</time></trkpt><trkpt lat="43.5686482481567" lon="11.327419210824921"><ele>274.79999999999995</ele><time>2026-03-29T18:09:28.999Z</time></trkpt><trkpt lat="43.568669242512335" lon="11.327533010258781"><ele>275.20000000000005</ele><time>2026-03-29T18:09:29.999Z</time></trkpt><trkpt lat="43.56868248598287" lon="11.327650349643475"><ele>275.6</ele><time>2026-03-29T18:09:30.999Z</time></trkpt><trkpt lat="43.56869496148638" lon="11.327788129266231"><ele>276.0</ele><time>2026-03-29T18:09:31.999Z</time></trkpt><trkpt lat="43.56867873121455" lon="11.327924294024829"><ele>276.0</ele><time>2026-03-29T18:09:32.999Z</time></trkpt><trkpt lat="43.56865614727512" lon="11.328059597373846"><ele>276.0</ele><time>2026-03-29T18:09:33.999Z</time></trkpt><trkpt lat="43.56862891500434" lon="11.328199175416591"><ele>276.0</ele><time>2026-03-29T18:09:34.999Z</time></trkpt><trkpt lat="43.568607153871255" lon="11.328319417354447"><ele>276.0</ele><time>2026-03-29T18:09:35.999Z</time></trkpt><trkpt lat="43.5686381903935" lon="11.328449744414613"><ele>276.0</ele><time>2026-03-29T18:09:36.999Z</time></trkpt><trkpt lat="43.56864321252624" lon="11.328570475901511"><ele>277.40000000000003</ele><time>2026-03-29T18:09:37.999Z</time></trkpt><trkpt lat="43.568658644827394" lon="11.32868514649639"><ele>278.8</ele><time>2026-03-29T18:09:38.999Z</time></trkpt><trkpt lat="43.56868588560629" lon="11.32878989331352"><ele>280.20000000000005</ele><time>2026-03-29T18:09:39.999Z</time></trkpt><trkpt lat="43.568707389217614" lon="11.328913461511755"><ele>281.6</ele><time>2026-03-29T18:09:40.999Z</time></trkpt><trkpt lat="43.56875380827676" lon="11.329042020889359"><ele>283.0</ele><time>2026-03-29T18:09:41.999Z</time></trkpt><trkpt lat="43.568791557192675" lon="11.329171285296123"><ele>285.6</ele><time>2026-03-29T18:09:42.999Z</time></trkpt><trkpt lat="43.56883357273479" lon="11.329307221553215"><ele>288.20000000000005</ele><time>2026-03-29T18:09:43.999Z</time></trkpt><trkpt lat="43.568881707414505" lon="11.329448440943496"><ele>290.8</ele><time>2026-03-29T18:09:44.999Z</time></trkpt><trkpt lat="43.56893054451181" lon="11.329589123863965"><ele>293.40000000000003</ele><time>2026-03-29T18:09:45.999Z</time></trkpt><trkpt lat="43.568977220685376" lon="11.32972483313428"><ele>296.0</ele><time>2026-03-29T18:09:46.999Z</time></trkpt><trkpt lat="43.56901039924526" lon="11.329853899785563"><ele>297.0</ele><time>2026-03-29T18:09:47.999Z</time></trkpt><trkpt lat="43.56900402871627" lon="11.329959486967716"><ele>298.0</ele><time>2026-03-29T18:09:49Z</time></trkpt><trkpt lat="43.56898192642207" lon="11.330072096556425"><ele>299.0</ele><time>2026-03-29T18:09:50Z</time></trkpt><trkpt lat="43.568975541546656" lon="11.33018602580238"><ele>300.0</ele><time>2026-03-29T18:09:51Z</time></trkpt><trkpt lat="43.56899469339077" lon="11.330305102140468"><ele>301.0</ele><time>2026-03-29T18:09:52Z</time></trkpt><trkpt lat="43.56904236623473" lon="11.3304334856771"><ele>302.0</ele><time>2026-03-29T18:09:53Z</time></trkpt><trkpt lat="43.56909382287436" lon="11.330550878962029"><ele>302.8</ele><time>2026-03-29T18:09:54Z</time></trkpt><trkpt lat="43.56913789119363" lon="11.330677020985897"><ele>303.6</ele><time>2026-03-29T18:09:55Z</time></trkpt><trkpt lat="43.56917844283185" lon="11.330803569518201"><ele>304.40000000000003</ele><time>2026-03-29T18:09:56Z</time></trkpt><trkpt lat="43.569216414073345" lon="11.330937463814532"><ele>305.2</ele><time>2026-03-29T18:09:57Z</time></trkpt><trkpt lat="43.56926434886074" lon="11.33109025622551"><ele>306.0</ele><time>2026-03-29T18:09:58Z</time></trkpt><trkpt lat="43.5693143232563" lon="11.331247282362199"><ele>306.0</ele><time>2026-03-29T18:09:59Z</time></trkpt><trkpt lat="43.56935376305019" lon="11.331389806700404"><ele>306.0</ele><time>2026-03-29T18:10:00Z</time></trkpt><trkpt lat="43.56939152905114" lon="11.331537728734144"><ele>306.0</ele><time>2026-03-29T18:10:01Z</time></trkpt><trkpt lat="43.569424917998774" lon="11.331678054808213"><ele>306.0</ele><time>2026-03-29T18:10:02Z</time></trkpt><trkpt lat="43.569452146111" lon="11.33180131853631"><ele>306.0</ele><time>2026-03-29T18:10:03Z</time></trkpt><trkpt lat="43.569484485429676" lon="11.331931302593077"><ele>308.2</ele><time>2026-03-29T18:10:04Z</time></trkpt><trkpt lat="43.56953342444063" lon="11.332040530429818"><ele>310.40000000000003</ele><time>2026-03-29T18:10:05Z</time></trkpt><trkpt lat="43.569596804079964" lon="11.332129779960518"><ele>312.6</ele><time>2026-03-29T18:10:06Z</time></trkpt><trkpt lat="43.569676750162806" lon="11.332232931137867"><ele>314.8</ele><time>2026-03-29T18:10:07Z</time></trkpt><trkpt lat="43.56975186324856" lon="11.332336914702278"><ele>317.0</ele><time>2026-03-29T18:10:08Z</time></trkpt><trkpt lat="43.56981921293149" lon="11.3324490280047"><ele>318.6</ele><time>2026-03-29T18:10:09Z</time></trkpt><trkpt lat="43.56988454373647" lon="11.332574576965893"><ele>320.2</ele><time>2026-03-29T18:10:10Z</time></trkpt><trkpt lat="43.56996132226008" lon="11.332697750847327"><ele>321.8</ele><time>2026-03-29T18:10:11Z</time></trkpt><trkpt lat="43.5700283194402" lon="11.332809445272156"><ele>323.4</ele><time>2026-03-29T18:10:12Z</time></trkpt><trkpt lat="43.57009473861686" lon="11.332937442768701"><ele>325.0</ele><time>2026-03-29T18:10:13Z</time></trkpt><trkpt lat="43.57016769267272" lon="11.333070248655087"><ele>326.2</ele><time>2026-03-29T18:10:14Z</time></trkpt><trkpt lat="43.570237770159764" lon="11.333195935000468"><ele>327.4</ele><time>2026-03-29T18:10:15Z</time></trkpt><trkpt lat="43.57030321004124" lon="11.333323725835827"><ele>328.6</ele><time>2026-03-29T18:10:16Z</time></trkpt><trkpt lat="43.570356508612036" lon="11.333454015846547"><ele>329.8</ele><time>2026-03-29T18:10:16.999Z</time></trkpt><trkpt lat="43.57040317922296" lon="11.333587667950306"><ele>331.0</ele><time>2026-03-29T18:10:17.999Z</time></trkpt><trkpt lat="43.5704427192482" lon="11.333723609454811"><ele>331.0</ele><time>2026-03-29T18:10:18.999Z</time></trkpt><trkpt lat="43.5704698154392" lon="11.33385627680328"><ele>331.0</ele><time>2026-03-29T18:10:19.999Z</time></trkpt><trkpt lat="43.57048882241913" lon="11.333990913884177"><ele>331.0</ele><time>2026-03-29T18:10:20.999Z</time></trkpt><trkpt lat="43.570504190892564" lon="11.334140677483969"><ele>331.0</ele><time>2026-03-29T18:10:21.999Z</time></trkpt><trkpt lat="43.57051613827271" lon="11.334287541136638"><ele>331.0</ele><time>2026-03-29T18:10:22.999Z</time></trkpt><trkpt lat="43.570527197684356" lon="11.334443507215864"><ele>333.0</ele><time>2026-03-29T18:10:23.999Z</time></trkpt><trkpt lat="43.57053910162859" lon="11.334592263450327"><ele>335.0</ele><time>2026-03-29T18:10:24.999Z</time></trkpt><trkpt lat="43.57055189408142" lon="11.334738496919075"><ele>337.0</ele><time>2026-03-29T18:10:25.999Z</time></trkpt><trkpt lat="43.570565479334824" lon="11.3348869284006"><ele>339.0</ele><time>2026-03-29T18:10:26.999Z</time></trkpt><trkpt lat="43.570577518462414" lon="11.335037627221974"><ele>341.0</ele><time>2026-03-29T18:10:27.999Z</time></trkpt><trkpt lat="43.5705893295065" lon="11.335190105011801"><ele>343.25</ele><time>2026-03-29T18:10:28.999Z</time></trkpt><trkpt lat="43.57060123604173" lon="11.335343815687875"><ele>345.5</ele><time>2026-03-29T18:10:29.999Z</time></trkpt><trkpt lat="43.570615741121856" lon="11.33550624313183"><ele>347.75</ele><time>2026-03-29T18:10:30.999Z</time></trkpt><trkpt lat="43.570637117937" lon="11.335693955836721"><ele>350.0</ele><time>2026-03-29T18:10:31.999Z</time></trkpt><trkpt lat="43.570661137581816" lon="11.33589164148219"><ele>352.25</ele><time>2026-03-29T18:10:32.999Z</time></trkpt><trkpt lat="43.570682187420495" lon="11.336061184741313"><ele>354.5</ele><time>2026-03-29T18:10:33.999Z</time></trkpt><trkpt lat="43.570705781704625" lon="11.336251221731331"><ele>356.75</ele><time>2026-03-29T18:10:34.999Z</time></trkpt><trkpt lat="43.57072937121679" lon="11.336441220601646"><ele>359.0</ele><time>2026-03-29T18:10:35.999Z</time></trkpt><trkpt lat="43.5707507941197" lon="11.336621077522711"><ele>360.5</ele><time>2026-03-29T18:10:36.999Z</time></trkpt><trkpt lat="43.57075724987522" lon="11.33675623886976"><ele>362.0</ele><time>2026-03-29T18:10:37.999Z</time></trkpt><trkpt lat="43.57075048047588" lon="11.336859948206516"><ele>363.5</ele><time>2026-03-29T18:10:38.999Z</time></trkpt><trkpt lat="43.57068869236581" lon="11.336953969916323"><ele>365.0</ele><time>2026-03-29T18:10:39.999Z</time></trkpt><trkpt lat="43.570667893536765" lon="11.337053963341948"><ele>366.5</ele><time>2026-03-29T18:10:40.999Z</time></trkpt><trkpt lat="43.57065839126492" lon="11.33715993453966"><ele>368.0</ele><time>2026-03-29T18:10:41.999Z</time></trkpt><trkpt lat="43.57072958672577" lon="11.337281896263367"><ele>369.5</ele><time>2026-03-29T18:10:42.999Z</time></trkpt><trkpt lat="43.57073981113118" lon="11.33740328544826"><ele>371.0</ele><time>2026-03-29T18:10:43.999Z</time></trkpt><trkpt lat="43.570761861277724" lon="11.337507832126812"><ele>372.5</ele><time>2026-03-29T18:10:44.999Z</time></trkpt><trkpt lat="43.57073626155613" lon="11.337603765702113"><ele>374.0</ele><time>2026-03-29T18:10:45.999Z</time></trkpt><trkpt lat="43.570717753730115" lon="11.337708730216557"><ele>375.5</ele><time>2026-03-29T18:10:46.999Z</time></trkpt><trkpt lat="43.570693368476306" lon="11.337817946428451"><ele>377.0</ele><time>2026-03-29T18:10:47.999Z</time></trkpt><trkpt lat="43.5706673396625" lon="11.337929538408561"><ele>377.0</ele><time>2026-03-29T18:10:48.999Z</time></trkpt><trkpt lat="43.57063843622087" lon="11.338050171695894"><ele>377.0</ele><time>2026-03-29T18:10:49.999Z</time></trkpt><trkpt lat="43.57061024987491" lon="11.338175723540157"><ele>377.0</ele><time>2026-03-29T18:10:50.999Z</time></trkpt><trkpt lat="43.57058566701797" lon="11.338296938525534"><ele>377.0</ele><time>2026-03-29T18:10:51.999Z</time></trkpt><trkpt lat="43.57058306855855" lon="11.33841139405007"><ele>377.0</ele><time>2026-03-29T18:10:52.999Z</time></trkpt><trkpt lat="43.570563723514944" lon="11.338520836736562"><ele>377.0</ele><time>2026-03-29T18:10:53.999Z</time></trkpt><trkpt lat="43.570541619842544" lon="11.33861437457051"><ele>379.6666666666667</ele><time>2026-03-29T18:10:54.999Z</time></trkpt><trkpt lat="43.570549966206926" lon="11.33871206248442"><ele>382.33333333333337</ele><time>2026-03-29T18:10:55.999Z</time></trkpt><trkpt lat="43.57059582756201" lon="11.338806256142611"><ele>385.0</ele><time>2026-03-29T18:10:56.999Z</time></trkpt><trkpt lat="43.570656258205844" lon="11.338864028380558"><ele>387.6666666666667</ele><time>2026-03-29T18:10:57.999Z</time></trkpt><trkpt lat="43.57075056160557" lon="11.338873448003264"><ele>390.3333333333333</ele><time>2026-03-29T18:10:58.999Z</time></trkpt><trkpt lat="43.570841134129296" lon="11.338839198617972"><ele>393.0</ele><time>2026-03-29T18:10:59.999Z</time></trkpt><trkpt lat="43.57092002027402" lon="11.338859735561158"><ele>394.8333333333333</ele><time>2026-03-29T18:11:00.999Z</time></trkpt><trkpt lat="43.57097250496586" lon="11.33893873126815"><ele>396.66666666666663</ele><time>2026-03-29T18:11:01.999Z</time></trkpt><trkpt lat="43.571010979449724" lon="11.339010926606155"><ele>398.5</ele><time>2026-03-29T18:11:02.999Z</time></trkpt><trkpt lat="43.571034657830424" lon="11.339095963005759"><ele>400.3333333333333</ele><time>2026-03-29T18:11:03.999Z</time></trkpt><trkpt lat="43.57104029372196" lon="11.339197813115259"><ele>402.16666666666663</ele><time>2026-03-29T18:11:04.999Z</time></trkpt><trkpt lat="43.5710461301248" lon="11.33931636964428"><ele>404.0</ele><time>2026-03-29T18:11:05.999Z</time></trkpt><trkpt lat="43.57105203942449" lon="11.339444668421445"><ele>404.0</ele><time>2026-03-29T18:11:06.999Z</time></trkpt><trkpt lat="43.57105935273906" lon="11.339570766703366"><ele>404.0</ele><time>2026-03-29T18:11:07.999Z</time></trkpt><trkpt lat="43.57106969074143" lon="11.339703338348231"><ele>404.0</ele><time>2026-03-29T18:11:08.999Z</time></trkpt><trkpt lat="43.57108818070122" lon="11.339839953044212"><ele>404.0</ele><time>2026-03-29T18:11:09.999Z</time></trkpt><trkpt lat="43.5711121049811" lon="11.33999289321739"><ele>404.0</ele><time>2026-03-29T18:11:10.999Z</time></trkpt><trkpt lat="43.571139048891325" lon="11.340139115282144"><ele>404.4</ele><time>2026-03-29T18:11:11.999Z</time></trkpt><trkpt lat="43.571163845142024" lon="11.340271916442"><ele>404.79999999999995</ele><time>2026-03-29T18:11:12.999Z</time></trkpt><trkpt lat="43.57118662676506" lon="11.340401428305297"><ele>405.20000000000005</ele><time>2026-03-29T18:11:13.999Z</time></trkpt><trkpt lat="43.571207762757076" lon="11.340534131684102"><ele>405.6</ele><time>2026-03-29T18:11:14.999Z</time></trkpt><trkpt lat="43.571228182764486" lon="11.340666769882422"><ele>406.0</ele><time>2026-03-29T18:11:15.999Z</time></trkpt><trkpt lat="43.57124749985322" lon="11.340802340267652"><ele>407.8</ele><time>2026-03-29T18:11:16.999Z</time></trkpt><trkpt lat="43.57126061445542" lon="11.34093676372236"><ele>409.6</ele><time>2026-03-29T18:11:17.999Z</time></trkpt><trkpt lat="43.57125412734387" lon="11.341064822785587"><ele>411.4</ele><time>2026-03-29T18:11:18.999Z</time></trkpt><trkpt lat="43.571284156304806" lon="11.34120301246834"><ele>413.2</ele><time>2026-03-29T18:11:19.999Z</time></trkpt><trkpt lat="43.571268146255775" lon="11.3413348445116"><ele>415.0</ele><time>2026-03-29T18:11:20.999Z</time></trkpt><trkpt lat="43.57124067905968" lon="11.341462457202136"><ele>417.0</ele><time>2026-03-29T18:11:21.999Z</time></trkpt><trkpt lat="43.57120550617199" lon="11.34158031072426"><ele>419.0</ele><time>2026-03-29T18:11:22.999Z</time></trkpt><trkpt lat="43.571140096820635" lon="11.34168254912777"><ele>421.0</ele><time>2026-03-29T18:11:23.999Z</time></trkpt><trkpt lat="43.57111773776917" lon="11.341833895853835"><ele>423.0</ele><time>2026-03-29T18:11:24.999Z</time></trkpt><trkpt lat="43.57110107057996" lon="11.341957815584376"><ele>425.0</ele><time>2026-03-29T18:11:25.999Z</time></trkpt><trkpt lat="43.571071843633135" lon="11.342057484293505"><ele>424.99999999999994</ele><time>2026-03-29T18:11:26.999Z</time></trkpt><trkpt lat="43.57102074818761" lon="11.342114928209337"><ele>425.0</ele><time>2026-03-29T18:11:27.999Z</time></trkpt><trkpt lat="43.570949343798176" lon="11.342170447044213"><ele>425.0</ele><time>2026-03-29T18:11:28.999Z</time></trkpt><trkpt lat="43.57087357884977" lon="11.342238175747061"><ele>425.0</ele><time>2026-03-29T18:11:29.999Z</time></trkpt><trkpt lat="43.57080843595754" lon="11.342294573887692"><ele>424.99999999999994</ele><time>2026-03-29T18:11:30.999Z</time></trkpt><trkpt lat="43.57074030707107" lon="11.342343625339918"><ele>425.0</ele><time>2026-03-29T18:11:31.999Z</time></trkpt><trkpt lat="43.57067829784693" lon="11.342380210821041"><ele>427.66666666666663</ele><time>2026-03-29T18:11:32.999Z</time></trkpt><trkpt lat="43.57061363871543" lon="11.342424763729882"><ele>430.3333333333333</ele><time>2026-03-29T18:11:33.999Z</time></trkpt><trkpt lat="43.57054792416361" lon="11.34248860712594"><ele>433.0</ele><time>2026-03-29T18:11:34.999Z</time></trkpt><trkpt lat="43.57050261904289" lon="11.342563449734795"><ele>435.66666666666663</ele><time>2026-03-29T18:11:35.999Z</time></trkpt><trkpt lat="43.57048732303557" lon="11.34266581365184"><ele>438.3333333333333</ele><time>2026-03-29T18:11:36.999Z</time></trkpt><trkpt lat="43.57054152265482" lon="11.342786605910746"><ele>441.0</ele><time>2026-03-29T18:11:37.999Z</time></trkpt><trkpt lat="43.57064648070229" lon="11.342840997642332"><ele>441.0</ele><time>2026-03-29T18:11:38.999Z</time></trkpt><trkpt lat="43.57072172853752" lon="11.342918115504627"><ele>441.0</ele><time>2026-03-29T18:11:39.999Z</time></trkpt><trkpt lat="43.57079404510744" lon="11.34301178414664"><ele>441.0</ele><time>2026-03-29T18:11:40.999Z</time></trkpt><trkpt lat="43.570868475670586" lon="11.343114303330779"><ele>441.0</ele><time>2026-03-29T18:11:41.999Z</time></trkpt><trkpt lat="43.57094052728808" lon="11.34322209853208"><ele>441.0</ele><time>2026-03-29T18:11:42.999Z</time></trkpt><trkpt lat="43.57101993360815" lon="11.343340354562947"><ele>442.6</ele><time>2026-03-29T18:11:43.999Z</time></trkpt><trkpt lat="43.57109981802989" lon="11.343454909586164"><ele>444.20000000000005</ele><time>2026-03-29T18:11:44.999Z</time></trkpt><trkpt lat="43.571184865040976" lon="11.343562357535111"><ele>445.79999999999995</ele><time>2026-03-29T18:11:45.999Z</time></trkpt><trkpt lat="43.5712725332393" lon="11.343646502213723"><ele>447.4</ele><time>2026-03-29T18:11:46.999Z</time></trkpt><trkpt lat="43.57135394099412" lon="11.343738544932204"><ele>449.0</ele><time>2026-03-29T18:11:47.999Z</time></trkpt><trkpt lat="43.57143494297482" lon="11.343838144651448"><ele>452.79999999999995</ele><time>2026-03-29T18:11:48.999Z</time></trkpt><trkpt lat="43.57150528594595" lon="11.343942119320019"><ele>456.59999999999997</ele><time>2026-03-29T18:11:49.999Z</time></trkpt><trkpt lat="43.571554346799466" lon="11.34406326373966"><ele>460.4</ele><time>2026-03-29T18:11:50.999Z</time></trkpt><trkpt lat="43.571603347809464" lon="11.34419618669631"><ele>464.2</ele><time>2026-03-29T18:11:51.999Z</time></trkpt><trkpt lat="43.57166566879401" lon="11.344322115930638"><ele>468.0</ele><time>2026-03-29T18:11:52.999Z</time></trkpt><trkpt lat="43.571741371677106" lon="11.344438474185026"><ele>468.0</ele><time>2026-03-29T18:11:53.999Z</time></trkpt><trkpt lat="43.57181335369342" lon="11.34455170369334"><ele>467.99999999999994</ele><time>2026-03-29T18:11:55Z</time></trkpt><trkpt lat="43.571886739072184" lon="11.344659832560287"><ele>467.99999999999994</ele><time>2026-03-29T18:11:56Z</time></trkpt><trkpt lat="43.57195024548769" lon="11.344756220381193"><ele>468.0</ele><time>2026-03-29T18:11:57Z</time></trkpt><trkpt lat="43.572002739149795" lon="11.344870951909618"><ele>468.0</ele><time>2026-03-29T18:11:58Z</time></trkpt><trkpt lat="43.57203774003621" lon="11.345000345921036"><ele>471.0</ele><time>2026-03-29T18:11:59Z</time></trkpt><trkpt lat="43.57206586865955" lon="11.34513835136454"><ele>473.99999999999994</ele><time>2026-03-29T18:12:00Z</time></trkpt><trkpt lat="43.57208642706955" lon="11.345277880288135"><ele>476.99999999999994</ele><time>2026-03-29T18:12:01Z</time></trkpt><trkpt lat="43.57210590590047" lon="11.345423623466045"><ele>480.0</ele><time>2026-03-29T18:12:02Z</time></trkpt><trkpt lat="43.572123028157066" lon="11.345570429039372"><ele>483.0</ele><time>2026-03-29T18:12:03Z</time></trkpt><trkpt lat="43.57214567083261" lon="11.345709028152013"><ele>484.4</ele><time>2026-03-29T18:12:04Z</time></trkpt><trkpt lat="43.57217458535483" lon="11.345839904635723"><ele>485.79999999999995</ele><time>2026-03-29T18:12:05Z</time></trkpt><trkpt lat="43.57222079817106" lon="11.345970411359442"><ele>487.2</ele><time>2026-03-29T18:12:06Z</time></trkpt><trkpt lat="43.5723011555272" lon="11.346089415694621"><ele>488.6</ele><time>2026-03-29T18:12:07Z</time></trkpt><trkpt lat="43.572384876356494" lon="11.346198918222566"><ele>490.0</ele><time>2026-03-29T18:12:08Z</time></trkpt><trkpt lat="43.57246760676812" lon="11.346301432247483"><ele>489.25</ele><time>2026-03-29T18:12:09Z</time></trkpt><trkpt lat="43.57254678937358" lon="11.346401713391277"><ele>488.5</ele><time>2026-03-29T18:12:10Z</time></trkpt><trkpt lat="43.572633287965644" lon="11.346499752082625"><ele>487.75</ele><time>2026-03-29T18:12:11Z</time></trkpt><trkpt lat="43.572729942084074" lon="11.346583576716798"><ele>487.0</ele><time>2026-03-29T18:12:12Z</time></trkpt><trkpt lat="43.57283859689827" lon="11.346647581402724"><ele>490.75</ele><time>2026-03-29T18:12:13Z</time></trkpt><trkpt lat="43.5729444946726" lon="11.34670457547612"><ele>494.5</ele><time>2026-03-29T18:12:14Z</time></trkpt><trkpt lat="43.57305306411937" lon="11.34676291418012"><ele>498.25</ele><time>2026-03-29T18:12:15Z</time></trkpt><trkpt lat="43.57315633874137" lon="11.346815492111844"><ele>502.0</ele><time>2026-03-29T18:12:16Z</time></trkpt><trkpt lat="43.573263128137576" lon="11.34686796248889"><ele>502.0</ele><time>2026-03-29T18:12:17Z</time></trkpt><trkpt lat="43.57336805387137" lon="11.346912210194512"><ele>502.00000000000006</ele><time>2026-03-29T18:12:18Z</time></trkpt><trkpt lat="43.57347281616105" lon="11.346931981794297"><ele>502.00000000000006</ele><time>2026-03-29T18:12:18.999Z</time></trkpt><trkpt lat="43.57357899984462" lon="11.34690931026347"><ele>502.0</ele><time>2026-03-29T18:12:19.999Z</time></trkpt><trkpt lat="43.57367106106482" lon="11.346914699910815"><ele>502.0</ele><time>2026-03-29T18:12:20.999Z</time></trkpt><trkpt lat="43.573750616613324" lon="11.346926724266995"><ele>503.00000000000006</ele><time>2026-03-29T18:12:21.999Z</time></trkpt><trkpt lat="43.57381849332905" lon="11.34697466903003"><ele>504.0</ele><time>2026-03-29T18:12:22.999Z</time></trkpt><trkpt lat="43.57389571257578" lon="11.346989589436042"><ele>505.0</ele><time>2026-03-29T18:12:23.999Z</time></trkpt><trkpt lat="43.573975914544256" lon="11.34697192280283"><ele>506.0</ele><time>2026-03-29T18:12:24.999Z</time></trkpt><trkpt lat="43.57404678182411" lon="11.34695433065298"><ele>507.00000000000006</ele><time>2026-03-29T18:12:25.999Z</time></trkpt><trkpt lat="43.57412410596577" lon="11.3469625983062"><ele>508.0</ele><time>2026-03-29T18:12:26.999Z</time></trkpt><trkpt lat="43.574203972576555" lon="11.34695919550806"><ele>508.0</ele><time>2026-03-29T18:12:28.999Z</time></trkpt><trkpt lat="43.5742187971636" lon="11.347056394082909"><ele>507.99999999999994</ele><time>2026-03-29T18:12:30.999Z</time></trkpt><trkpt lat="43.57423445392817" lon="11.347298272219199"><ele>507.99999999999994</ele><time>2026-03-29T18:12:31.999Z</time></trkpt><trkpt lat="43.574244148464274" lon="11.347389478935682"><ele>508.0</ele><time>2026-03-29T18:12:33.999Z</time></trkpt><trkpt lat="43.57425396187063" lon="11.347528944583553"><ele>508.0</ele><time>2026-03-29T18:12:37.999Z</time></trkpt><trkpt lat="43.57425617033719" lon="11.347650562520467"><ele>510.1666666666667</ele><time>2026-03-29T18:12:40.999Z</time></trkpt><trkpt lat="43.57426110681424" lon="11.347770761595378"><ele>512.3333333333334</ele><time>2026-03-29T18:12:42.999Z</time></trkpt><trkpt lat="43.57426869817274" lon="11.347907192571077"><ele>514.5</ele><time>2026-03-29T18:12:44.999Z</time></trkpt><trkpt lat="43.57427429631462" lon="11.347998820948572"><ele>516.6666666666666</ele><time>2026-03-29T18:12:45.999Z</time></trkpt><trkpt lat="43.574281870206505" lon="11.3480990832873"><ele>518.8333333333333</ele><time>2026-03-29T18:12:46.999Z</time></trkpt><trkpt lat="43.57429050042531" lon="11.348198043116671"><ele>521.0</ele><time>2026-03-29T18:12:47.999Z</time></trkpt><trkpt lat="43.57430021945411" lon="11.348286729264464"><ele>522.3333333333333</ele><time>2026-03-29T18:12:48.999Z</time></trkpt><trkpt lat="43.57431416982186" lon="11.348382835547689"><ele>523.6666666666666</ele><time>2026-03-29T18:12:49.999Z</time></trkpt><trkpt lat="43.57434207633701" lon="11.34846431077152"><ele>525.0</ele><time>2026-03-29T18:12:50.999Z</time></trkpt><trkpt lat="43.57437534385615" lon="11.348644829503897"><ele>526.3333333333334</ele><time>2026-03-29T18:12:52.999Z</time></trkpt><trkpt lat="43.57441216439619" lon="11.348763497020709"><ele>527.6666666666667</ele><time>2026-03-29T18:12:53.999Z</time></trkpt><trkpt lat="43.57444440790074" lon="11.348859793306575"><ele>529.0</ele><time>2026-03-29T18:12:54.999Z</time></trkpt><trkpt lat="43.57449427900039" lon="11.34899117002053"><ele>534.0</ele><time>2026-03-29T18:12:55.999Z</time></trkpt><trkpt lat="43.57453519434457" lon="11.349088429211957"><ele>539.0</ele><time>2026-03-29T18:12:56.999Z</time></trkpt><trkpt lat="43.57459455985202" lon="11.349230816391687"><ele>544.0</ele><time>2026-03-29T18:12:58.999Z</time></trkpt><trkpt lat="43.57461271531404" lon="11.34931801472629"><ele>549.0</ele><time>2026-03-29T18:12:59.999Z</time></trkpt><trkpt lat="43.57463177673427" lon="11.349411758911726"><ele>554.0</ele><time>2026-03-29T18:13:00.999Z</time></trkpt><trkpt lat="43.57474320702239" lon="11.349510819082388"><ele>554.0</ele><time>2026-03-29T18:13:02.999Z</time></trkpt><trkpt lat="43.574835348363386" lon="11.349453949386412"><ele>554.0</ele><time>2026-03-29T18:13:03.999Z</time></trkpt><trkpt lat="43.57489962642542" lon="11.349457542827544"><ele>554.0</ele><time>2026-03-29T18:13:04.999Z</time></trkpt><trkpt lat="43.57499664490609" lon="11.34955857018702"><ele>554.0</ele><time>2026-03-29T18:13:06.999Z</time></trkpt><trkpt lat="43.57510638283657" lon="11.349645622000926"><ele>554.0</ele><time>2026-03-29T18:13:08.999Z</time></trkpt><trkpt lat="43.57517788379457" lon="11.349670667347514"><ele>553.8</ele><time>2026-03-29T18:13:09.999Z</time></trkpt><trkpt lat="43.57526272816902" lon="11.349787406250174"><ele>553.5999999999999</ele><time>2026-03-29T18:13:11.999Z</time></trkpt><trkpt lat="43.57530879091961" lon="11.34990800405459"><ele>553.4</ele><time>2026-03-29T18:13:13.999Z</time></trkpt><trkpt lat="43.57537109634193" lon="11.350032328872281"><ele>553.1999999999999</ele><time>2026-03-29T18:13:15.999Z</time></trkpt><trkpt lat="43.57541336056127" lon="11.350108818132467"><ele>553.0</ele><time>2026-03-29T18:13:16.999Z</time></trkpt><trkpt lat="43.57549479874849" lon="11.350189095691276"><ele>555.6</ele><time>2026-03-29T18:13:17.999Z</time></trkpt><trkpt lat="43.57555869170293" lon="11.35032261516503"><ele>558.1999999999999</ele><time>2026-03-29T18:13:18.999Z</time></trkpt><trkpt lat="43.57562094581122" lon="11.350459414793214"><ele>560.8</ele><time>2026-03-29T18:13:19.999Z</time></trkpt><trkpt lat="43.57567453081482" lon="11.350527066043778"><ele>563.4</ele><time>2026-03-29T18:13:20.999Z</time></trkpt><trkpt lat="43.575749773613154" lon="11.350512130097767"><ele>566.0</ele><time>2026-03-29T18:13:21.999Z</time></trkpt><trkpt lat="43.57581592062953" lon="11.350575830717466"><ele>566.1666666666666</ele><time>2026-03-29T18:13:22.999Z</time></trkpt><trkpt lat="43.57589596982313" lon="11.350648192798422"><ele>566.3333333333333</ele><time>2026-03-29T18:13:23.999Z</time></trkpt><trkpt lat="43.57596205312029" lon="11.350713779373732"><ele>566.5</ele><time>2026-03-29T18:13:24.999Z</time></trkpt><trkpt lat="43.57603184235384" lon="11.35078304424651"><ele>566.6666666666666</ele><time>2026-03-29T18:13:25.999Z</time></trkpt><trkpt lat="43.576110821221434" lon="11.350855013026477"><ele>566.8333333333334</ele><time>2026-03-29T18:13:26.999Z</time></trkpt><trkpt lat="43.576190344019395" lon="11.350913079749587"><ele>567.0</ele><time>2026-03-29T18:13:27.999Z</time></trkpt><trkpt lat="43.57628185470508" lon="11.350949685439335"><ele>570.0</ele><time>2026-03-29T18:13:28.999Z</time></trkpt><trkpt lat="43.57635893303356" lon="11.350985752757605"><ele>573.0</ele><time>2026-03-29T18:13:29.999Z</time></trkpt><trkpt lat="43.5764520646478" lon="11.351003321382626"><ele>576.0</ele><time>2026-03-29T18:13:30.999Z</time></trkpt><trkpt lat="43.57653621205996" lon="11.35107070500337"><ele>579.0</ele><time>2026-03-29T18:13:31.999Z</time></trkpt><trkpt lat="43.57663532892144" lon="11.351096127257474"><ele>582.0</ele><time>2026-03-29T18:13:32.999Z</time></trkpt><trkpt lat="43.57672556614153" lon="11.351161390958437"><ele>582.0</ele><time>2026-03-29T18:13:33.999Z</time></trkpt><trkpt lat="43.576786585226216" lon="11.351204335207411"><ele>582.0</ele><time>2026-03-29T18:13:34.999Z</time></trkpt><trkpt lat="43.57684606871159" lon="11.351239505447149"><ele>582.0</ele><time>2026-03-29T18:13:35.999Z</time></trkpt><trkpt lat="43.576907305191256" lon="11.351263223999233"><ele>582.0</ele><time>2026-03-29T18:13:36.999Z</time></trkpt><trkpt lat="43.57705067547469" lon="11.351217572815663"><ele>582.0</ele><time>2026-03-29T18:13:38.999Z</time></trkpt><trkpt lat="43.577135459166215" lon="11.351151325137632"><ele>582.0</ele><time>2026-03-29T18:13:39.999Z</time></trkpt><trkpt lat="43.57720030630495" lon="11.351100401373458"><ele>582.8000000000001</ele><time>2026-03-29T18:13:40.999Z</time></trkpt><trkpt lat="43.57730891141134" lon="11.35105092599824"><ele>583.6</ele><time>2026-03-29T18:13:42.999Z</time></trkpt><trkpt lat="43.57737972415146" lon="11.351130547818379"><ele>584.4000000000001</ele><time>2026-03-29T18:13:44.999Z</time></trkpt><trkpt lat="43.57741578100069" lon="11.351219205903861"><ele>585.2</ele><time>2026-03-29T18:13:45.999Z</time></trkpt><trkpt lat="43.577449241135554" lon="11.351310035393693"><ele>586.0</ele><time>2026-03-29T18:13:46.999Z</time></trkpt><trkpt lat="43.57753534079981" lon="11.351440155291796"><ele>586.0</ele><time>2026-03-29T18:13:48.999Z</time></trkpt><trkpt lat="43.57760012967707" lon="11.351533876911008"><ele>586.0</ele><time>2026-03-29T18:13:49.999Z</time></trkpt><trkpt lat="43.57765201537098" lon="11.351631085267776"><ele>586.0</ele><time>2026-03-29T18:13:50.999Z</time></trkpt><trkpt lat="43.577700920132614" lon="11.351713193408566"><ele>586.0</ele><time>2026-03-29T18:13:51.999Z</time></trkpt><trkpt lat="43.57774390633984" lon="11.351790296490536"><ele>586.0</ele><time>2026-03-29T18:13:52.999Z</time></trkpt><trkpt lat="43.57779594405018" lon="11.351870591761655"><ele>586.0</ele><time>2026-03-29T18:13:53.999Z</time></trkpt><trkpt lat="43.577860927091756" lon="11.351951416639274"><ele>586.0</ele><time>2026-03-29T18:13:54.999Z</time></trkpt><trkpt lat="43.57792734578903" lon="11.352030974054568"><ele>586.0</ele><time>2026-03-29T18:13:55.999Z</time></trkpt><trkpt lat="43.57797942485974" lon="11.352092746189301"><ele>586.0</ele><time>2026-03-29T18:13:56.999Z</time></trkpt><trkpt lat="43.578050812866174" lon="11.352200105688798"><ele>586.0</ele><time>2026-03-29T18:13:58.999Z</time></trkpt><trkpt lat="43.57809439272709" lon="11.352272161954344"><ele>586.0</ele><time>2026-03-29T18:13:59.999Z</time></trkpt><trkpt lat="43.578173931467575" lon="11.352440899088755"><ele>588.4</ele><time>2026-03-29T18:14:02Z</time></trkpt><trkpt lat="43.57821997477893" lon="11.352561080755628"><ele>590.8</ele><time>2026-03-29T18:14:03Z</time></trkpt><trkpt lat="43.57827025252046" lon="11.352675707603794"><ele>593.1999999999999</ele><time>2026-03-29T18:14:04Z</time></trkpt><trkpt lat="43.578334775557416" lon="11.352778786918956"><ele>595.6</ele><time>2026-03-29T18:14:05Z</time></trkpt><trkpt lat="43.57840846054964" lon="11.35290182419406"><ele>598.0</ele><time>2026-03-29T18:14:06Z</time></trkpt><trkpt lat="43.57847950311381" lon="11.353049473596789"><ele>599.6</ele><time>2026-03-29T18:14:07Z</time></trkpt><trkpt lat="43.57853963894209" lon="11.353182635636275"><ele>601.1999999999999</ele><time>2026-03-29T18:14:08Z</time></trkpt><trkpt lat="43.57862882420776" lon="11.353320849415011"><ele>602.8</ele><time>2026-03-29T18:14:09Z</time></trkpt><trkpt lat="43.578698972165604" lon="11.353423374687145"><ele>604.4</ele><time>2026-03-29T18:14:10Z</time></trkpt><trkpt lat="43.57873948527465" lon="11.35351156776833"><ele>606.0</ele><time>2026-03-29T18:14:11Z</time></trkpt><trkpt lat="43.578732320772346" lon="11.35366203777592"><ele>606.0</ele><time>2026-03-29T18:14:13Z</time></trkpt><trkpt lat="43.57868343954535" lon="11.353740023291124"><ele>606.0</ele><time>2026-03-29T18:14:14Z</time></trkpt><trkpt lat="43.57863965536558" lon="11.353835609247353"><ele>606.0</ele><time>2026-03-29T18:14:15Z</time></trkpt><trkpt lat="43.57860569229322" lon="11.35393882122672"><ele>606.0</ele><time>2026-03-29T18:14:16Z</time></trkpt><trkpt lat="43.578563154318175" lon="11.354070580108973"><ele>606.0</ele><time>2026-03-29T18:14:17Z</time></trkpt><trkpt lat="43.578509972587206" lon="11.354227699627902"><ele>606.8333333333334</ele><time>2026-03-29T18:14:18Z</time></trkpt><trkpt lat="43.578470772760014" lon="11.354358556822033"><ele>607.6666666666666</ele><time>2026-03-29T18:14:19Z</time></trkpt><trkpt lat="43.578441228616185" lon="11.354461630193788"><ele>608.5</ele><time>2026-03-29T18:14:20Z</time></trkpt><trkpt lat="43.57842562907326" lon="11.354567791848712"><ele>609.3333333333333</ele><time>2026-03-29T18:14:21Z</time></trkpt><trkpt lat="43.57842067405402" lon="11.354693571968724"><ele>610.1666666666666</ele><time>2026-03-29T18:14:22Z</time></trkpt><trkpt lat="43.57839664559756" lon="11.354785865936243"><ele>611.0</ele><time>2026-03-29T18:14:23Z</time></trkpt><trkpt lat="43.578351892550806" lon="11.354872839344521"><ele>611.6</ele><time>2026-03-29T18:14:24Z</time></trkpt><trkpt lat="43.57828266297519" lon="11.354970975756238"><ele>612.2</ele><time>2026-03-29T18:14:24.999Z</time></trkpt><trkpt lat="43.57821522268873" lon="11.355065879185053"><ele>612.8</ele><time>2026-03-29T18:14:25.999Z</time></trkpt><trkpt lat="43.57815559803193" lon="11.355133015238279"><ele>613.4</ele><time>2026-03-29T18:14:26.999Z</time></trkpt><trkpt lat="43.57807944596879" lon="11.355183490809578"><ele>614.0</ele><time>2026-03-29T18:14:27.999Z</time></trkpt><trkpt lat="43.577995645274534" lon="11.355242645816123"><ele>614.0</ele><time>2026-03-29T18:14:28.999Z</time></trkpt><trkpt lat="43.577941598858295" lon="11.35530493941529"><ele>614.0</ele><time>2026-03-29T18:14:29.999Z</time></trkpt><trkpt lat="43.577893912583995" lon="11.355381220416994"><ele>614.0</ele><time>2026-03-29T18:14:30.999Z</time></trkpt><trkpt lat="43.57784798553742" lon="11.355484147009534"><ele>614.0</ele><time>2026-03-29T18:14:31.999Z</time></trkpt><trkpt lat="43.57780445176493" lon="11.355580584861414"><ele>614.0</ele><time>2026-03-29T18:14:32.999Z</time></trkpt><trkpt lat="43.57775844213182" lon="11.355675312050966"><ele>614.0</ele><time>2026-03-29T18:14:33.999Z</time></trkpt><trkpt lat="43.57770362134391" lon="11.35577774392749"><ele>615.8333333333333</ele><time>2026-03-29T18:14:34.999Z</time></trkpt><trkpt lat="43.577652700289576" lon="11.355862687543322"><ele>617.6666666666666</ele><time>2026-03-29T18:14:35.999Z</time></trkpt><trkpt lat="43.57759900087145" lon="11.35592215162927"><ele>619.5</ele><time>2026-03-29T18:14:36.999Z</time></trkpt><trkpt lat="43.57752424146279" lon="11.355961687033698"><ele>621.3333333333334</ele><time>2026-03-29T18:14:37.999Z</time></trkpt><trkpt lat="43.577451669802166" lon="11.356025721794492"><ele>623.1666666666667</ele><time>2026-03-29T18:14:38.999Z</time></trkpt><trkpt lat="43.5773812557668" lon="11.356101352591452"><ele>625.0</ele><time>2026-03-29T18:14:39.999Z</time></trkpt><trkpt lat="43.577295513451666" lon="11.356152252669874"><ele>625.0</ele><time>2026-03-29T18:14:40.999Z</time></trkpt><trkpt lat="43.577206303626824" lon="11.356191511561963"><ele>625.0</ele><time>2026-03-29T18:14:41.999Z</time></trkpt><trkpt lat="43.5771225325323" lon="11.356225635523469"><ele>625.0</ele><time>2026-03-29T18:14:42.999Z</time></trkpt><trkpt lat="43.57705379938937" lon="11.356272053932823"><ele>625.0</ele><time>2026-03-29T18:14:43.999Z</time></trkpt><trkpt lat="43.57696493294505" lon="11.356352482157995"><ele>625.0</ele><time>2026-03-29T18:14:44.999Z</time></trkpt><trkpt lat="43.5768996467586" lon="11.356423347307791"><ele>625.0</ele><time>2026-03-29T18:14:45.999Z</time></trkpt><trkpt lat="43.5768362041916" lon="11.35649955961464"><ele>626.2857142857143</ele><time>2026-03-29T18:14:46.999Z</time></trkpt><trkpt lat="43.576785025246735" lon="11.356581308514876"><ele>627.5714285714286</ele><time>2026-03-29T18:14:47.999Z</time></trkpt><trkpt lat="43.57674180030089" lon="11.35665686957894"><ele>628.8571428571429</ele><time>2026-03-29T18:14:48.999Z</time></trkpt><trkpt lat="43.57668580138882" lon="11.356716890317134"><ele>630.1428571428571</ele><time>2026-03-29T18:14:49.999Z</time></trkpt><trkpt lat="43.57662123494264" lon="11.356756715566254"><ele>631.4285714285714</ele><time>2026-03-29T18:14:50.999Z</time></trkpt><trkpt lat="43.57655337693211" lon="11.356797805754287"><ele>632.7142857142858</ele><time>2026-03-29T18:14:51.999Z</time></trkpt><trkpt lat="43.57648241585112" lon="11.35683862973647"><ele>634.0</ele><time>2026-03-29T18:14:52.999Z</time></trkpt><trkpt lat="43.576421537911806" lon="11.356873050846422"><ele>634.0</ele><time>2026-03-29T18:14:53.999Z</time></trkpt><trkpt lat="43.576354426085366" lon="11.356905569372342"><ele>634.0</ele><time>2026-03-29T18:14:54.999Z</time></trkpt><trkpt lat="43.5762546687384" lon="11.356869280304892"><ele>634.0</ele><time>2026-03-29T18:14:56.999Z</time></trkpt><trkpt lat="43.57616635954739" lon="11.356818975082529"><ele>634.0</ele><time>2026-03-29T18:14:58.999Z</time></trkpt><trkpt lat="43.57607890194966" lon="11.356906873601778"><ele>634.0</ele><time>2026-03-29T18:15:00.999Z</time></trkpt><trkpt lat="43.576099643553775" lon="11.35706916799002"><ele>633.1666666666667</ele><time>2026-03-29T18:15:02.999Z</time></trkpt><trkpt lat="43.576139494071064" lon="11.357143921650609"><ele>632.3333333333334</ele><time>2026-03-29T18:15:03.999Z</time></trkpt><trkpt lat="43.576193899979856" lon="11.357210586345895"><ele>631.5</ele><time>2026-03-29T18:15:04.999Z</time></trkpt><trkpt lat="43.576258040797136" lon="11.357247940636784"><ele>630.6666666666666</ele><time>2026-03-29T18:15:05.999Z</time></trkpt><trkpt lat="43.57633323098891" lon="11.357271180368922"><ele>629.8333333333333</ele><time>2026-03-29T18:15:06.999Z</time></trkpt><trkpt lat="43.57642134159604" lon="11.3573312506612"><ele>629.0</ele><time>2026-03-29T18:15:07.999Z</time></trkpt><trkpt lat="43.576503937046006" lon="11.357392632493598"><ele>631.8333333333333</ele><time>2026-03-29T18:15:08.999Z</time></trkpt><trkpt lat="43.576586936363654" lon="11.35744711376066"><ele>634.6666666666666</ele><time>2026-03-29T18:15:09.999Z</time></trkpt><trkpt lat="43.576660395285636" lon="11.357510371290545"><ele>637.5</ele><time>2026-03-29T18:15:10.999Z</time></trkpt><trkpt lat="43.57673554060027" lon="11.357584085453212"><ele>640.3333333333334</ele><time>2026-03-29T18:15:11.999Z</time></trkpt><trkpt lat="43.576804852856185" lon="11.357637362028795"><ele>643.1666666666667</ele><time>2026-03-29T18:15:12.999Z</time></trkpt><trkpt lat="43.576858287066244" lon="11.357687243634684"><ele>646.0</ele><time>2026-03-29T18:15:13.999Z</time></trkpt><trkpt lat="43.5769125543906" lon="11.357751155579553"><ele>646.0</ele><time>2026-03-29T18:15:14.999Z</time></trkpt><trkpt lat="43.57696110137175" lon="11.357835756875838"><ele>646.0</ele><time>2026-03-29T18:15:15.999Z</time></trkpt><trkpt lat="43.577021965847614" lon="11.357939714658295"><ele>646.0</ele><time>2026-03-29T18:15:16.999Z</time></trkpt><trkpt lat="43.57708435683673" lon="11.358033550189322"><ele>646.0</ele><time>2026-03-29T18:15:17.999Z</time></trkpt><trkpt lat="43.5771536665209" lon="11.358135002951963"><ele>646.0</ele><time>2026-03-29T18:15:18.999Z</time></trkpt><trkpt lat="43.57721368756352" lon="11.358244915273291"><ele>647.1999999999999</ele><time>2026-03-29T18:15:19.999Z</time></trkpt><trkpt lat="43.57724938964685" lon="11.358369002603009"><ele>648.4</ele><time>2026-03-29T18:15:20.999Z</time></trkpt><trkpt lat="43.57727496748553" lon="11.358503882534974"><ele>649.6</ele><time>2026-03-29T18:15:21.999Z</time></trkpt><trkpt lat="43.57730324928424" lon="11.358630898246785"><ele>650.8</ele><time>2026-03-29T18:15:22.999Z</time></trkpt><trkpt lat="43.57733702144119" lon="11.358742606830951"><ele>652.0</ele><time>2026-03-29T18:15:23.999Z</time></trkpt><trkpt lat="43.57737906347193" lon="11.358853391530568"><ele>651.6</ele><time>2026-03-29T18:15:24.999Z</time></trkpt><trkpt lat="43.57743126290162" lon="11.358965738347026"><ele>651.2</ele><time>2026-03-29T18:15:25.999Z</time></trkpt><trkpt lat="43.57749180889164" lon="11.35909571677415"><ele>650.8</ele><time>2026-03-29T18:15:26.999Z</time></trkpt><trkpt lat="43.57755781723123" lon="11.35923224825455"><ele>650.4</ele><time>2026-03-29T18:15:27.999Z</time></trkpt><trkpt lat="43.57762219756853" lon="11.35936811757931"><ele>650.0</ele><time>2026-03-29T18:15:28.999Z</time></trkpt><trkpt lat="43.57768606227489" lon="11.359506304545206"><ele>650.0</ele><time>2026-03-29T18:15:29.999Z</time></trkpt><trkpt lat="43.57774667975145" lon="11.359626743689228"><ele>650.0</ele><time>2026-03-29T18:15:30.999Z</time></trkpt><trkpt lat="43.57779432366889" lon="11.359744728108575"><ele>650.0</ele><time>2026-03-29T18:15:31.999Z</time></trkpt><trkpt lat="43.577840361054804" lon="11.359855600721932"><ele>650.0</ele><time>2026-03-29T18:15:32.999Z</time></trkpt><trkpt lat="43.57788522204067" lon="11.35996402249717"><ele>650.0</ele><time>2026-03-29T18:15:33.999Z</time></trkpt><trkpt lat="43.5779337105428" lon="11.360041811430365"><ele>648.0</ele><time>2026-03-29T18:15:34.999Z</time></trkpt><trkpt lat="43.57797750629953" lon="11.360140912506342"><ele>646.0</ele><time>2026-03-29T18:15:35.999Z</time></trkpt><trkpt lat="43.578040803653494" lon="11.360241377403717"><ele>644.0</ele><time>2026-03-29T18:15:36.999Z</time></trkpt><trkpt lat="43.5780856207119" lon="11.36036038728401"><ele>642.0</ele><time>2026-03-29T18:15:37.999Z</time></trkpt><trkpt lat="43.57813389843247" lon="11.360456582427435"><ele>640.0</ele><time>2026-03-29T18:15:38.999Z</time></trkpt><trkpt lat="43.57812362088529" lon="11.360592042674826"><ele>639.6666666666667</ele><time>2026-03-29T18:15:39.999Z</time></trkpt><trkpt lat="43.57812789658098" lon="11.360693099946712"><ele>639.3333333333334</ele><time>2026-03-29T18:15:40.999Z</time></trkpt><trkpt lat="43.578172170167434" lon="11.360817172701655"><ele>639.0</ele><time>2026-03-29T18:15:41.999Z</time></trkpt><trkpt lat="43.57816246578664" lon="11.360956641066126"><ele>638.6666666666666</ele><time>2026-03-29T18:15:42.999Z</time></trkpt><trkpt lat="43.57815453234522" lon="11.361055797441905"><ele>638.3333333333333</ele><time>2026-03-29T18:15:43.999Z</time></trkpt><trkpt lat="43.57813681851995" lon="11.361146493159445"><ele>638.0</ele><time>2026-03-29T18:15:44.999Z</time></trkpt><trkpt lat="43.578111422757964" lon="11.361235696398737"><ele>638.0</ele><time>2026-03-29T18:15:45.999Z</time></trkpt><trkpt lat="43.57810459353097" lon="11.361326434700628"><ele>638.0</ele><time>2026-03-29T18:15:46.999Z</time></trkpt><trkpt lat="43.578120615336374" lon="11.361416375161449"><ele>638.0</ele><time>2026-03-29T18:15:47.999Z</time></trkpt><trkpt lat="43.578156270190775" lon="11.361500624585405"><ele>638.0</ele><time>2026-03-29T18:15:48.999Z</time></trkpt><trkpt lat="43.57819808041161" lon="11.36159934807649"><ele>638.0</ele><time>2026-03-29T18:15:49.999Z</time></trkpt><trkpt lat="43.578232165857706" lon="11.361695530735902"><ele>638.0</ele><time>2026-03-29T18:15:50.999Z</time></trkpt><trkpt lat="43.5782530648844" lon="11.361782996995917"><ele>638.0</ele><time>2026-03-29T18:15:51.999Z</time></trkpt><trkpt lat="43.578262311885055" lon="11.361878088330016"><ele>637.6666666666666</ele><time>2026-03-29T18:15:52.999Z</time></trkpt><trkpt lat="43.57826425784027" lon="11.361976514737933"><ele>637.3333333333333</ele><time>2026-03-29T18:15:53.999Z</time></trkpt><trkpt lat="43.57825834128669" lon="11.362088641961533"><ele>637.0</ele><time>2026-03-29T18:15:54.999Z</time></trkpt><trkpt lat="43.57825857619594" lon="11.362216618983714"><ele>636.6666666666666</ele><time>2026-03-29T18:15:55.999Z</time></trkpt><trkpt lat="43.578259264002924" lon="11.36232453646393"><ele>636.3333333333334</ele><time>2026-03-29T18:15:56.999Z</time></trkpt><trkpt lat="43.578258794910475" lon="11.362443430111464"><ele>636.0</ele><time>2026-03-29T18:15:57.999Z</time></trkpt><trkpt lat="43.57823956191958" lon="11.362550122156936"><ele>635.0</ele><time>2026-03-29T18:15:58.999Z</time></trkpt><trkpt lat="43.57820611701664" lon="11.362639048328244"><ele>634.0</ele><time>2026-03-29T18:15:59.999Z</time></trkpt><trkpt lat="43.57815734199444" lon="11.362708341550071"><ele>633.0</ele><time>2026-03-29T18:16:00.999Z</time></trkpt><trkpt lat="43.578100255350364" lon="11.362770319641097"><ele>632.0</ele><time>2026-03-29T18:16:01.999Z</time></trkpt><trkpt lat="43.578047154445535" lon="11.36285473978702"><ele>631.0</ele><time>2026-03-29T18:16:02.999Z</time></trkpt><trkpt lat="43.57799146351868" lon="11.362935935578705"><ele>630.0</ele><time>2026-03-29T18:16:03.999Z</time></trkpt><trkpt lat="43.577922636355055" lon="11.36300852141057"><ele>629.8333333333334</ele><time>2026-03-29T18:16:04.999Z</time></trkpt><trkpt lat="43.57785965774171" lon="11.363058649991821"><ele>629.6666666666666</ele><time>2026-03-29T18:16:06Z</time></trkpt><trkpt lat="43.577807011772485" lon="11.363121449735353"><ele>629.5</ele><time>2026-03-29T18:16:07Z</time></trkpt><trkpt lat="43.57777105772354" lon="11.36320161670195"><ele>629.3333333333333</ele><time>2026-03-29T18:16:08Z</time></trkpt><trkpt lat="43.577756973682895" lon="11.36334641919934"><ele>629.1666666666666</ele><time>2026-03-29T18:16:10Z</time></trkpt><trkpt lat="43.57766152347874" lon="11.363433056272022"><ele>629.0</ele><time>2026-03-29T18:16:12Z</time></trkpt><trkpt lat="43.57755648683213" lon="11.363497178662445"><ele>629.0</ele><time>2026-03-29T18:16:13Z</time></trkpt><trkpt lat="43.57747690182651" lon="11.363593316761994"><ele>629.0</ele><time>2026-03-29T18:16:14Z</time></trkpt><trkpt lat="43.57741877715175" lon="11.363676723051704"><ele>629.0</ele><time>2026-03-29T18:16:15Z</time></trkpt><trkpt lat="43.57735965448037" lon="11.363741371550926"><ele>629.0</ele><time>2026-03-29T18:16:16Z</time></trkpt><trkpt lat="43.57725782819464" lon="11.363763339880137"><ele>629.0</ele><time>2026-03-29T18:16:18Z</time></trkpt><trkpt lat="43.57719001967076" lon="11.363843112585114"><ele>632.2</ele><time>2026-03-29T18:16:20Z</time></trkpt><trkpt lat="43.577108387917946" lon="11.363918898228407"><ele>635.4</ele><time>2026-03-29T18:16:22Z</time></trkpt><trkpt lat="43.57696829254242" lon="11.363909828186566"><ele>638.6</ele><time>2026-03-29T18:16:24Z</time></trkpt><trkpt lat="43.576892764010424" lon="11.36391782620791"><ele>641.8</ele><time>2026-03-29T18:16:25Z</time></trkpt><trkpt lat="43.57682000300797" lon="11.363925818598421"><ele>645.0</ele><time>2026-03-29T18:16:26Z</time></trkpt><trkpt lat="43.57674639196179" lon="11.363909859656975"><ele>647.0</ele><time>2026-03-29T18:16:26.999Z</time></trkpt><trkpt lat="43.57667755469048" lon="11.363894689546607"><ele>649.0</ele><time>2026-03-29T18:16:27.999Z</time></trkpt><trkpt lat="43.57659787743551" lon="11.363868790590265"><ele>651.0</ele><time>2026-03-29T18:16:28.999Z</time></trkpt><trkpt lat="43.57650875701845" lon="11.363853737746966"><ele>653.0</ele><time>2026-03-29T18:16:29.999Z</time></trkpt><trkpt lat="43.576410804579794" lon="11.363835155091286"><ele>655.0</ele><time>2026-03-29T18:16:30.999Z</time></trkpt><trkpt lat="43.57632328046124" lon="11.363813924004862"><ele>657.0</ele><time>2026-03-29T18:16:31.999Z</time></trkpt><trkpt lat="43.57623520842298" lon="11.363798049706585"><ele>652.2</ele><time>2026-03-29T18:16:32.999Z</time></trkpt><trkpt lat="43.57614433544558" lon="11.363774555036683"><ele>647.4000000000001</ele><time>2026-03-29T18:16:33.999Z</time></trkpt><trkpt lat="43.57606185593481" lon="11.363742701704405"><ele>642.5999999999999</ele><time>2026-03-29T18:16:34.999Z</time></trkpt><trkpt lat="43.57599673784741" lon="11.36372862110989"><ele>637.8</ele><time>2026-03-29T18:16:35.999Z</time></trkpt><trkpt lat="43.5758691503207" lon="11.363776086547393"><ele>633.0</ele><time>2026-03-29T18:16:37.999Z</time></trkpt><trkpt lat="43.5757735909415" lon="11.36383892749415"><ele>637.8</ele><time>2026-03-29T18:16:38.999Z</time></trkpt><trkpt lat="43.57568984976371" lon="11.363896964459071"><ele>642.5999999999999</ele><time>2026-03-29T18:16:39.999Z</time></trkpt><trkpt lat="43.57562151540928" lon="11.363927901643114"><ele>647.4000000000001</ele><time>2026-03-29T18:16:40.999Z</time></trkpt><trkpt lat="43.57552037695861" lon="11.363981122986415"><ele>652.2</ele><time>2026-03-29T18:16:42.999Z</time></trkpt><trkpt lat="43.575427117448626" lon="11.363928304044208"><ele>657.0</ele><time>2026-03-29T18:16:44.999Z</time></trkpt><trkpt lat="43.57534008290066" lon="11.36384568793427"><ele>657.0</ele><time>2026-03-29T18:16:46.999Z</time></trkpt><trkpt lat="43.575282641804044" lon="11.363809020722394"><ele>657.0</ele><time>2026-03-29T18:16:47.999Z</time></trkpt><trkpt lat="43.57516569977523" lon="11.363722587188764"><ele>657.0</ele><time>2026-03-29T18:16:49.999Z</time></trkpt><trkpt lat="43.57510381350442" lon="11.363680242102458"><ele>657.0</ele><time>2026-03-29T18:16:50.999Z</time></trkpt><trkpt lat="43.57504357747361" lon="11.363619146840124"><ele>657.0</ele><time>2026-03-29T18:16:51.999Z</time></trkpt><trkpt lat="43.57498883847921" lon="11.36353945515909"><ele>657.0</ele><time>2026-03-29T18:16:52.999Z</time></trkpt><trkpt lat="43.57493788410325" lon="11.363487966178228"><ele>657.0</ele><time>2026-03-29T18:16:53.999Z</time></trkpt><trkpt lat="43.57482702148357" lon="11.363432355673373"><ele>657.0</ele><time>2026-03-29T18:16:55.999Z</time></trkpt><trkpt lat="43.57471822946604" lon="11.363447490520754"><ele>657.0</ele><time>2026-03-29T18:16:57.999Z</time></trkpt><trkpt lat="43.57463996308585" lon="11.363518026261762"><ele>657.0</ele><time>2026-03-29T18:16:59.999Z</time></trkpt><trkpt lat="43.57453982711946" lon="11.363603463245322"><ele>657.0</ele><time>2026-03-29T18:17:01.999Z</time></trkpt><trkpt lat="43.57446375531719" lon="11.363674568347484"><ele>656.8</ele><time>2026-03-29T18:17:03.999Z</time></trkpt><trkpt lat="43.57438452337743" lon="11.363785389624752"><ele>656.6</ele><time>2026-03-29T18:17:05.999Z</time></trkpt><trkpt lat="43.5743493112267" lon="11.363902585996003"><ele>656.4</ele><time>2026-03-29T18:17:07.999Z</time></trkpt><trkpt lat="43.57430150590929" lon="11.364025204926577"><ele>656.1999999999999</ele><time>2026-03-29T18:17:09.999Z</time></trkpt><trkpt lat="43.574271162250554" lon="11.36412895892545"><ele>656.0</ele><time>2026-03-29T18:17:11.999Z</time></trkpt><trkpt lat="43.574211420600776" lon="11.364263812832151"><ele>660.0</ele><time>2026-03-29T18:17:13.999Z</time></trkpt><trkpt lat="43.57414548006232" lon="11.364416963465358"><ele>664.0</ele><time>2026-03-29T18:17:15.999Z</time></trkpt><trkpt lat="43.574131922713256" lon="11.364512393051129"><ele>668.0</ele><time>2026-03-29T18:17:17.999Z</time></trkpt><trkpt lat="43.574094494216894" lon="11.36461748081326"><ele>672.0</ele><time>2026-03-29T18:17:19.999Z</time></trkpt><trkpt lat="43.57403375590402" lon="11.364694062548265"><ele>676.0</ele><time>2026-03-29T18:17:21.999Z</time></trkpt><trkpt lat="43.57400882160671" lon="11.364834710372794"><ele>678.6666666666667</ele><time>2026-03-29T18:17:23.999Z</time></trkpt><trkpt lat="43.57397466002091" lon="11.364907757322824"><ele>681.3333333333334</ele><time>2026-03-29T18:17:24.999Z</time></trkpt><trkpt lat="43.5739648452016" lon="11.364995540516292"><ele>684.0</ele><time>2026-03-29T18:17:25.999Z</time></trkpt><trkpt lat="43.57394950390148" lon="11.365116597384855"><ele>686.6666666666666</ele><time>2026-03-29T18:17:27.999Z</time></trkpt><trkpt lat="43.57394465763246" lon="11.365222423603415"><ele>689.3333333333333</ele><time>2026-03-29T18:17:28.999Z</time></trkpt><trkpt lat="43.57395584506827" lon="11.365370717039394"><ele>692.0</ele><time>2026-03-29T18:17:30.999Z</time></trkpt><trkpt lat="43.57393368721416" lon="11.365542726588924"><ele>693.4000000000001</ele><time>2026-03-29T18:17:32.999Z</time></trkpt><trkpt lat="43.57395468645138" lon="11.365664154069691"><ele>694.8000000000001</ele><time>2026-03-29T18:17:33.999Z</time></trkpt><trkpt lat="43.57394604192743" lon="11.365781428529655"><ele>696.2</ele><time>2026-03-29T18:17:34.999Z</time></trkpt><trkpt lat="43.57394065382721" lon="11.365868523986752"><ele>697.6</ele><time>2026-03-29T18:17:35.999Z</time></trkpt><trkpt lat="43.57394066064302" lon="11.365970469788206"><ele>699.0</ele><time>2026-03-29T18:17:36.999Z</time></trkpt><trkpt lat="43.573957228344824" lon="11.366166451014696"><ele>699.0</ele><time>2026-03-29T18:17:38.999Z</time></trkpt><trkpt lat="43.57396707876337" lon="11.366341263595892"><ele>699.0</ele><time>2026-03-29T18:17:40.999Z</time></trkpt><trkpt lat="43.57396449612288" lon="11.366453981541946"><ele>699.0</ele><time>2026-03-29T18:17:41.999Z</time></trkpt><trkpt lat="43.57395826314011" lon="11.366566316865669"><ele>699.0</ele><time>2026-03-29T18:17:42.999Z</time></trkpt><trkpt lat="43.57396135013601" lon="11.366666857249317"><ele>699.0</ele><time>2026-03-29T18:17:43.999Z</time></trkpt><trkpt lat="43.57395680172776" lon="11.366761555119751"><ele>699.0</ele><time>2026-03-29T18:17:44.999Z</time></trkpt><trkpt lat="43.5739416387556" lon="11.366925141155546"><ele>699.2</ele><time>2026-03-29T18:17:46.999Z</time></trkpt><trkpt lat="43.573967924553926" lon="11.367058115489769"><ele>699.4000000000001</ele><time>2026-03-29T18:17:48.999Z</time></trkpt><trkpt lat="43.57403306282552" lon="11.367114049326263"><ele>699.6</ele><time>2026-03-29T18:17:50.999Z</time></trkpt><trkpt lat="43.57407566863284" lon="11.366980431146981"><ele>699.8</ele><time>2026-03-29T18:17:52.999Z</time></trkpt><trkpt lat="43.574095169076394" lon="11.366858437526755"><ele>700.0</ele><time>2026-03-29T18:17:54.999Z</time></trkpt><trkpt lat="43.57413384215521" lon="11.366737056151575"><ele>700.0</ele><time>2026-03-29T18:17:56.999Z</time></trkpt><trkpt lat="43.574207122841024" lon="11.36662862886429"><ele>700.0</ele><time>2026-03-29T18:17:58.999Z</time></trkpt><trkpt lat="43.5742549059823" lon="11.366541428747283"><ele>700.0</ele><time>2026-03-29T18:18:00.999Z</time></trkpt><trkpt lat="43.57431314638632" lon="11.366427289907893"><ele>700.0</ele><time>2026-03-29T18:18:02.999Z</time></trkpt><trkpt lat="43.57436320917558" lon="11.36630378728797"><ele>700.0</ele><time>2026-03-29T18:18:04.999Z</time></trkpt><trkpt lat="43.57442122344676" lon="11.366215870259065"><ele>699.8</ele><time>2026-03-29T18:18:06.999Z</time></trkpt><trkpt lat="43.57448779572547" lon="11.36609935312556"><ele>699.6</ele><time>2026-03-29T18:18:08.999Z</time></trkpt><trkpt lat="43.574557039322926" lon="11.365975649132993"><ele>699.4000000000001</ele><time>2026-03-29T18:18:10.999Z</time></trkpt><trkpt lat="43.57463601296614" lon="11.36588010987299"><ele>699.2</ele><time>2026-03-29T18:18:12.999Z</time></trkpt><trkpt lat="43.57475064807096" lon="11.36582054435428"><ele>699.0</ele><time>2026-03-29T18:18:14.999Z</time></trkpt><trkpt lat="43.574816357849336" lon="11.365786787179374"><ele>702.2</ele><time>2026-03-29T18:18:15.999Z</time></trkpt><trkpt lat="43.57488977241289" lon="11.365742050457506"><ele>705.4000000000001</ele><time>2026-03-29T18:18:16.999Z</time></trkpt><trkpt lat="43.57497223478629" lon="11.365754952601476"><ele>708.6</ele><time>2026-03-29T18:18:18.999Z</time></trkpt><trkpt lat="43.57499222482186" lon="11.365891286238876"><ele>711.8</ele><time>2026-03-29T18:18:20.999Z</time></trkpt><trkpt lat="43.57499038871318" lon="11.366003713001376"><ele>715.0</ele><time>2026-03-29T18:18:22.999Z</time></trkpt><trkpt lat="43.575067140270995" lon="11.366111439453327"><ele>715.0</ele><time>2026-03-29T18:18:24.999Z</time></trkpt><trkpt lat="43.57510554470937" lon="11.36621383875084"><ele>715.0</ele><time>2026-03-29T18:18:26.999Z</time></trkpt><trkpt lat="43.575162636841895" lon="11.366319579104418"><ele>715.0</ele><time>2026-03-29T18:18:28.999Z</time></trkpt><trkpt lat="43.57521799502045" lon="11.366439699704284"><ele>715.0</ele><time>2026-03-29T18:18:30.999Z</time></trkpt><trkpt lat="43.57525727635008" lon="11.366562667688767"><ele>715.0</ele><time>2026-03-29T18:18:32.999Z</time></trkpt><trkpt lat="43.575287878277" lon="11.36669128554251"><ele>717.0</ele><time>2026-03-29T18:18:34.999Z</time></trkpt><trkpt lat="43.57535271433336" lon="11.366801632185908"><ele>719.0</ele><time>2026-03-29T18:18:36.999Z</time></trkpt><trkpt lat="43.57541292549041" lon="11.366919113958666"><ele>721.0</ele><time>2026-03-29T18:18:38.999Z</time></trkpt><trkpt lat="43.57545846952098" lon="11.3670409571586"><ele>723.0</ele><time>2026-03-29T18:18:40.999Z</time></trkpt><trkpt lat="43.575524811759145" lon="11.367176227057694"><ele>725.0</ele><time>2026-03-29T18:18:42.999Z</time></trkpt><trkpt lat="43.5755924816404" lon="11.367269451981038"><ele>725.8333333333333</ele><time>2026-03-29T18:18:44.999Z</time></trkpt><trkpt lat="43.57564029641157" lon="11.367353308657085"><ele>726.6666666666666</ele><time>2026-03-29T18:18:45.999Z</time></trkpt><trkpt lat="43.57569275949026" lon="11.367424854359275"><ele>727.5</ele><time>2026-03-29T18:18:46.999Z</time></trkpt><trkpt lat="43.57575355244644" lon="11.367504304456498"><ele>728.3333333333334</ele><time>2026-03-29T18:18:48.999Z</time></trkpt><trkpt lat="43.57581229833158" lon="11.367621892524191"><ele>729.1666666666667</ele><time>2026-03-29T18:18:50.999Z</time></trkpt><trkpt lat="43.575878910787345" lon="11.367728753744922"><ele>730.0</ele><time>2026-03-29T18:18:52.999Z</time></trkpt><trkpt lat="43.57595407320525" lon="11.367843888061529"><ele>730.0</ele><time>2026-03-29T18:18:54.999Z</time></trkpt><trkpt lat="43.57600478037381" lon="11.367959871471419"><ele>730.0</ele><time>2026-03-29T18:18:56.999Z</time></trkpt><trkpt lat="43.57602512357625" lon="11.368068405038455"><ele>730.0</ele><time>2026-03-29T18:18:58.999Z</time></trkpt><trkpt lat="43.57602333155901" lon="11.368202672913581"><ele>730.0</ele><time>2026-03-29T18:19:00.999Z</time></trkpt><trkpt lat="43.576048839957274" lon="11.368349711871076"><ele>730.0</ele><time>2026-03-29T18:19:02.999Z</time></trkpt><trkpt lat="43.57604945593289" lon="11.368514924180923"><ele>730.2</ele><time>2026-03-29T18:19:04.999Z</time></trkpt><trkpt lat="43.57602821703596" lon="11.368658788465499"><ele>730.4</ele><time>2026-03-29T18:19:06.999Z</time></trkpt><trkpt lat="43.576039384293225" lon="11.368780977318657"><ele>730.5999999999999</ele><time>2026-03-29T18:19:08.999Z</time></trkpt><trkpt lat="43.57608030417067" lon="11.36889767092624"><ele>730.8</ele><time>2026-03-29T18:19:10.999Z</time></trkpt><trkpt lat="43.57605336086815" lon="11.369036021665785"><ele>731.0</ele><time>2026-03-29T18:19:12.999Z</time></trkpt><trkpt lat="43.576010582699205" lon="11.369184078322542"><ele>731.8</ele><time>2026-03-29T18:19:14.999Z</time></trkpt><trkpt lat="43.57598753995917" lon="11.369342198729989"><ele>732.5999999999999</ele><time>2026-03-29T18:19:16.999Z</time></trkpt><trkpt lat="43.575975240763405" lon="11.369492003837292"><ele>733.4</ele><time>2026-03-29T18:19:18.999Z</time></trkpt><trkpt lat="43.57597113007918" lon="11.369582258241683"><ele>734.2</ele><time>2026-03-29T18:19:19.999Z</time></trkpt><trkpt lat="43.57597305341034" lon="11.369702027288483"><ele>735.0</ele><time>2026-03-29T18:19:21.999Z</time></trkpt><trkpt lat="43.575988304957235" lon="11.369845886658913"><ele>735.0</ele><time>2026-03-29T18:19:23.999Z</time></trkpt><trkpt lat="43.57599267844918" lon="11.369939149193206"><ele>735.0</ele><time>2026-03-29T18:19:25.999Z</time></trkpt><trkpt lat="43.5760076654527" lon="11.370045100468198"><ele>735.0</ele><time>2026-03-29T18:19:27.999Z</time></trkpt><trkpt lat="43.576006830963216" lon="11.370144578368242"><ele>735.0</ele><time>2026-03-29T18:19:29.999Z</time></trkpt><trkpt lat="43.576029505566666" lon="11.370245474793128"><ele>735.0</ele><time>2026-03-29T18:19:31.999Z</time></trkpt><trkpt lat="43.5760083791157" lon="11.370339934395012"><ele>735.0</ele><time>2026-03-29T18:19:33.999Z</time></trkpt><trkpt lat="43.576016781111505" lon="11.37042990520108"><ele>735.0</ele><time>2026-03-29T18:19:35.999Z</time></trkpt><trkpt lat="43.576058423279484" lon="11.370507923368313"><ele>734.0</ele><time>2026-03-29T18:19:37.999Z</time></trkpt><trkpt lat="43.57610682787883" lon="11.370619505654384"><ele>733.0</ele><time>2026-03-29T18:19:39.999Z</time></trkpt><trkpt lat="43.576116779157765" lon="11.370750285563675"><ele>732.0</ele><time>2026-03-29T18:19:41.999Z</time></trkpt><trkpt lat="43.576085828461586" lon="11.370888190681615"><ele>731.0</ele><time>2026-03-29T18:19:43.999Z</time></trkpt><trkpt lat="43.57605142872397" lon="11.371006281127892"><ele>730.0</ele><time>2026-03-29T18:19:45.999Z</time></trkpt><trkpt lat="43.576021958181556" lon="11.371103307844061"><ele>730.0</ele><time>2026-03-29T18:19:47.999Z</time></trkpt><trkpt lat="43.576008814974756" lon="11.371210634008776"><ele>730.0</ele><time>2026-03-29T18:19:49.999Z</time></trkpt><trkpt lat="43.57599796048727" lon="11.371348286829292"><ele>730.0</ele><time>2026-03-29T18:19:51.999Z</time></trkpt><trkpt lat="43.575978790170744" lon="11.371449407801467"><ele>730.0</ele><time>2026-03-29T18:19:53.999Z</time></trkpt><trkpt lat="43.57594973506658" lon="11.371546732282225"><ele>730.0</ele><time>2026-03-29T18:19:55.999Z</time></trkpt><trkpt lat="43.57592459443181" lon="11.371691561906283"><ele>730.0</ele><time>2026-03-29T18:19:57.999Z</time></trkpt><trkpt lat="43.575903732059864" lon="11.37183088672555"><ele>729.6666666666667</ele><time>2026-03-29T18:19:59.999Z</time></trkpt><trkpt lat="43.57589619603043" lon="11.371942009100866"><ele>729.3333333333334</ele><time>2026-03-29T18:20:01.999Z</time></trkpt><trkpt lat="43.57588785457066" lon="11.372045067636305"><ele>729.0</ele><time>2026-03-29T18:20:03.999Z</time></trkpt><trkpt lat="43.57587120312834" lon="11.37215402631142"><ele>728.6666666666666</ele><time>2026-03-29T18:20:05.999Z</time></trkpt><trkpt lat="43.575861097475865" lon="11.372278744943955"><ele>728.3333333333333</ele><time>2026-03-29T18:20:07.999Z</time></trkpt><trkpt lat="43.575864961133185" lon="11.372374664421391"><ele>728.0</ele><time>2026-03-29T18:20:09.999Z</time></trkpt><trkpt lat="43.57585114481349" lon="11.372495693165199"><ele>727.6666666666666</ele><time>2026-03-29T18:20:11.999Z</time></trkpt><trkpt lat="43.57587525401117" lon="11.372641984721957"><ele>727.3333333333333</ele><time>2026-03-29T18:20:13.999Z</time></trkpt><trkpt lat="43.57588522575145" lon="11.372738193299549"><ele>727.0</ele><time>2026-03-29T18:20:14.999Z</time></trkpt><trkpt lat="43.575897246085574" lon="11.372853274105136"><ele>726.6666666666666</ele><time>2026-03-29T18:20:16.999Z</time></trkpt><trkpt lat="43.57594362655417" lon="11.37293542497409"><ele>726.3333333333334</ele><time>2026-03-29T18:20:18.999Z</time></trkpt><trkpt lat="43.575977870431835" lon="11.373066673974545"><ele>726.0</ele><time>2026-03-29T18:20:21.999Z</time></trkpt><trkpt lat="43.57595464450451" lon="11.373163523251188"><ele>725.4</ele><time>2026-03-29T18:20:23.999Z</time></trkpt><trkpt lat="43.57587925271512" lon="11.373281781536937"><ele>724.8</ele><time>2026-03-29T18:20:25.999Z</time></trkpt><trkpt lat="43.57579014981595" lon="11.373349202125333"><ele>724.1999999999999</ele><time>2026-03-29T18:20:27.999Z</time></trkpt><trkpt lat="43.57570523487589" lon="11.373447206717678"><ele>723.5999999999999</ele><time>2026-03-29T18:20:29.999Z</time></trkpt><trkpt lat="43.57562567009813" lon="11.37357180435141"><ele>723.0</ele><time>2026-03-29T18:20:31.999Z</time></trkpt><trkpt lat="43.57559051446483" lon="11.373646426932924"><ele>723.0</ele><time>2026-03-29T18:20:32.999Z</time></trkpt><trkpt lat="43.57555053809281" lon="11.373779762127295"><ele>723.0</ele><time>2026-03-29T18:20:34.999Z</time></trkpt><trkpt lat="43.57559899930869" lon="11.373835448240806"><ele>723.0</ele><time>2026-03-29T18:20:36.999Z</time></trkpt><trkpt lat="43.57569664751231" lon="11.373716297555598"><ele>723.0</ele><time>2026-03-29T18:20:38.999Z</time></trkpt><trkpt lat="43.57578049111664" lon="11.373635995120594"><ele>723.0</ele><time>2026-03-29T18:20:39.999Z</time></trkpt><trkpt lat="43.57587461810861" lon="11.373587293583055"><ele>723.0</ele><time>2026-03-29T18:20:40.999Z</time></trkpt><trkpt lat="43.57597527852636" lon="11.37355372678276"><ele>723.0</ele><time>2026-03-29T18:20:41.999Z</time></trkpt><trkpt lat="43.57605796592275" lon="11.373527232742141"><ele>723.0</ele><time>2026-03-29T18:20:42.999Z</time></trkpt><trkpt lat="43.57615277807949" lon="11.373509200925861"><ele>723.0</ele><time>2026-03-29T18:20:43.999Z</time></trkpt><trkpt lat="43.57624536943715" lon="11.373510184762669"><ele>723.0</ele><time>2026-03-29T18:20:44.999Z</time></trkpt><trkpt lat="43.5763405143422" lon="11.373528323867912"><ele>724.0</ele><time>2026-03-29T18:20:45.999Z</time></trkpt><trkpt lat="43.576436872671756" lon="11.373557561690282"><ele>725.0</ele><time>2026-03-29T18:20:46.999Z</time></trkpt><trkpt lat="43.57653303108595" lon="11.373593479348122"><ele>726.0</ele><time>2026-03-29T18:20:47.999Z</time></trkpt><trkpt lat="43.57662864412159" lon="11.373616804218976"><ele>727.0</ele><time>2026-03-29T18:20:48.999Z</time></trkpt><trkpt lat="43.57672305855934" lon="11.37362440754081"><ele>728.0</ele><time>2026-03-29T18:20:49.999Z</time></trkpt><trkpt lat="43.57682156425956" lon="11.373630755362543"><ele>728.0</ele><time>2026-03-29T18:20:50.999Z</time></trkpt><trkpt lat="43.576911480403574" lon="11.373631448326128"><ele>728.0</ele><time>2026-03-29T18:20:51.999Z</time></trkpt><trkpt lat="43.57699200742654" lon="11.373616554940291"><ele>728.0</ele><time>2026-03-29T18:20:52.999Z</time></trkpt><trkpt lat="43.57706431911143" lon="11.373565545616769"><ele>728.0</ele><time>2026-03-29T18:20:53.999Z</time></trkpt><trkpt lat="43.577147957742575" lon="11.373507291909092"><ele>728.0</ele><time>2026-03-29T18:20:54.999Z</time></trkpt><trkpt lat="43.577249987959924" lon="11.373460290107031"><ele>727.4</ele><time>2026-03-29T18:20:55.999Z</time></trkpt><trkpt lat="43.57735355596809" lon="11.373471276230054"><ele>726.8</ele><time>2026-03-29T18:20:56.999Z</time></trkpt><trkpt lat="43.57745818594929" lon="11.3734483355325"><ele>726.2</ele><time>2026-03-29T18:20:57.999Z</time></trkpt><trkpt lat="43.57755937323656" lon="11.373446647921817"><ele>725.6</ele><time>2026-03-29T18:20:58.999Z</time></trkpt><trkpt lat="43.57766045867772" lon="11.373463699028168"><ele>725.0</ele><time>2026-03-29T18:20:59.999Z</time></trkpt><trkpt lat="43.57774836626576" lon="11.373426845878843"><ele>725.0</ele><time>2026-03-29T18:21:00.999Z</time></trkpt><trkpt lat="43.57783318088847" lon="11.373395317276989"><ele>725.0</ele><time>2026-03-29T18:21:01.999Z</time></trkpt><trkpt lat="43.577895479344754" lon="11.37333308696048"><ele>725.0</ele><time>2026-03-29T18:21:02.999Z</time></trkpt><trkpt lat="43.57795448778037" lon="11.37323637156544"><ele>725.0</ele><time>2026-03-29T18:21:03.999Z</time></trkpt><trkpt lat="43.57800751566201" lon="11.37312790390765"><ele>725.0</ele><time>2026-03-29T18:21:04.999Z</time></trkpt><trkpt lat="43.57805074661809" lon="11.37303506863698"><ele>725.0</ele><time>2026-03-29T18:21:05.999Z</time></trkpt><trkpt lat="43.57809829666153" lon="11.372943180340634"><ele>724.4</ele><time>2026-03-29T18:21:06.999Z</time></trkpt><trkpt lat="43.578146560321954" lon="11.372845593670458"><ele>723.8</ele><time>2026-03-29T18:21:07.999Z</time></trkpt><trkpt lat="43.57820173609522" lon="11.372749307980115"><ele>723.2</ele><time>2026-03-29T18:21:08.999Z</time></trkpt><trkpt lat="43.57827720761173" lon="11.372642615095218"><ele>722.6</ele><time>2026-03-29T18:21:09.999Z</time></trkpt><trkpt lat="43.5783654242797" lon="11.372547040094604"><ele>722.0</ele><time>2026-03-29T18:21:10.999Z</time></trkpt><trkpt lat="43.578450041824" lon="11.372462910878298"><ele>722.0</ele><time>2026-03-29T18:21:11.999Z</time></trkpt><trkpt lat="43.578534730136155" lon="11.372386721032663"><ele>722.0</ele><time>2026-03-29T18:21:12.999Z</time></trkpt><trkpt lat="43.578621165756" lon="11.372309544834737"><ele>722.0</ele><time>2026-03-29T18:21:13.999Z</time></trkpt><trkpt lat="43.57872075211023" lon="11.372220931753537"><ele>722.0</ele><time>2026-03-29T18:21:14.999Z</time></trkpt><trkpt lat="43.578822794828376" lon="11.372151431073398"><ele>722.0</ele><time>2026-03-29T18:21:15.999Z</time></trkpt><trkpt lat="43.5789130859176" lon="11.37209862336797"><ele>719.4000000000001</ele><time>2026-03-29T18:21:16.999Z</time></trkpt><trkpt lat="43.57899344139762" lon="11.3720490522323"><ele>716.8000000000001</ele><time>2026-03-29T18:21:17.999Z</time></trkpt><trkpt lat="43.57907214888727" lon="11.371976351664145"><ele>714.2</ele><time>2026-03-29T18:21:18.999Z</time></trkpt><trkpt lat="43.57913791710714" lon="11.371883728393408"><ele>711.6</ele><time>2026-03-29T18:21:19.999Z</time></trkpt><trkpt lat="43.57920169309926" lon="11.371789575100442"><ele>709.0</ele><time>2026-03-29T18:21:20.999Z</time></trkpt><trkpt lat="43.5792586812224" lon="11.37169855809061"><ele>709.0</ele><time>2026-03-29T18:21:21.999Z</time></trkpt><trkpt lat="43.579321385209695" lon="11.371611534879737"><ele>709.0</ele><time>2026-03-29T18:21:22.999Z</time></trkpt><trkpt lat="43.579393060227225" lon="11.371545313721217"><ele>709.0</ele><time>2026-03-29T18:21:23.999Z</time></trkpt><trkpt lat="43.57947964534435" lon="11.371489625418725"><ele>709.0</ele><time>2026-03-29T18:21:24.999Z</time></trkpt><trkpt lat="43.57957645273489" lon="11.371456065041375"><ele>709.0</ele><time>2026-03-29T18:21:25.999Z</time></trkpt><trkpt lat="43.57967533108941" lon="11.371472081429152"><ele>709.6</ele><time>2026-03-29T18:21:26.999Z</time></trkpt><trkpt lat="43.57976445120252" lon="11.371467977023263"><ele>710.2</ele><time>2026-03-29T18:21:27.999Z</time></trkpt><trkpt lat="43.57985732594231" lon="11.371453770860299"><ele>710.8000000000001</ele><time>2026-03-29T18:21:28.999Z</time></trkpt><trkpt lat="43.579942232903186" lon="11.371415502616175"><ele>711.4000000000001</ele><time>2026-03-29T18:21:29.999Z</time></trkpt><trkpt lat="43.580016801420264" lon="11.37132700907753"><ele>712.0</ele><time>2026-03-29T18:21:30.999Z</time></trkpt><trkpt lat="43.580085051248204" lon="11.371241986222758"><ele>709.0</ele><time>2026-03-29T18:21:31.999Z</time></trkpt><trkpt lat="43.58014721251446" lon="11.37113866168059"><ele>706.0</ele><time>2026-03-29T18:21:32.999Z</time></trkpt><trkpt lat="43.580203981487216" lon="11.371047203500181"><ele>703.0</ele><time>2026-03-29T18:21:33.999Z</time></trkpt><trkpt lat="43.58026524218328" lon="11.370970515689615"><ele>700.0</ele><time>2026-03-29T18:21:34.999Z</time></trkpt><trkpt lat="43.580336197520786" lon="11.370916545448743"><ele>697.0</ele><time>2026-03-29T18:21:35.999Z</time></trkpt><trkpt lat="43.580417412183735" lon="11.370905584695896"><ele>694.0</ele><time>2026-03-29T18:21:36.999Z</time></trkpt><trkpt lat="43.58049020177093" lon="11.370971339405878"><ele>693.0</ele><time>2026-03-29T18:21:37.999Z</time></trkpt><trkpt lat="43.580555964563786" lon="11.371048125567363"><ele>692.0</ele><time>2026-03-29T18:21:38.999Z</time></trkpt><trkpt lat="43.58064671054889" lon="11.371115788071231"><ele>691.0</ele><time>2026-03-29T18:21:39.999Z</time></trkpt><trkpt lat="43.58072607343686" lon="11.371170876920525"><ele>690.0</ele><time>2026-03-29T18:21:40.999Z</time></trkpt><trkpt lat="43.580809302766774" lon="11.371223719779657"><ele>689.0</ele><time>2026-03-29T18:21:41.999Z</time></trkpt><trkpt lat="43.58090161756897" lon="11.37125965004524"><ele>689.0</ele><time>2026-03-29T18:21:42.999Z</time></trkpt><trkpt lat="43.58099277755624" lon="11.371250770297095"><ele>689.0</ele><time>2026-03-29T18:21:43.999Z</time></trkpt><trkpt lat="43.581087015816415" lon="11.371255111436385"><ele>689.0</ele><time>2026-03-29T18:21:44.999Z</time></trkpt><trkpt lat="43.58117644966083" lon="11.371246184751072"><ele>689.0</ele><time>2026-03-29T18:21:45.999Z</time></trkpt><trkpt lat="43.581259662154906" lon="11.371236597014763"><ele>689.0</ele><time>2026-03-29T18:21:46.999Z</time></trkpt><trkpt lat="43.58134250916202" lon="11.37122581798765"><ele>689.0</ele><time>2026-03-29T18:21:47.999Z</time></trkpt><trkpt lat="43.58143053690569" lon="11.371216223537166"><ele>687.0</ele><time>2026-03-29T18:21:48.999Z</time></trkpt><trkpt lat="43.58152555121168" lon="11.371205148203567"><ele>685.0</ele><time>2026-03-29T18:21:49.999Z</time></trkpt><trkpt lat="43.58162489415085" lon="11.371190066710204"><ele>683.0</ele><time>2026-03-29T18:21:50.999Z</time></trkpt><trkpt lat="43.5817150549166" lon="11.371168846802869"><ele>681.0</ele><time>2026-03-29T18:21:51.999Z</time></trkpt><trkpt lat="43.58180480847029" lon="11.371153981248577"><ele>679.0</ele><time>2026-03-29T18:21:52.999Z</time></trkpt><trkpt lat="43.581898745612364" lon="11.371121227231935"><ele>679.0</ele><time>2026-03-29T18:21:53.999Z</time></trkpt><trkpt lat="43.5819940635897" lon="11.371097044565666"><ele>679.0</ele><time>2026-03-29T18:21:54.999Z</time></trkpt><trkpt lat="43.582087024920845" lon="11.371071944056732"><ele>679.0</ele><time>2026-03-29T18:21:55.999Z</time></trkpt><trkpt lat="43.58218488162217" lon="11.371039694814305"><ele>679.0</ele><time>2026-03-29T18:21:56.999Z</time></trkpt><trkpt lat="43.582277230475185" lon="11.371007457551872"><ele>679.0</ele><time>2026-03-29T18:21:57.999Z</time></trkpt><trkpt lat="43.582375085622" lon="11.370969060971246"><ele>677.2</ele><time>2026-03-29T18:21:58.999Z</time></trkpt><trkpt lat="43.58247455804222" lon="11.37092756687572"><ele>675.4000000000001</ele><time>2026-03-29T18:21:59.999Z</time></trkpt><trkpt lat="43.58257498894772" lon="11.370882573294265"><ele>673.6</ele><time>2026-03-29T18:22:00.999Z</time></trkpt><trkpt lat="43.582673008333124" lon="11.370835431789795"><ele>671.8</ele><time>2026-03-29T18:22:01.999Z</time></trkpt><trkpt lat="43.58276513226232" lon="11.370779053725636"><ele>670.0</ele><time>2026-03-29T18:22:02.999Z</time></trkpt><trkpt lat="43.58285287297115" lon="11.37071062482856"><ele>668.25</ele><time>2026-03-29T18:22:03.999Z</time></trkpt><trkpt lat="43.582943870088734" lon="11.370633583050273"><ele>666.5</ele><time>2026-03-29T18:22:04.999Z</time></trkpt><trkpt lat="43.58305109567904" lon="11.370521533372733"><ele>664.75</ele><time>2026-03-29T18:22:05.999Z</time></trkpt><trkpt lat="43.583173575511154" lon="11.370388526734677"><ele>663.0</ele><time>2026-03-29T18:22:06.999Z</time></trkpt><trkpt lat="43.58330523081777" lon="11.370231311844151"><ele>663.0</ele><time>2026-03-29T18:22:07.999Z</time></trkpt><trkpt lat="43.583447960892556" lon="11.370071734527183"><ele>663.0</ele><time>2026-03-29T18:22:08.999Z</time></trkpt><trkpt lat="43.58358955768072" lon="11.369929904735532"><ele>663.0</ele><time>2026-03-29T18:22:09.999Z</time></trkpt><trkpt lat="43.583698108892676" lon="11.369797270014459"><ele>662.0</ele><time>2026-03-29T18:22:10.999Z</time></trkpt><trkpt lat="43.583806078746186" lon="11.369671674411489"><ele>661.0</ele><time>2026-03-29T18:22:11.999Z</time></trkpt><trkpt lat="43.58391247971365" lon="11.369543503151187"><ele>660.0</ele><time>2026-03-29T18:22:12.999Z</time></trkpt><trkpt lat="43.58401545873889" lon="11.36942282742793"><ele>659.0</ele><time>2026-03-29T18:22:13.999Z</time></trkpt><trkpt lat="43.58411610961596" lon="11.369307882405577"><ele>659.0</ele><time>2026-03-29T18:22:14.999Z</time></trkpt><trkpt lat="43.58421917951779" lon="11.369188550761804"><ele>659.0</ele><time>2026-03-29T18:22:15.999Z</time></trkpt><trkpt lat="43.584324979156364" lon="11.369074931174781"><ele>659.0</ele><time>2026-03-29T18:22:16.999Z</time></trkpt><trkpt lat="43.58442887014725" lon="11.36897305781797"><ele>659.0</ele><time>2026-03-29T18:22:17.999Z</time></trkpt><trkpt lat="43.584529967830555" lon="11.368880985873135"><ele>656.6</ele><time>2026-03-29T18:22:18.999Z</time></trkpt><trkpt lat="43.58462405912201" lon="11.36879545750435"><ele>654.2</ele><time>2026-03-29T18:22:19.999Z</time></trkpt><trkpt lat="43.584718290485135" lon="11.368711375599508"><ele>651.8000000000001</ele><time>2026-03-29T18:22:20.999Z</time></trkpt><trkpt lat="43.58480715310812" lon="11.368629400801453"><ele>649.4000000000001</ele><time>2026-03-29T18:22:21.999Z</time></trkpt><trkpt lat="43.584898637926514" lon="11.368544826251094"><ele>647.0</ele><time>2026-03-29T18:22:22.999Z</time></trkpt><trkpt lat="43.584985183639105" lon="11.36846128055255"><ele>647.0</ele><time>2026-03-29T18:22:23.999Z</time></trkpt><trkpt lat="43.585066133896476" lon="11.368382512975614"><ele>647.0</ele><time>2026-03-29T18:22:24.999Z</time></trkpt><trkpt lat="43.58514663188231" lon="11.368309077809252"><ele>647.0</ele><time>2026-03-29T18:22:25.999Z</time></trkpt><trkpt lat="43.58522332229926" lon="11.368242267354923"><ele>647.0</ele><time>2026-03-29T18:22:26.999Z</time></trkpt><trkpt lat="43.585295973984124" lon="11.368176001837357"><ele>647.0</ele><time>2026-03-29T18:22:27.999Z</time></trkpt><trkpt lat="43.58535811229766" lon="11.36810612324471"><ele>644.0</ele><time>2026-03-29T18:22:28.999Z</time></trkpt><trkpt lat="43.58539865656622" lon="11.368026453590437"><ele>641.0</ele><time>2026-03-29T18:22:29.999Z</time></trkpt><trkpt lat="43.585420060890776" lon="11.367919595946022"><ele>638.0</ele><time>2026-03-29T18:22:30.999Z</time></trkpt><trkpt lat="43.5854179383345" lon="11.367801597929148"><ele>635.0</ele><time>2026-03-29T18:22:31.999Z</time></trkpt><trkpt lat="43.58539195226622" lon="11.367659273131261"><ele>632.0</ele><time>2026-03-29T18:22:32.999Z</time></trkpt><trkpt lat="43.585355917050386" lon="11.367479072194326"><ele>632.75</ele><time>2026-03-29T18:22:33.999Z</time></trkpt><trkpt lat="43.58533460388501" lon="11.367296793523197"><ele>633.5</ele><time>2026-03-29T18:22:34.999Z</time></trkpt><trkpt lat="43.58534005798991" lon="11.367100310086334"><ele>634.25</ele><time>2026-03-29T18:22:35.999Z</time></trkpt><trkpt lat="43.58536440156916" lon="11.366910400485713"><ele>635.0</ele><time>2026-03-29T18:22:36.999Z</time></trkpt><trkpt lat="43.58538353841451" lon="11.366741307980826"><ele>633.0</ele><time>2026-03-29T18:22:37.999Z</time></trkpt><trkpt lat="43.58540004873042" lon="11.366597594217286"><ele>631.0</ele><time>2026-03-29T18:22:38.999Z</time></trkpt><trkpt lat="43.58540925071739" lon="11.36649234891631"><ele>629.0</ele><time>2026-03-29T18:22:39.999Z</time></trkpt><trkpt lat="43.585437203449814" lon="11.366339476220364"><ele>627.0</ele><time>2026-03-29T18:22:41.999Z</time></trkpt><trkpt lat="43.58565886202718" lon="11.366340458539023"><ele>627.0</ele><time>2026-03-29T18:22:44.999Z</time></trkpt><trkpt lat="43.58579321092962" lon="11.366352774101689"><ele>627.0</ele><time>2026-03-29T18:22:45.999Z</time></trkpt><trkpt lat="43.58593821892428" lon="11.366366066844106"><ele>627.0</ele><time>2026-03-29T18:22:46.999Z</time></trkpt><trkpt lat="43.586087346323644" lon="11.366379737171115"><ele>627.0</ele><time>2026-03-29T18:22:47.999Z</time></trkpt><trkpt lat="43.58622972517665" lon="11.366393137918473"><ele>627.0</ele><time>2026-03-29T18:22:48.999Z</time></trkpt><trkpt lat="43.58638456735958" lon="11.366409075613632"><ele>627.0</ele><time>2026-03-29T18:22:49.999Z</time></trkpt><trkpt lat="43.5865204334381" lon="11.366412668139665"><ele>627.0</ele><time>2026-03-29T18:22:50.999Z</time></trkpt><trkpt lat="43.586646225210366" lon="11.366414273984542"><ele>627.0</ele><time>2026-03-29T18:22:51.999Z</time></trkpt><trkpt lat="43.586761724253684" lon="11.366438737470983"><ele>627.0</ele><time>2026-03-29T18:22:52.999Z</time></trkpt><trkpt lat="43.58688696825315" lon="11.366438329639058"><ele>627.0</ele><time>2026-03-29T18:22:53.999Z</time></trkpt><trkpt lat="43.58702607568252" lon="11.366416542790216"><ele>627.0</ele><time>2026-03-29T18:22:54.999Z</time></trkpt><trkpt lat="43.58717455965215" lon="11.36639758070252"><ele>627.0</ele><time>2026-03-29T18:22:55.999Z</time></trkpt><trkpt lat="43.58732544670258" lon="11.366411095390735"><ele>626.0</ele><time>2026-03-29T18:22:56.999Z</time></trkpt><trkpt lat="43.58745655122734" lon="11.366392339132895"><ele>625.0</ele><time>2026-03-29T18:22:57.999Z</time></trkpt><trkpt lat="43.58757379859373" lon="11.366416243717993"><ele>624.0</ele><time>2026-03-29T18:22:58.999Z</time></trkpt><trkpt lat="43.58768666781088" lon="11.366405579713438"><ele>623.0</ele><time>2026-03-29T18:22:59.999Z</time></trkpt><trkpt lat="43.58778776181221" lon="11.366420293197631"><ele>622.25</ele><time>2026-03-29T18:23:00.999Z</time></trkpt><trkpt lat="43.58790170778335" lon="11.366453062005494"><ele>621.5</ele><time>2026-03-29T18:23:01.999Z</time></trkpt><trkpt lat="43.58801234324336" lon="11.36647723312769"><ele>620.75</ele><time>2026-03-29T18:23:02.999Z</time></trkpt><trkpt lat="43.588120723343295" lon="11.366485627773326"><ele>620.0</ele><time>2026-03-29T18:23:03.999Z</time></trkpt><trkpt lat="43.58824011868166" lon="11.36650790613038"><ele>620.0</ele><time>2026-03-29T18:23:04.999Z</time></trkpt><trkpt lat="43.58834430850524" lon="11.366537049248317"><ele>620.0</ele><time>2026-03-29T18:23:05.999Z</time></trkpt><trkpt lat="43.58843714650573" lon="11.366549771729796"><ele>620.0</ele><time>2026-03-29T18:23:06.999Z</time></trkpt><trkpt lat="43.58852932587026" lon="11.366553398386776"><ele>620.0</ele><time>2026-03-29T18:23:07.999Z</time></trkpt><trkpt lat="43.58861696451493" lon="11.366545183644536"><ele>620.0</ele><time>2026-03-29T18:23:08.999Z</time></trkpt><trkpt lat="43.588707183261704" lon="11.366503573371643"><ele>619.6666666666666</ele><time>2026-03-29T18:23:09.999Z</time></trkpt><trkpt lat="43.58878121936448" lon="11.366456041916697"><ele>619.3333333333333</ele><time>2026-03-29T18:23:10.999Z</time></trkpt><trkpt lat="43.58888898960261" lon="11.36653827877582"><ele>619.0</ele><time>2026-03-29T18:23:12.999Z</time></trkpt><trkpt lat="43.58895153153181" lon="11.36658745467073"><ele>618.6666666666666</ele><time>2026-03-29T18:23:13.999Z</time></trkpt><trkpt lat="43.58900843278218" lon="11.366631348963223"><ele>618.3333333333334</ele><time>2026-03-29T18:23:14.999Z</time></trkpt><trkpt lat="43.589028808926734" lon="11.366734916521567"><ele>618.0</ele><time>2026-03-29T18:23:16.999Z</time></trkpt><trkpt lat="43.58907445689036" lon="11.366811485543424"><ele>618.0</ele><time>2026-03-29T18:23:18.999Z</time></trkpt><trkpt lat="43.589145119703176" lon="11.366849456601301"><ele>618.0</ele><time>2026-03-29T18:23:20.999Z</time></trkpt><trkpt lat="43.58940982439374" lon="11.366622806015483"><ele>618.0</ele><time>2026-03-29T18:23:21.999Z</time></trkpt><trkpt lat="43.58947377434159" lon="11.36674070880585"><ele>616.8333333333334</ele><time>2026-03-29T18:23:23.999Z</time></trkpt><trkpt lat="43.58950992670613" lon="11.36683484541187"><ele>615.6666666666666</ele><time>2026-03-29T18:23:25.999Z</time></trkpt><trkpt lat="43.58959866970419" lon="11.366877425728424"><ele>614.5</ele><time>2026-03-29T18:23:27.999Z</time></trkpt><trkpt lat="43.58968681563679" lon="11.36692346012812"><ele>613.3333333333333</ele><time>2026-03-29T18:23:29.999Z</time></trkpt><trkpt lat="43.589728788075064" lon="11.36698878938866"><ele>612.1666666666666</ele><time>2026-03-29T18:23:30.999Z</time></trkpt><trkpt lat="43.58982372983136" lon="11.367027349410963"><ele>611.0</ele><time>2026-03-29T18:23:32.999Z</time></trkpt><trkpt lat="43.5899198945602" lon="11.367046682315351"><ele>611.0</ele><time>2026-03-29T18:23:34.999Z</time></trkpt><trkpt lat="43.59000432587257" lon="11.366981478477715"><ele>611.0</ele><time>2026-03-29T18:23:36.999Z</time></trkpt><trkpt lat="43.590094389711986" lon="11.366918688550484"><ele>611.0</ele><time>2026-03-29T18:23:38.999Z</time></trkpt><trkpt lat="43.59015608570329" lon="11.366890731607551"><ele>611.0</ele><time>2026-03-29T18:23:39.999Z</time></trkpt><trkpt lat="43.590262378812604" lon="11.366777658819755"><ele>611.0</ele><time>2026-03-29T18:23:41.999Z</time></trkpt><trkpt lat="43.590329161289915" lon="11.366728678003378"><ele>608.8333333333333</ele><time>2026-03-29T18:23:42.999Z</time></trkpt><trkpt lat="43.590426570740384" lon="11.366645026689758"><ele>606.6666666666666</ele><time>2026-03-29T18:23:44.999Z</time></trkpt><trkpt lat="43.590484137822806" lon="11.36653145361829"><ele>604.5</ele><time>2026-03-29T18:23:45.999Z</time></trkpt><trkpt lat="43.59054576847448" lon="11.36642996114783"><ele>602.3333333333334</ele><time>2026-03-29T18:23:46.999Z</time></trkpt><trkpt lat="43.590577359909105" lon="11.366347115123741"><ele>600.1666666666667</ele><time>2026-03-29T18:23:47.999Z</time></trkpt><trkpt lat="43.59059300860977" lon="11.366260461594331"><ele>598.0</ele><time>2026-03-29T18:23:48.999Z</time></trkpt><trkpt lat="43.59063072496817" lon="11.366187713764583"><ele>598.0</ele><time>2026-03-29T18:23:50.999Z</time></trkpt><trkpt lat="43.59073403995655" lon="11.366236174157487"><ele>598.0</ele><time>2026-03-29T18:23:52.999Z</time></trkpt><trkpt lat="43.590799401817236" lon="11.366306196828674"><ele>598.0</ele><time>2026-03-29T18:23:53.999Z</time></trkpt><trkpt lat="43.59084489185899" lon="11.366369169997368"><ele>598.0</ele><time>2026-03-29T18:23:54.999Z</time></trkpt><trkpt lat="43.59089473186499" lon="11.366475558413248"><ele>598.0</ele><time>2026-03-29T18:23:57.999Z</time></trkpt><trkpt lat="43.59099307915351" lon="11.366543104754541"><ele>598.0</ele><time>2026-03-29T18:23:59.999Z</time></trkpt><trkpt lat="43.59105782715396" lon="11.36659156722872"><ele>598.0</ele><time>2026-03-29T18:24:00.999Z</time></trkpt><trkpt lat="43.591081545316136" lon="11.366707714380908"><ele>598.0</ele><time>2026-03-29T18:24:02.999Z</time></trkpt><trkpt lat="43.59105313172986" lon="11.3667992582155"><ele>598.0</ele><time>2026-03-29T18:24:03.999Z</time></trkpt><trkpt lat="43.5910393365745" lon="11.366896019117556"><ele>598.0</ele><time>2026-03-29T18:24:04.999Z</time></trkpt><trkpt lat="43.59104783677426" lon="11.366986708764154"><ele>598.0</ele><time>2026-03-29T18:24:05.999Z</time></trkpt><trkpt lat="43.591105187394454" lon="11.367095221361218"><ele>598.6666666666667</ele><time>2026-03-29T18:24:07.999Z</time></trkpt><trkpt lat="43.59120750464427" lon="11.36701957641149"><ele>599.3333333333334</ele><time>2026-03-29T18:24:09.999Z</time></trkpt><trkpt lat="43.59127567868001" lon="11.36696058470608"><ele>600.0</ele><time>2026-03-29T18:24:10.999Z</time></trkpt><trkpt lat="43.591341535195106" lon="11.366942769312697"><ele>600.6666666666666</ele><time>2026-03-29T18:24:11.999Z</time></trkpt><trkpt lat="43.59143476517206" lon="11.366874951064416"><ele>601.3333333333333</ele><time>2026-03-29T18:24:13.999Z</time></trkpt><trkpt lat="43.59149969370493" lon="11.36684875684406"><ele>602.0</ele><time>2026-03-29T18:24:14.999Z</time></trkpt><trkpt lat="43.591561083258775" lon="11.36681981018313"><ele>602.0</ele><time>2026-03-29T18:24:15.999Z</time></trkpt><trkpt lat="43.59162255046288" lon="11.366713018757352"><ele>602.0</ele><time>2026-03-29T18:24:17.999Z</time></trkpt><trkpt lat="43.591665075654156" lon="11.366636312880052"><ele>602.0</ele><time>2026-03-29T18:24:18.999Z</time></trkpt><trkpt lat="43.59173428700975" lon="11.366605781965712"><ele>602.0</ele><time>2026-03-29T18:24:20.999Z</time></trkpt><trkpt lat="43.59180850891744" lon="11.366597246587137"><ele>602.0</ele><time>2026-03-29T18:24:24.999Z</time></trkpt><trkpt lat="43.59181188391951" lon="11.366499567592198"><ele>602.0</ele><time>2026-03-29T18:24:27.999Z</time></trkpt><trkpt lat="43.591891211205386" lon="11.366437254873764"><ele>602.0</ele><time>2026-03-29T18:24:29.999Z</time></trkpt><trkpt lat="43.59198621008028" lon="11.366367091626024"><ele>602.0</ele><time>2026-03-29T18:24:31.999Z</time></trkpt><trkpt lat="43.59203727124042" lon="11.36631524272503"><ele>602.0</ele><time>2026-03-29T18:24:33.999Z</time></trkpt><trkpt lat="43.592093826333226" lon="11.366268885590252"><ele>602.0</ele><time>2026-03-29T18:24:39.999Z</time></trkpt><trkpt lat="43.592157919057534" lon="11.36624556350404"><ele>602.0</ele><time>2026-03-29T18:24:47.999Z</time></trkpt><trkpt lat="43.59225131468971" lon="11.36626866902365"><ele>602.0</ele><time>2026-03-29T18:24:50.999Z</time></trkpt><trkpt lat="43.592376726126375" lon="11.366279732977812"><ele>602.3333333333333</ele><time>2026-03-29T18:24:52.999Z</time></trkpt><trkpt lat="43.59244720001887" lon="11.366280209842264"><ele>602.6666666666666</ele><time>2026-03-29T18:24:53.999Z</time></trkpt><trkpt lat="43.59254321909429" lon="11.366265363637078"><ele>603.0</ele><time>2026-03-29T18:24:55.999Z</time></trkpt><trkpt lat="43.59266366624496" lon="11.366243448978349"><ele>603.3333333333334</ele><time>2026-03-29T18:24:57.999Z</time></trkpt><trkpt lat="43.59273813935077" lon="11.36623982493678"><ele>603.6666666666667</ele><time>2026-03-29T18:24:58.999Z</time></trkpt><trkpt lat="43.59281880010131" lon="11.366224560786723"><ele>604.0</ele><time>2026-03-29T18:24:59.999Z</time></trkpt><trkpt lat="43.59291694754437" lon="11.366192634327204"><ele>604.1666666666667</ele><time>2026-03-29T18:25:00.999Z</time></trkpt><trkpt lat="43.593006277980535" lon="11.366157480921752"><ele>604.3333333333334</ele><time>2026-03-29T18:25:01.999Z</time></trkpt><trkpt lat="43.593069598689546" lon="11.366162534145866"><ele>604.5</ele><time>2026-03-29T18:25:02.999Z</time></trkpt><trkpt lat="43.59312567759432" lon="11.366233121330016"><ele>604.6666666666666</ele><time>2026-03-29T18:25:03.999Z</time></trkpt><trkpt lat="43.59317124064678" lon="11.366303075415114"><ele>604.8333333333333</ele><time>2026-03-29T18:25:04.999Z</time></trkpt><trkpt lat="43.593248461293015" lon="11.36640120531686"><ele>605.0</ele><time>2026-03-29T18:25:06.999Z</time></trkpt><trkpt lat="43.593330056303046" lon="11.366486753296337"><ele>605.0</ele><time>2026-03-29T18:25:08.999Z</time></trkpt><trkpt lat="43.59340185740282" lon="11.366626972091659"><ele>605.0</ele><time>2026-03-29T18:25:10.999Z</time></trkpt><trkpt lat="43.59348433934938" lon="11.366696979098377"><ele>605.0</ele><time>2026-03-29T18:25:12.999Z</time></trkpt><trkpt lat="43.593569591596975" lon="11.36664600165468"><ele>605.0</ele><time>2026-03-29T18:25:14.999Z</time></trkpt><trkpt lat="43.59361918934858" lon="11.366549613803233"><ele>605.0</ele><time>2026-03-29T18:25:16.999Z</time></trkpt><trkpt lat="43.593674977098765" lon="11.36647043941285"><ele>602.8333333333333</ele><time>2026-03-29T18:25:18.999Z</time></trkpt><trkpt lat="43.59372638754404" lon="11.366385579217186"><ele>600.6666666666666</ele><time>2026-03-29T18:25:20.999Z</time></trkpt><trkpt lat="43.593760627145734" lon="11.36629223503676"><ele>598.5</ele><time>2026-03-29T18:25:22.999Z</time></trkpt><trkpt lat="43.59381111458181" lon="11.366179240598932"><ele>596.3333333333334</ele><time>2026-03-29T18:25:24.999Z</time></trkpt><trkpt lat="43.593817764414744" lon="11.366073772241197"><ele>594.1666666666667</ele><time>2026-03-29T18:25:26.999Z</time></trkpt><trkpt lat="43.59391815950658" lon="11.366039947395247"><ele>592.0</ele><time>2026-03-29T18:25:29.999Z</time></trkpt><trkpt lat="43.5940062368365" lon="11.366108057790866"><ele>591.5</ele><time>2026-03-29T18:25:31.999Z</time></trkpt><trkpt lat="43.59407716878249" lon="11.36610074702961"><ele>591.0</ele><time>2026-03-29T18:25:32.999Z</time></trkpt><trkpt lat="43.594179631271075" lon="11.366014361129489"><ele>590.5</ele><time>2026-03-29T18:25:34.999Z</time></trkpt><trkpt lat="43.594236860718816" lon="11.365963710437853"><ele>590.0</ele><time>2026-03-29T18:25:35.999Z</time></trkpt><trkpt lat="43.594286944809525" lon="11.365908982155782"><ele>589.5</ele><time>2026-03-29T18:25:36.999Z</time></trkpt><trkpt lat="43.59434042831631" lon="11.36585041657721"><ele>589.0</ele><time>2026-03-29T18:25:37.999Z</time></trkpt><trkpt lat="43.59440306523855" lon="11.365812526791958"><ele>589.0</ele><time>2026-03-29T18:25:38.999Z</time></trkpt><trkpt lat="43.59447579906202" lon="11.365797554110774"><ele>589.0</ele><time>2026-03-29T18:25:39.999Z</time></trkpt><trkpt lat="43.594539319739326" lon="11.365809892957362"><ele>589.0</ele><time>2026-03-29T18:25:40.999Z</time></trkpt><trkpt lat="43.59460363201464" lon="11.365837999485102"><ele>589.0</ele><time>2026-03-29T18:25:41.999Z</time></trkpt><trkpt lat="43.59466686705114" lon="11.365876110700444"><ele>589.0</ele><time>2026-03-29T18:25:42.999Z</time></trkpt><trkpt lat="43.594734617956455" lon="11.365915176672598"><ele>589.0</ele><time>2026-03-29T18:25:43.999Z</time></trkpt><trkpt lat="43.5948088186629" lon="11.365950519512072"><ele>589.0</ele><time>2026-03-29T18:25:44.999Z</time></trkpt><trkpt lat="43.59488349284243" lon="11.36597763329721"><ele>587.1666666666667</ele><time>2026-03-29T18:25:45.999Z</time></trkpt><trkpt lat="43.59495633734084" lon="11.365992361364306"><ele>585.3333333333334</ele><time>2026-03-29T18:25:46.999Z</time></trkpt><trkpt lat="43.59502660263804" lon="11.366001331535003"><ele>583.5</ele><time>2026-03-29T18:25:47.999Z</time></trkpt><trkpt lat="43.5951569326239" lon="11.365967460849012"><ele>581.6666666666666</ele><time>2026-03-29T18:25:49.999Z</time></trkpt><trkpt lat="43.59523157276086" lon="11.365957194898122"><ele>579.8333333333333</ele><time>2026-03-29T18:25:50.999Z</time></trkpt><trkpt lat="43.59530152060579" lon="11.365886607416156"><ele>578.0</ele><time>2026-03-29T18:25:51.999Z</time></trkpt><trkpt lat="43.59537891977696" lon="11.365839830514123"><ele>578.0</ele><time>2026-03-29T18:25:52.999Z</time></trkpt><trkpt lat="43.595445404890555" lon="11.365799841658188"><ele>578.0</ele><time>2026-03-29T18:25:53.999Z</time></trkpt><trkpt lat="43.59551670365423" lon="11.36578921808376"><ele>578.0</ele><time>2026-03-29T18:25:54.999Z</time></trkpt><trkpt lat="43.595561562715616" lon="11.365722296542314"><ele>578.0</ele><time>2026-03-29T18:25:55.999Z</time></trkpt><trkpt lat="43.59561482822649" lon="11.365659953308542"><ele>578.0</ele><time>2026-03-29T18:25:56.999Z</time></trkpt><trkpt lat="43.595660922713485" lon="11.365587285390976"><ele>578.0</ele><time>2026-03-29T18:25:57.999Z</time></trkpt><trkpt lat="43.59569619122444" lon="11.36551056918031"><ele>578.0</ele><time>2026-03-29T18:25:58.999Z</time></trkpt><trkpt lat="43.59572072289161" lon="11.36542596109656"><ele>577.0</ele><time>2026-03-29T18:25:59.999Z</time></trkpt><trkpt lat="43.59574791588167" lon="11.365329435536584"><ele>576.0</ele><time>2026-03-29T18:26:00.999Z</time></trkpt><trkpt lat="43.595759679370786" lon="11.36523400262517"><ele>575.0</ele><time>2026-03-29T18:26:01.999Z</time></trkpt><trkpt lat="43.595781914981664" lon="11.36513583573345"><ele>574.0</ele><time>2026-03-29T18:26:02.999Z</time></trkpt><trkpt lat="43.595760221448685" lon="11.365018492809801"><ele>573.0</ele><time>2026-03-29T18:26:03.999Z</time></trkpt><trkpt lat="43.595747612894826" lon="11.36489697965991"><ele>572.0</ele><time>2026-03-29T18:26:04.999Z</time></trkpt><trkpt lat="43.595730855457695" lon="11.364793734714139"><ele>570.5</ele><time>2026-03-29T18:26:05.999Z</time></trkpt><trkpt lat="43.59569928258326" lon="11.364608673703612"><ele>569.0</ele><time>2026-03-29T18:26:07.999Z</time></trkpt><trkpt lat="43.59569484076901" lon="11.36451456124328"><ele>567.5</ele><time>2026-03-29T18:26:08.999Z</time></trkpt><trkpt lat="43.59568942284711" lon="11.364410325235115"><ele>566.0</ele><time>2026-03-29T18:26:09.999Z</time></trkpt><trkpt lat="43.59569076629957" lon="11.364310388595138"><ele>564.5</ele><time>2026-03-29T18:26:10.999Z</time></trkpt><trkpt lat="43.59570067417667" lon="11.364205995002605"><ele>563.0</ele><time>2026-03-29T18:26:11.999Z</time></trkpt><trkpt lat="43.595720470822016" lon="11.364105674142689"><ele>563.0</ele><time>2026-03-29T18:26:12.999Z</time></trkpt><trkpt lat="43.59574667693441" lon="11.363999405520179"><ele>563.0</ele><time>2026-03-29T18:26:13.999Z</time></trkpt><trkpt lat="43.595768230978244" lon="11.363904487027009"><ele>563.0</ele><time>2026-03-29T18:26:14.999Z</time></trkpt><trkpt lat="43.595798795862784" lon="11.363820216014068"><ele>563.0</ele><time>2026-03-29T18:26:15.999Z</time></trkpt><trkpt lat="43.59584245028919" lon="11.363733910566236"><ele>563.0</ele><time>2026-03-29T18:26:16.999Z</time></trkpt><trkpt lat="43.595904431792285" lon="11.363672628851143"><ele>563.0</ele><time>2026-03-29T18:26:17.999Z</time></trkpt><trkpt lat="43.595973014494156" lon="11.36363104898653"><ele>563.0</ele><time>2026-03-29T18:26:18.999Z</time></trkpt><trkpt lat="43.596061147336854" lon="11.363592612587032"><ele>560.5</ele><time>2026-03-29T18:26:19.999Z</time></trkpt><trkpt lat="43.59613868048565" lon="11.36355827981779"><ele>558.0</ele><time>2026-03-29T18:26:20.999Z</time></trkpt><trkpt lat="43.59620750262827" lon="11.36353080428712"><ele>555.5</ele><time>2026-03-29T18:26:21.999Z</time></trkpt><trkpt lat="43.5962719107695" lon="11.36352876360092"><ele>553.0</ele><time>2026-03-29T18:26:22.999Z</time></trkpt><trkpt lat="43.59634710626778" lon="11.363590771992545"><ele>550.5</ele><time>2026-03-29T18:26:23.999Z</time></trkpt><trkpt lat="43.596454390488944" lon="11.36361919107304"><ele>548.0</ele><time>2026-03-29T18:26:24.999Z</time></trkpt><trkpt lat="43.59653264310198" lon="11.363706800099207"><ele>547.2857142857143</ele><time>2026-03-29T18:26:25.999Z</time></trkpt><trkpt lat="43.59659358898604" lon="11.363767348173923"><ele>546.5714285714286</ele><time>2026-03-29T18:26:26.999Z</time></trkpt><trkpt lat="43.59664877423466" lon="11.363821625544245"><ele>545.8571428571429</ele><time>2026-03-29T18:26:27.999Z</time></trkpt><trkpt lat="43.596715776274515" lon="11.363863202781578"><ele>545.1428571428571</ele><time>2026-03-29T18:26:28.999Z</time></trkpt><trkpt lat="43.596775983693284" lon="11.363929823326291"><ele>544.4285714285714</ele><time>2026-03-29T18:26:29.999Z</time></trkpt><trkpt lat="43.596841832206344" lon="11.363967683584436"><ele>543.7142857142858</ele><time>2026-03-29T18:26:30.999Z</time></trkpt><trkpt lat="43.59690992928629" lon="11.36397420465077"><ele>543.0</ele><time>2026-03-29T18:26:31.999Z</time></trkpt><trkpt lat="43.596997067650406" lon="11.363966250270368"><ele>542.3333333333334</ele><time>2026-03-29T18:26:32.999Z</time></trkpt><trkpt lat="43.59708240764454" lon="11.363938793083724"><ele>541.6666666666666</ele><time>2026-03-29T18:26:33.999Z</time></trkpt><trkpt lat="43.597157458311166" lon="11.363911247307309"><ele>541.0</ele><time>2026-03-29T18:26:34.999Z</time></trkpt><trkpt lat="43.597238984772744" lon="11.363871182828309"><ele>540.3333333333333</ele><time>2026-03-29T18:26:36Z</time></trkpt><trkpt lat="43.59731412785619" lon="11.363821147332933"><ele>539.6666666666666</ele><time>2026-03-29T18:26:37Z</time></trkpt><trkpt lat="43.59740172514642" lon="11.363768406631733"><ele>539.0</ele><time>2026-03-29T18:26:38Z</time></trkpt><trkpt lat="43.59748168000361" lon="11.363722733906366"><ele>537.8333333333333</ele><time>2026-03-29T18:26:39Z</time></trkpt><trkpt lat="43.597551201242425" lon="11.363691602650315"><ele>536.6666666666666</ele><time>2026-03-29T18:26:40Z</time></trkpt><trkpt lat="43.59761923744976" lon="11.363719273003024"><ele>535.5</ele><time>2026-03-29T18:26:41Z</time></trkpt><trkpt lat="43.59769202987101" lon="11.363714410383922"><ele>534.3333333333334</ele><time>2026-03-29T18:26:42Z</time></trkpt><trkpt lat="43.5977845317871" lon="11.363754367323534"><ele>533.1666666666667</ele><time>2026-03-29T18:26:43Z</time></trkpt><trkpt lat="43.59787020897204" lon="11.363783255844137"><ele>532.0</ele><time>2026-03-29T18:26:44Z</time></trkpt><trkpt lat="43.597949609873346" lon="11.363799717147558"><ele>532.0</ele><time>2026-03-29T18:26:45Z</time></trkpt><trkpt lat="43.59801909894201" lon="11.363809966460245"><ele>532.0</ele><time>2026-03-29T18:26:46Z</time></trkpt><trkpt lat="43.59811786511961" lon="11.36385436776665"><ele>532.0</ele><time>2026-03-29T18:26:48Z</time></trkpt><trkpt lat="43.598202502572896" lon="11.363877043064385"><ele>532.0</ele><time>2026-03-29T18:26:50Z</time></trkpt><trkpt lat="43.59818902382578" lon="11.363585725029496"><ele>532.0</ele><time>2026-03-29T18:26:53Z</time></trkpt><trkpt lat="43.59813906019976" lon="11.363495476501367"><ele>532.0</ele><time>2026-03-29T18:26:54Z</time></trkpt><trkpt lat="43.598078227211495" lon="11.363405637002096"><ele>532.0</ele><time>2026-03-29T18:26:55Z</time></trkpt><trkpt lat="43.5980034011183" lon="11.363311956179441"><ele>532.0</ele><time>2026-03-29T18:26:56Z</time></trkpt><trkpt lat="43.59791610169482" lon="11.363228410058944"><ele>532.0</ele><time>2026-03-29T18:26:57Z</time></trkpt><trkpt lat="43.59781447289005" lon="11.363162470941052"><ele>532.0</ele><time>2026-03-29T18:26:57.999Z</time></trkpt><trkpt lat="43.59769019241286" lon="11.363125519832813"><ele>532.0</ele><time>2026-03-29T18:26:58.999Z</time></trkpt><trkpt lat="43.597545981743366" lon="11.363097716960192"><ele>532.0</ele><time>2026-03-29T18:26:59.999Z</time></trkpt><trkpt lat="43.59739728320769" lon="11.363064635256421"><ele>532.0</ele><time>2026-03-29T18:27:00.999Z</time></trkpt><trkpt lat="43.597265912916924" lon="11.363021297982007"><ele>530.5</ele><time>2026-03-29T18:27:01.999Z</time></trkpt><trkpt lat="43.59714485184067" lon="11.362969996379398"><ele>529.0</ele><time>2026-03-29T18:27:02.999Z</time></trkpt><trkpt lat="43.597032727466704" lon="11.362908561143842"><ele>527.5</ele><time>2026-03-29T18:27:03.999Z</time></trkpt><trkpt lat="43.59692800950126" lon="11.362837463781428"><ele>526.0</ele><time>2026-03-29T18:27:04.999Z</time></trkpt><trkpt lat="43.59683524590468" lon="11.362729462888876"><ele>526.0</ele><time>2026-03-29T18:27:05.999Z</time></trkpt><trkpt lat="43.59676697822013" lon="11.362584629098038"><ele>526.0</ele><time>2026-03-29T18:27:06.999Z</time></trkpt><trkpt lat="43.59672019825156" lon="11.362421093624834"><ele>526.0</ele><time>2026-03-29T18:27:07.999Z</time></trkpt><trkpt lat="43.59667363695599" lon="11.362278222218892"><ele>526.0</ele><time>2026-03-29T18:27:08.999Z</time></trkpt><trkpt lat="43.59658391503423" lon="11.362196937789465"><ele>520.5</ele><time>2026-03-29T18:27:09.999Z</time></trkpt><trkpt lat="43.596477301710934" lon="11.362132546570786"><ele>515.0</ele><time>2026-03-29T18:27:10.999Z</time></trkpt><trkpt lat="43.59635181424364" lon="11.362127127648346"><ele>509.5</ele><time>2026-03-29T18:27:11.999Z</time></trkpt><trkpt lat="43.596224930073895" lon="11.362139498634924"><ele>504.0</ele><time>2026-03-29T18:27:12.999Z</time></trkpt><trkpt lat="43.59609956949817" lon="11.362167378784735"><ele>508.75</ele><time>2026-03-29T18:27:13.999Z</time></trkpt><trkpt lat="43.59597862330674" lon="11.362227116599719"><ele>513.5</ele><time>2026-03-29T18:27:14.999Z</time></trkpt><trkpt lat="43.595869331955754" lon="11.362328701372302"><ele>518.25</ele><time>2026-03-29T18:27:15.999Z</time></trkpt><trkpt lat="43.59574519432908" lon="11.362398065320349"><ele>523.0</ele><time>2026-03-29T18:27:16.999Z</time></trkpt><trkpt lat="43.595627130028724" lon="11.36248979660414"><ele>523.0</ele><time>2026-03-29T18:27:17.999Z</time></trkpt><trkpt lat="43.59551302477336" lon="11.362581133795763"><ele>523.0</ele><time>2026-03-29T18:27:18.999Z</time></trkpt><trkpt lat="43.595404866541216" lon="11.362688419399893"><ele>523.0</ele><time>2026-03-29T18:27:19.999Z</time></trkpt><trkpt lat="43.59529290477652" lon="11.36276891412159"><ele>523.0</ele><time>2026-03-29T18:27:20.999Z</time></trkpt><trkpt lat="43.59518583073442" lon="11.362832651497925"><ele>524.25</ele><time>2026-03-29T18:27:21.999Z</time></trkpt><trkpt lat="43.59507461592175" lon="11.362868637197593"><ele>525.5</ele><time>2026-03-29T18:27:22.999Z</time></trkpt><trkpt lat="43.59496593985807" lon="11.362928776451744"><ele>526.75</ele><time>2026-03-29T18:27:23.999Z</time></trkpt><trkpt lat="43.59486440591442" lon="11.363020790421867"><ele>528.0</ele><time>2026-03-29T18:27:24.999Z</time></trkpt><trkpt lat="43.59478149106163" lon="11.363123356849737"><ele>528.0</ele><time>2026-03-29T18:27:25.999Z</time></trkpt><trkpt lat="43.59469674851595" lon="11.363222877897138"><ele>528.0</ele><time>2026-03-29T18:27:26.999Z</time></trkpt><trkpt lat="43.594611165398995" lon="11.363316450517237"><ele>528.0</ele><time>2026-03-29T18:27:27.999Z</time></trkpt><trkpt lat="43.594523759318506" lon="11.363410843865488"><ele>528.0</ele><time>2026-03-29T18:27:28.999Z</time></trkpt><trkpt lat="43.59441687116414" lon="11.36347117693071"><ele>528.0</ele><time>2026-03-29T18:27:29.999Z</time></trkpt><trkpt lat="43.5943022339202" lon="11.363496761618233"><ele>526.0</ele><time>2026-03-29T18:27:30.999Z</time></trkpt><trkpt lat="43.59418164467283" lon="11.36348370367706"><ele>524.0</ele><time>2026-03-29T18:27:31.999Z</time></trkpt><trkpt lat="43.59406091254664" lon="11.363446866503942"><ele>522.0</ele><time>2026-03-29T18:27:32.999Z</time></trkpt><trkpt lat="43.593940823535476" lon="11.363388364844072"><ele>520.0</ele><time>2026-03-29T18:27:33.999Z</time></trkpt><trkpt lat="43.593818377014514" lon="11.363317650691004"><ele>520.0</ele><time>2026-03-29T18:27:34.999Z</time></trkpt><trkpt lat="43.59369136591942" lon="11.363249687468223"><ele>520.0</ele><time>2026-03-29T18:27:35.999Z</time></trkpt><trkpt lat="43.59357481927387" lon="11.363208992079459"><ele>520.0</ele><time>2026-03-29T18:27:36.999Z</time></trkpt><trkpt lat="43.59345702949254" lon="11.363200051382872"><ele>520.0</ele><time>2026-03-29T18:27:37.999Z</time></trkpt><trkpt lat="43.59334014976966" lon="11.363218758323239"><ele>521.4</ele><time>2026-03-29T18:27:38.999Z</time></trkpt><trkpt lat="43.59322684755292" lon="11.363221834434533"><ele>522.8</ele><time>2026-03-29T18:27:39.999Z</time></trkpt><trkpt lat="43.5931123277448" lon="11.363246013184728"><ele>524.2</ele><time>2026-03-29T18:27:40.999Z</time></trkpt><trkpt lat="43.593004871868665" lon="11.36328815529154"><ele>525.6</ele><time>2026-03-29T18:27:41.999Z</time></trkpt><trkpt lat="43.59289735454373" lon="11.363296036029356"><ele>527.0</ele><time>2026-03-29T18:27:42.999Z</time></trkpt><trkpt lat="43.59279385412597" lon="11.36329712192001"><ele>528.0</ele><time>2026-03-29T18:27:43.999Z</time></trkpt><trkpt lat="43.59269695578264" lon="11.363290133962604"><ele>529.0</ele><time>2026-03-29T18:27:44.999Z</time></trkpt><trkpt lat="43.59260646616613" lon="11.36325567510936"><ele>530.0</ele><time>2026-03-29T18:27:45.999Z</time></trkpt><trkpt lat="43.592532642833085" lon="11.363177590549524"><ele>531.0</ele><time>2026-03-29T18:27:46.999Z</time></trkpt><trkpt lat="43.592482577980384" lon="11.363065349942822"><ele>532.0</ele><time>2026-03-29T18:27:47.999Z</time></trkpt><trkpt lat="43.592472093942185" lon="11.362930136672155"><ele>532.0</ele><time>2026-03-29T18:27:48.999Z</time></trkpt><trkpt lat="43.592497408792426" lon="11.362779014397383"><ele>532.0</ele><time>2026-03-29T18:27:49.999Z</time></trkpt><trkpt lat="43.592539281543004" lon="11.362622879727985"><ele>532.0</ele><time>2026-03-29T18:27:50.999Z</time></trkpt><trkpt lat="43.59259079664425" lon="11.362474623665024"><ele>532.0</ele><time>2026-03-29T18:27:51.999Z</time></trkpt><trkpt lat="43.59265240446527" lon="11.362299974719477"><ele>532.0</ele><time>2026-03-29T18:27:52.999Z</time></trkpt><trkpt lat="43.59271867176715" lon="11.362134086036086"><ele>532.0</ele><time>2026-03-29T18:27:53.999Z</time></trkpt><trkpt lat="43.59277932975929" lon="11.361980809202567"><ele>532.0</ele><time>2026-03-29T18:27:54.999Z</time></trkpt><trkpt lat="43.592837246936384" lon="11.361833100273751"><ele>532.0</ele><time>2026-03-29T18:27:55.999Z</time></trkpt><trkpt lat="43.5928866230653" lon="11.361686979097524"><ele>523.8000000000001</ele><time>2026-03-29T18:27:56.999Z</time></trkpt><trkpt lat="43.592917232959316" lon="11.361536843747425"><ele>515.6</ele><time>2026-03-29T18:27:57.999Z</time></trkpt><trkpt lat="43.59293407992425" lon="11.361387344628676"><ele>507.40000000000003</ele><time>2026-03-29T18:27:58.999Z</time></trkpt><trkpt lat="43.59294137225455" lon="11.361241461721985"><ele>499.20000000000005</ele><time>2026-03-29T18:27:59.999Z</time></trkpt><trkpt lat="43.592934936330686" lon="11.36109830605815"><ele>491.0</ele><time>2026-03-29T18:28:00.999Z</time></trkpt><trkpt lat="43.5929017171189" lon="11.360964194619237"><ele>489.4</ele><time>2026-03-29T18:28:01.999Z</time></trkpt><trkpt lat="43.59284260685442" lon="11.360855435292633"><ele>487.8</ele><time>2026-03-29T18:28:02.999Z</time></trkpt><trkpt lat="43.59276067585509" lon="11.360782737335642"><ele>486.19999999999993</ele><time>2026-03-29T18:28:03.999Z</time></trkpt><trkpt lat="43.59267337761972" lon="11.360738233399049"><ele>484.59999999999997</ele><time>2026-03-29T18:28:04.999Z</time></trkpt><trkpt lat="43.59259923250809" lon="11.360678504149217"><ele>483.0</ele><time>2026-03-29T18:28:05.999Z</time></trkpt><trkpt lat="43.59252129315277" lon="11.360606552695709"><ele>488.0</ele><time>2026-03-29T18:28:06.999Z</time></trkpt><trkpt lat="43.592434343717684" lon="11.360602282184836"><ele>492.99999999999994</ele><time>2026-03-29T18:28:07.999Z</time></trkpt><trkpt lat="43.592385704859204" lon="11.360476745490528"><ele>497.99999999999994</ele><time>2026-03-29T18:28:08.999Z</time></trkpt><trkpt lat="43.59237035002233" lon="11.360323184766598"><ele>503.0</ele><time>2026-03-29T18:28:09.999Z</time></trkpt><trkpt lat="43.59240186481412" lon="11.3601673886158"><ele>508.0</ele><time>2026-03-29T18:28:10.999Z</time></trkpt><trkpt lat="43.59241456546065" lon="11.360002910548808"><ele>508.0</ele><time>2026-03-29T18:28:11.999Z</time></trkpt><trkpt lat="43.59244288248126" lon="11.35984292500454"><ele>508.0</ele><time>2026-03-29T18:28:12.999Z</time></trkpt><trkpt lat="43.59246739847305" lon="11.359676016245478"><ele>508.0</ele><time>2026-03-29T18:28:13.999Z</time></trkpt><trkpt lat="43.592493393896355" lon="11.359517164779396"><ele>508.0</ele><time>2026-03-29T18:28:14.999Z</time></trkpt><trkpt lat="43.592525876987516" lon="11.35937107580178"><ele>507.79999999999995</ele><time>2026-03-29T18:28:15.999Z</time></trkpt><trkpt lat="43.592577660118614" lon="11.359244655469041"><ele>507.59999999999997</ele><time>2026-03-29T18:28:16.999Z</time></trkpt><trkpt lat="43.59265026106713" lon="11.359143180789047"><ele>507.40000000000003</ele><time>2026-03-29T18:28:17.999Z</time></trkpt><trkpt lat="43.59272953723948" lon="11.359046760548654"><ele>507.20000000000005</ele><time>2026-03-29T18:28:18.999Z</time></trkpt><trkpt lat="43.592782709905535" lon="11.358939563101432"><ele>507.0</ele><time>2026-03-29T18:28:19.999Z</time></trkpt><trkpt lat="43.59278535291158" lon="11.358800732053899"><ele>506.0</ele><time>2026-03-29T18:28:20.999Z</time></trkpt><trkpt lat="43.592752350835035" lon="11.358659889033143"><ele>505.0</ele><time>2026-03-29T18:28:21.999Z</time></trkpt><trkpt lat="43.592678518085386" lon="11.358522246532049"><ele>504.0</ele><time>2026-03-29T18:28:22.999Z</time></trkpt><trkpt lat="43.59259403286095" lon="11.358396085605904"><ele>503.0</ele><time>2026-03-29T18:28:23.999Z</time></trkpt><trkpt lat="43.592524355587436" lon="11.358249535482608"><ele>503.0</ele><time>2026-03-29T18:28:24.999Z</time></trkpt><trkpt lat="43.5924729772904" lon="11.358087619837649"><ele>503.0</ele><time>2026-03-29T18:28:25.999Z</time></trkpt><trkpt lat="43.59243611002384" lon="11.3579139406487"><ele>503.0</ele><time>2026-03-29T18:28:26.999Z</time></trkpt><trkpt lat="43.592401984216295" lon="11.357728328470518"><ele>503.0</ele><time>2026-03-29T18:28:27.999Z</time></trkpt><trkpt lat="43.59237156220304" lon="11.357544179025435"><ele>498.5</ele><time>2026-03-29T18:28:28.999Z</time></trkpt><trkpt lat="43.59234656051964" lon="11.357373068173345"><ele>494.0</ele><time>2026-03-29T18:28:29.999Z</time></trkpt><trkpt lat="43.592315585613" lon="11.357209675064139"><ele>489.5</ele><time>2026-03-29T18:28:30.999Z</time></trkpt><trkpt lat="43.592292954168904" lon="11.357040186116452"><ele>485.0</ele><time>2026-03-29T18:28:31.999Z</time></trkpt><trkpt lat="43.59227004364541" lon="11.356863105570811"><ele>481.0</ele><time>2026-03-29T18:28:32.999Z</time></trkpt><trkpt lat="43.59224459542799" lon="11.356696993419655"><ele>477.0</ele><time>2026-03-29T18:28:33.999Z</time></trkpt><trkpt lat="43.59219917356175" lon="11.356553310803172"><ele>473.0</ele><time>2026-03-29T18:28:34.999Z</time></trkpt><trkpt lat="43.59212107572241" lon="11.35644041287446"><ele>469.0</ele><time>2026-03-29T18:28:35.999Z</time></trkpt><trkpt lat="43.592026591307324" lon="11.356350847085116"><ele>470.5</ele><time>2026-03-29T18:28:36.999Z</time></trkpt><trkpt lat="43.59191358999334" lon="11.356286754098806"><ele>472.0</ele><time>2026-03-29T18:28:37.999Z</time></trkpt><trkpt lat="43.5917982465541" lon="11.356228353174794"><ele>473.5</ele><time>2026-03-29T18:28:38.999Z</time></trkpt><trkpt lat="43.59170887821039" lon="11.356121042491294"><ele>475.0</ele><time>2026-03-29T18:28:39.999Z</time></trkpt><trkpt lat="43.59163756156797" lon="11.355996853436736"><ele>475.0</ele><time>2026-03-29T18:28:40.999Z</time></trkpt><trkpt lat="43.5915854001849" lon="11.355868086076153"><ele>475.0</ele><time>2026-03-29T18:28:42Z</time></trkpt><trkpt lat="43.59152093259718" lon="11.355766216252155"><ele>475.0</ele><time>2026-03-29T18:28:43Z</time></trkpt><trkpt lat="43.591426028134414" lon="11.355713837778886"><ele>475.0</ele><time>2026-03-29T18:28:44Z</time></trkpt><trkpt lat="43.59131817279649" lon="11.355719491443258"><ele>475.0</ele><time>2026-03-29T18:28:45Z</time></trkpt><trkpt lat="43.59120906302626" lon="11.355753267814215"><ele>475.6</ele><time>2026-03-29T18:28:46Z</time></trkpt><trkpt lat="43.591096081990806" lon="11.355773105174316"><ele>476.2</ele><time>2026-03-29T18:28:47Z</time></trkpt><trkpt lat="43.59099121065202" lon="11.355782991381352"><ele>476.79999999999995</ele><time>2026-03-29T18:28:48Z</time></trkpt><trkpt lat="43.59089193266093" lon="11.355763711728873"><ele>477.4</ele><time>2026-03-29T18:28:49Z</time></trkpt><trkpt lat="43.59081385689129" lon="11.355664669472121"><ele>478.0</ele><time>2026-03-29T18:28:50Z</time></trkpt><trkpt lat="43.59076451269432" lon="11.355542901266768"><ele>478.2</ele><time>2026-03-29T18:28:51Z</time></trkpt><trkpt lat="43.59075232325376" lon="11.355411410531085"><ele>478.4</ele><time>2026-03-29T18:28:52Z</time></trkpt><trkpt lat="43.59078537578911" lon="11.355277633865276"><ele>478.59999999999997</ele><time>2026-03-29T18:28:53Z</time></trkpt><trkpt lat="43.590839923207085" lon="11.355158035161525"><ele>478.79999999999995</ele><time>2026-03-29T18:28:54Z</time></trkpt><trkpt lat="43.590931944951095" lon="11.355071680504562"><ele>479.0</ele><time>2026-03-29T18:28:55Z</time></trkpt><trkpt lat="43.59103908592251" lon="11.355007853588571"><ele>479.0</ele><time>2026-03-29T18:28:56Z</time></trkpt><trkpt lat="43.59114479990914" lon="11.354956615280342"><ele>479.0</ele><time>2026-03-29T18:28:57Z</time></trkpt><trkpt lat="43.59125709594801" lon="11.354901611704104"><ele>479.0</ele><time>2026-03-29T18:28:58Z</time></trkpt><trkpt lat="43.59137140424439" lon="11.354838373608665"><ele>479.0</ele><time>2026-03-29T18:28:59Z</time></trkpt><trkpt lat="43.591484045752715" lon="11.354781236167897"><ele>480.25</ele><time>2026-03-29T18:29:00Z</time></trkpt><trkpt lat="43.59158777705695" lon="11.354712583479984"><ele>481.5</ele><time>2026-03-29T18:29:01Z</time></trkpt><trkpt lat="43.59168628771426" lon="11.354631601930654"><ele>482.75</ele><time>2026-03-29T18:29:02Z</time></trkpt><trkpt lat="43.59177263724273" lon="11.354526785142895"><ele>484.0</ele><time>2026-03-29T18:29:03Z</time></trkpt><trkpt lat="43.59186648841656" lon="11.354433883242995"><ele>484.0</ele><time>2026-03-29T18:29:04Z</time></trkpt><trkpt lat="43.59197476431459" lon="11.354365817685036"><ele>484.0</ele><time>2026-03-29T18:29:05Z</time></trkpt><trkpt lat="43.592085058542054" lon="11.354318642637711"><ele>484.0</ele><time>2026-03-29T18:29:06Z</time></trkpt><trkpt lat="43.592194458140575" lon="11.354297697693077"><ele>484.0</ele><time>2026-03-29T18:29:07Z</time></trkpt><trkpt lat="43.59229700339139" lon="11.354249545845553"><ele>480.5</ele><time>2026-03-29T18:29:08Z</time></trkpt><trkpt lat="43.592385322105585" lon="11.354142520333268"><ele>477.0</ele><time>2026-03-29T18:29:09Z</time></trkpt><trkpt lat="43.592457406107194" lon="11.35400315033212"><ele>473.5</ele><time>2026-03-29T18:29:10Z</time></trkpt><trkpt lat="43.59254281650267" lon="11.353875036631141"><ele>470.0</ele><time>2026-03-29T18:29:11Z</time></trkpt><trkpt lat="43.59263342093362" lon="11.353760149599259"><ele>470.0</ele><time>2026-03-29T18:29:12Z</time></trkpt><trkpt lat="43.59272336647336" lon="11.353655238805048"><ele>470.0</ele><time>2026-03-29T18:29:13Z</time></trkpt><trkpt lat="43.592806079846255" lon="11.353557841096508"><ele>470.0</ele><time>2026-03-29T18:29:14Z</time></trkpt><trkpt lat="43.59287334719055" lon="11.353448436015789"><ele>470.0</ele><time>2026-03-29T18:29:15Z</time></trkpt><trkpt lat="43.592927557365016" lon="11.353323658031757"><ele>470.0</ele><time>2026-03-29T18:29:16Z</time></trkpt><trkpt lat="43.592962488984526" lon="11.353177344196421"><ele>468.5</ele><time>2026-03-29T18:29:17Z</time></trkpt><trkpt lat="43.592987932227174" lon="11.353026902337534"><ele>467.0</ele><time>2026-03-29T18:29:18Z</time></trkpt><trkpt lat="43.59301401355941" lon="11.352875095889845"><ele>465.5</ele><time>2026-03-29T18:29:19Z</time></trkpt><trkpt lat="43.59305286433301" lon="11.352728466923011"><ele>464.0</ele><time>2026-03-29T18:29:20Z</time></trkpt><trkpt lat="43.59311507188891" lon="11.352594275781899"><ele>464.0</ele><time>2026-03-29T18:29:20.999Z</time></trkpt><trkpt lat="43.59319117913274" lon="11.352472253183848"><ele>464.0</ele><time>2026-03-29T18:29:21.999Z</time></trkpt><trkpt lat="43.593276599259354" lon="11.352351121962888"><ele>464.0</ele><time>2026-03-29T18:29:22.999Z</time></trkpt><trkpt lat="43.59335832474559" lon="11.35221799613704"><ele>464.0</ele><time>2026-03-29T18:29:23.999Z</time></trkpt><trkpt lat="43.59342968493824" lon="11.352066062495908"><ele>466.25</ele><time>2026-03-29T18:29:24.999Z</time></trkpt><trkpt lat="43.59349546176239" lon="11.351917575301947"><ele>468.5</ele><time>2026-03-29T18:29:25.999Z</time></trkpt><trkpt lat="43.59355023501561" lon="11.351776762875078"><ele>470.75</ele><time>2026-03-29T18:29:26.999Z</time></trkpt><trkpt lat="43.593597333683206" lon="11.351630315700366"><ele>473.0</ele><time>2026-03-29T18:29:27.999Z</time></trkpt><trkpt lat="43.59363880278155" lon="11.351478764343236"><ele>473.0</ele><time>2026-03-29T18:29:28.999Z</time></trkpt><trkpt lat="43.593670429286334" lon="11.351318518787117"><ele>473.0</ele><time>2026-03-29T18:29:29.999Z</time></trkpt><trkpt lat="43.59369083214013" lon="11.351163653162878"><ele>473.0</ele><time>2026-03-29T18:29:30.999Z</time></trkpt><trkpt lat="43.59369362924351" lon="11.351007222260842"><ele>473.0</ele><time>2026-03-29T18:29:31.999Z</time></trkpt><trkpt lat="43.59368449331366" lon="11.350854603225685"><ele>473.0</ele><time>2026-03-29T18:29:32.999Z</time></trkpt><trkpt lat="43.593650455621294" lon="11.350707852676306"><ele>473.0</ele><time>2026-03-29T18:29:33.999Z</time></trkpt><trkpt lat="43.59359116341506" lon="11.350567182945502"><ele>473.0</ele><time>2026-03-29T18:29:34.999Z</time></trkpt><trkpt lat="43.59352281773008" lon="11.350421607448844"><ele>473.0</ele><time>2026-03-29T18:29:35.999Z</time></trkpt><trkpt lat="43.59345752169784" lon="11.350268757507353"><ele>471.0</ele><time>2026-03-29T18:29:36.999Z</time></trkpt><trkpt lat="43.59340332694558" lon="11.350102985731468"><ele>469.0</ele><time>2026-03-29T18:29:37.999Z</time></trkpt><trkpt lat="43.5933720231695" lon="11.349931943795346"><ele>467.0</ele><time>2026-03-29T18:29:38.999Z</time></trkpt><trkpt lat="43.593365624824216" lon="11.349764634041525"><ele>465.0</ele><time>2026-03-29T18:29:39.999Z</time></trkpt><trkpt lat="43.59337709709682" lon="11.349599062276424"><ele>462.75</ele><time>2026-03-29T18:29:40.999Z</time></trkpt><trkpt lat="43.593412550930196" lon="11.349435984586496"><ele>460.5</ele><time>2026-03-29T18:29:41.999Z</time></trkpt><trkpt lat="43.59346814484481" lon="11.349290768239905"><ele>458.25</ele><time>2026-03-29T18:29:42.999Z</time></trkpt><trkpt lat="43.59351537565924" lon="11.349154882852051"><ele>456.0</ele><time>2026-03-29T18:29:43.999Z</time></trkpt><trkpt lat="43.59351550004664" lon="11.349007661587942"><ele>453.0</ele><time>2026-03-29T18:29:44.999Z</time></trkpt><trkpt lat="43.59348100011532" lon="11.348858805142735"><ele>450.0</ele><time>2026-03-29T18:29:45.999Z</time></trkpt><trkpt lat="43.59342304534963" lon="11.348712395548278"><ele>447.0</ele><time>2026-03-29T18:29:46.999Z</time></trkpt><trkpt lat="43.59335717730478" lon="11.348572565061897"><ele>444.0</ele><time>2026-03-29T18:29:47.999Z</time></trkpt><trkpt lat="43.593291297881024" lon="11.348422901332311"><ele>444.0</ele><time>2026-03-29T18:29:48.999Z</time></trkpt><trkpt lat="43.59323530943585" lon="11.348265008011632"><ele>444.0</ele><time>2026-03-29T18:29:49.999Z</time></trkpt><trkpt lat="43.593186199343194" lon="11.348116570074106"><ele>444.0</ele><time>2026-03-29T18:29:50.999Z</time></trkpt><trkpt lat="43.593154278598284" lon="11.347979065823953"><ele>444.0</ele><time>2026-03-29T18:29:51.999Z</time></trkpt><trkpt lat="43.59314683137889" lon="11.347835754527216"><ele>442.79999999999995</ele><time>2026-03-29T18:29:52.999Z</time></trkpt><trkpt lat="43.59317463715695" lon="11.34769621822953"><ele>441.59999999999997</ele><time>2026-03-29T18:29:53.999Z</time></trkpt><trkpt lat="43.593214853063834" lon="11.347560546607323"><ele>440.4</ele><time>2026-03-29T18:29:54.999Z</time></trkpt><trkpt lat="43.593234797799084" lon="11.347431180343397"><ele>439.2</ele><time>2026-03-29T18:29:55.999Z</time></trkpt><trkpt lat="43.593244526832756" lon="11.347295386731137"><ele>438.0</ele><time>2026-03-29T18:29:56.999Z</time></trkpt><trkpt lat="43.593230201862376" lon="11.347163787459012"><ele>424.0</ele><time>2026-03-29T18:29:57.999Z</time></trkpt><trkpt lat="43.593177960202986" lon="11.347040283845681"><ele>424.0</ele><time>2026-03-29T18:29:58.999Z</time></trkpt><trkpt lat="43.593018167223185" lon="11.346847481953072"><ele>424.0</ele><time>2026-03-29T18:30:00.999Z</time></trkpt></trkseg></trk></gpx>